Darstellungsparameter: Aktuell verwendete Einstellungen:
Skalierung der Graphiken ... ?
xyx+y,   Skalierungsfaktor:      Skalierung: Modus: x, Faktor: 1
Darstellungszeitraum ... ?
Vom - - bis: - -   Zeitraum: 11.01.2020 - 31.01.2020
Min/Max/Avg-Anzeige ... ?
Zeige MMA aktuell
Zeige MMA Monat
Zeige MMA alles
Zeige --A aktuell
Zeige --A Monat
Zeige --A alles
Keine MMA-Anzeige
MMA:
Average (ber die Originaldaten)
MMA-Basis: 11.01.2020 - 31.01.2020
Quicknavigation für Darstellung... ?
Tage:      1T, 2T, 3T, 5T -1T -2T -3T -5T +1T +2T +3T +5T
Wochen: 1W, 2W, 3W -1W -2W -3W +1W +2W +3W
Monate: 1M, 3M, 6M -1M -3M -6M +1M +3M +6M
Jahre:    1J, 3J, 5J, 10J -1J -3J -5J -10J +1J +3J +5J +10J
Nutze für die Darstellung ... ?
Originaldaten oder Mittelwerte auf ...
Stundenbasis Tagesbasis Wochenbasis
Monatsbasis Jahresbasis      Datenbasis: Original-Daten
Darstellen als:
Statistik (Auto) Statistik J:M      Darstellung:
Zur Graphik,    zurück zur Übersicht aller Sensoren.
 
Tabellarische Datenbersicht: ?
 
Sensor: Nr:Datum:Temp:Feuchte:
Aussen-T/F 1 11-01-2020 00:04:17 5.5 C 30 %
2 11-01-2020 00:14:17 5.3 C 30 %
3 11-01-2020 00:24:17 5.4 C 30 %
4 11-01-2020 00:34:18 5 C 30 %
5 11-01-2020 00:44:18 4.7 C 32 %
6 11-01-2020 00:54:17 4.1 C 35 %
7 11-01-2020 01:04:18 3.5 C 37 %
8 11-01-2020 01:14:18 3.8 C 39 %
9 11-01-2020 01:24:17 4.1 C 38 %
10 11-01-2020 01:34:17 4.3 C 36 %
11 11-01-2020 01:44:17 4.5 C 36 %
12 11-01-2020 01:54:17 4.3 C 35 %
13 11-01-2020 02:04:17 3.7 C 38 %
14 11-01-2020 02:14:17 3.7 C 39 %
15 11-01-2020 02:24:17 3.3 C 39 %
16 11-01-2020 02:34:18 2.7 C 41 %
17 11-01-2020 02:44:18 2.9 C 42 %
18 11-01-2020 02:54:17 3.2 C 42 %
19 11-01-2020 03:04:18 3 C 41 %
20 11-01-2020 03:14:18 2.6 C 41 %
21 11-01-2020 03:24:17 2.3 C 44 %
22 11-01-2020 03:34:17 2.9 C 45 %
23 11-01-2020 03:44:17 3 C 43 %
24 11-01-2020 03:54:17 2.9 C 44 %
25 11-01-2020 04:04:17 2.9 C 44 %
Sensor: Nr:Datum:Temp:Feuchte:
Aussen-T/F 26 11-01-2020 04:14:17 3 C 43 %
27 11-01-2020 04:24:17 3.1 C 44 %
28 11-01-2020 04:34:18 3.4 C 40 %
29 11-01-2020 04:44:18 3.3 C 40 %
30 11-01-2020 04:54:17 3.3 C 40 %
31 11-01-2020 05:04:18 3.1 C 39 %
32 11-01-2020 05:14:18 2.9 C 40 %
33 11-01-2020 05:24:17 2.7 C 41 %
34 11-01-2020 05:34:17 2.7 C 42 %
35 11-01-2020 05:44:17 3 C 40 %
36 11-01-2020 05:54:17 3 C 40 %
37 11-01-2020 06:04:17 2.9 C 40 %
38 11-01-2020 06:14:17 2.9 C 40 %
39 11-01-2020 06:24:17 2.9 C 40 %
40 11-01-2020 06:34:17 2.8 C 40 %
41 11-01-2020 06:44:18 2.7 C 40 %
42 11-01-2020 06:54:17 2.7 C 40 %
43 11-01-2020 07:04:17 2.8 C 40 %
44 11-01-2020 07:14:17 2.6 C 40 %
45 11-01-2020 07:24:17 2.4 C 40 %
46 11-01-2020 07:34:17 2.5 C 41 %
47 11-01-2020 07:44:18 1.9 C 41 %
48 11-01-2020 07:54:17 1 C 40 %
49 11-01-2020 08:04:17 1 C 45 %
50 11-01-2020 08:14:17 0.6 C 45 %
Sensor: Nr:Datum:Temp:Feuchte:
Aussen-T/F 51 11-01-2020 08:24:17 0.4 C 45 %
52 11-01-2020 08:34:17 0.5 C 46 %
53 11-01-2020 08:44:18 0.9 C 47 %
54 11-01-2020 08:54:17 0.2 C 45 %
55 11-01-2020 09:04:17 1 C 46 %
56 11-01-2020 09:14:17 1 C 45 %
57 11-01-2020 09:24:17 1.3 C 45 %
58 11-01-2020 09:34:17 1.8 C 43 %
59 11-01-2020 09:44:17 1.9 C 40 %
60 11-01-2020 09:54:18 1.9 C 40 %
61 11-01-2020 10:04:18 2 C 38 %
62 11-01-2020 10:14:18 2.2 C 38 %
63 11-01-2020 10:24:17 2.4 C 38 %
64 11-01-2020 10:34:17 2.4 C 37 %
65 11-01-2020 10:44:17 2.5 C 37 %
66 11-01-2020 10:54:18 2.7 C 38 %
67 11-01-2020 11:04:17 3.4 C 37 %
68 11-01-2020 11:14:17 4.1 C 34 %
69 11-01-2020 11:24:17 4.1 C 32 %
70 11-01-2020 11:34:18 4.4 C 30 %
71 11-01-2020 11:44:18 4.9 C 30 %
72 11-01-2020 11:54:17 5.5 C 29 %
73 11-01-2020 12:04:17 5.9 C 29 %
74 11-01-2020 12:14:17 6.2 C 28 %
75 11-01-2020 12:24:17 6.6 C 23 %
Sensor: Nr:Datum:Temp:Feuchte:
Aussen-T/F 76 11-01-2020 12:34:18 7 C 20 %
77 11-01-2020 12:44:18 7 C 20 %
78 11-01-2020 12:54:17 7.3 C 20 %
79 11-01-2020 13:04:17 7.2 C 20 %
80 11-01-2020 13:14:17 7.2 C 20 %
81 11-01-2020 13:24:18 7 C 20 %
82 11-01-2020 13:34:17 7 C 20 %
83 11-01-2020 13:44:17 6.9 C 20 %
84 11-01-2020 13:54:17 6.8 C 20 %
85 11-01-2020 14:04:17 6.9 C 20 %
86 11-01-2020 14:14:18 6.8 C 20 %
87 11-01-2020 14:24:17 6.8 C 20 %
88 11-01-2020 14:34:18 6.7 C 20 %
89 11-01-2020 14:44:18 6.7 C 20 %
90 11-01-2020 14:54:17 6.6 C 20 %
91 11-01-2020 15:04:17 6.6 C 20 %
92 11-01-2020 15:14:17 6.5 C 20 %
93 11-01-2020 15:24:18 6.6 C 20 %
94 11-01-2020 15:34:17 6.4 C 20 %
95 11-01-2020 15:44:17 6.4 C 20 %
96 11-01-2020 15:54:17 6.6 C 20 %
97 11-01-2020 16:04:18 6.4 C 20 %
98 11-01-2020 16:14:18 6.2 C 20 %
99 11-01-2020 16:24:17 6.2 C 20 %
100 11-01-2020 16:34:41 6.1 C 20 %
Sensor: Nr:Datum:Temp:Feuchte:
Aussen-T/F 101 11-01-2020 16:44:41 6.1 C 20 %
102 11-01-2020 16:54:17 6 C 20 %
103 11-01-2020 17:04:18 5.9 C 20 %
104 11-01-2020 17:14:18 5.8 C 20 %
105 11-01-2020 17:24:17 5.7 C 20 %
106 11-01-2020 17:34:18 5.2 C 20 %
107 11-01-2020 17:44:18 5.3 C 20 %
108 11-01-2020 17:54:17 5 C 23 %
109 11-01-2020 18:04:17 5.1 C 20 %
110 11-01-2020 18:14:17 5 C 20 %
111 11-01-2020 18:24:17 4.5 C 26 %
112 11-01-2020 18:34:17 4.1 C 27 %
113 11-01-2020 18:44:17 3.9 C 30 %
114 11-01-2020 18:54:17 3.8 C 31 %
115 11-01-2020 19:04:17 3.6 C 31 %
116 11-01-2020 19:14:17 3 C 33 %
117 11-01-2020 19:24:17 2.8 C 35 %
118 11-01-2020 19:34:17 2.7 C 35 %
119 11-01-2020 19:44:17 2.7 C 34 %
120 11-01-2020 19:54:17 2.8 C 34 %
121 11-01-2020 20:04:17 2.5 C 34 %
122 11-01-2020 20:14:18 2.4 C 35 %
123 11-01-2020 20:24:17 2.4 C 34 %
124 11-01-2020 20:34:17 1.9 C 36 %
125 11-01-2020 20:44:17 2.2 C 36 %
Sensor: Nr:Datum:Temp:Feuchte:
Aussen-T/F 126 11-01-2020 20:54:17 2.1 C 36 %
127 11-01-2020 21:04:17 2.1 C 36 %
128 11-01-2020 21:14:17 1.9 C 37 %
129 11-01-2020 21:24:17 1.7 C 37 %
130 11-01-2020 21:34:17 1.5 C 38 %
131 11-01-2020 21:44:17 1.1 C 40 %
132 11-01-2020 21:54:17 1.5 C 40 %
133 11-01-2020 22:04:17 1.3 C 40 %
134 11-01-2020 22:14:18 1.1 C 40 %
135 11-01-2020 22:24:17 0.9 C 42 %
136 11-01-2020 22:34:17 0.8 C 43 %
137 11-01-2020 22:44:17 1.2 C 41 %
138 11-01-2020 22:54:17 0.9 C 41 %
139 11-01-2020 23:04:17 0.9 C 42 %
140 11-01-2020 23:14:17 1.7 C 39 %
141 11-01-2020 23:24:17 1.2 C 38 %
142 11-01-2020 23:34:17 0.8 C 41 %
143 11-01-2020 23:44:17 0.5 C 42 %
144 11-01-2020 23:54:17 0.5 C 43 %
145 12-01-2020 00:04:17 0.7 C 44 %
146 12-01-2020 00:14:17 1.1 C 42 %
147 12-01-2020 00:24:17 0.8 C 41 %
148 12-01-2020 00:34:17 1.3 C 40 %
149 12-01-2020 00:44:17 0.7 C 41 %
150 12-01-2020 00:54:17 0.7 C 42 %
Sensor: Nr:Datum:Temp:Feuchte:
Aussen-T/F 151 12-01-2020 01:04:17 0.7 C 42 %
152 12-01-2020 01:14:17 0.8 C 43 %
153 12-01-2020 01:24:17 1.1 C 42 %
154 12-01-2020 01:34:17 0.8 C 41 %
155 12-01-2020 01:44:17 1.2 C 40 %
156 12-01-2020 01:54:17 1.8 C 39 %
157 12-01-2020 02:04:17 1.7 C 37 %
158 12-01-2020 02:14:17 1.9 C 36 %
159 12-01-2020 02:24:17 1.9 C 36 %
160 12-01-2020 02:34:17 1.8 C 37 %
161 12-01-2020 02:44:17 1.9 C 35 %
162 12-01-2020 02:54:17 1.4 C 37 %
163 12-01-2020 03:04:17 2.2 C 35 %
164 12-01-2020 03:14:17 1.5 C 37 %
165 12-01-2020 03:24:17 1.7 C 36 %
166 12-01-2020 03:34:17 1.4 C 37 %
167 12-01-2020 03:44:17 1 C 40 %
168 12-01-2020 03:54:17 1.5 C 41 %
169 12-01-2020 04:04:17 1.4 C 41 %
170 12-01-2020 04:14:17 1.5 C 40 %
171 12-01-2020 04:24:17 1.8 C 41 %
172 12-01-2020 04:34:17 2.1 C 38 %
173 12-01-2020 04:44:17 2.3 C 37 %
174 12-01-2020 04:54:17 2.7 C 35 %
175 12-01-2020 05:04:17 3 C 33 %
Sensor: Nr:Datum:Temp:Feuchte:
Aussen-T/F 176 12-01-2020 05:14:18 3.3 C 31 %
177 12-01-2020 05:24:17 3.2 C 31 %
178 12-01-2020 05:34:17 3.2 C 31 %
179 12-01-2020 05:44:17 3.5 C 31 %
180 12-01-2020 05:54:17 3.6 C 30 %
181 12-01-2020 06:04:18 3.7 C 30 %
182 12-01-2020 06:14:18 3.6 C 30 %
183 12-01-2020 06:24:17 3.6 C 30 %
184 12-01-2020 06:34:17 3.7 C 30 %
185 12-01-2020 06:44:17 3.6 C 30 %
186 12-01-2020 06:54:17 3.7 C 30 %
187 12-01-2020 07:04:17 3.7 C 30 %
188 12-01-2020 07:14:17 4.1 C 29 %
189 12-01-2020 07:24:17 3.7 C 30 %
190 12-01-2020 07:34:17 3.7 C 30 %
191 12-01-2020 07:44:17 3.8 C 29 %
192 12-01-2020 07:54:17 3.8 C 29 %
193 12-01-2020 08:04:18 3.7 C 29 %
194 12-01-2020 08:14:18 3.7 C 29 %
195 12-01-2020 08:24:17 3.7 C 29 %
196 12-01-2020 08:34:17 4 C 28 %
197 12-01-2020 08:44:17 4.2 C 27 %
198 12-01-2020 08:54:17 4.2 C 27 %
199 12-01-2020 09:04:17 4.2 C 27 %
200 12-01-2020 09:14:17 4.2 C 27 %
Sensor: Nr:Datum:Temp:Feuchte:
Aussen-T/F 201 12-01-2020 09:24:17 4.3 C 27 %
202 12-01-2020 09:34:17 4.5 C 26 %
203 12-01-2020 09:44:17 4.7 C 26 %
204 12-01-2020 09:54:17 4.7 C 26 %
205 12-01-2020 10:04:17 4.8 C 26 %
206 12-01-2020 10:14:17 4.8 C 26 %
207 12-01-2020 10:24:17 4.9 C 25 %
208 12-01-2020 10:34:18 4.9 C 25 %
209 12-01-2020 10:44:18 4.9 C 25 %
210 12-01-2020 10:54:17 5 C 25 %
211 12-01-2020 11:04:17 5.3 C 23 %
212 12-01-2020 11:14:17 5.3 C 23 %
213 12-01-2020 11:24:18 5.3 C 23 %
214 12-01-2020 11:34:17 5.3 C 23 %
215 12-01-2020 11:44:17 5.3 C 23 %
216 12-01-2020 11:54:17 5.5 C 23 %
217 12-01-2020 12:04:18 5.7 C 23 %
218 12-01-2020 12:14:18 5.8 C 23 %
219 12-01-2020 12:24:17 6.1 C 21 %
220 12-01-2020 12:34:17 6.4 C 21 %
221 12-01-2020 12:44:17 6.1 C 21 %
222 12-01-2020 12:54:17 6.1 C 21 %
223 12-01-2020 13:04:18 6.2 C 21 %
224 12-01-2020 13:14:18 6.3 C 21 %
225 12-01-2020 13:24:17 6.5 C 21 %
Sensor: Nr:Datum:Temp:Feuchte:
Aussen-T/F 226 12-01-2020 13:34:17 6.8 C 21 %
227 12-01-2020 13:44:17 6.7 C 23 %
228 12-01-2020 13:54:18 6.7 C 23 %
229 12-01-2020 14:04:17 6.9 C 21 %
230 12-01-2020 14:14:17 6.8 C 23 %
231 12-01-2020 14:24:17 6.9 C 23 %
232 12-01-2020 14:34:18 6.9 C 25 %
233 12-01-2020 14:44:18 6.8 C 25 %
234 12-01-2020 14:54:17 6.8 C 25 %
235 12-01-2020 15:04:17 6.7 C 25 %
236 12-01-2020 15:14:17 6.8 C 25 %
237 12-01-2020 15:24:18 6.8 C 25 %
238 12-01-2020 15:34:17 6.8 C 25 %
239 12-01-2020 15:44:17 6.7 C 25 %
240 12-01-2020 15:54:17 6.6 C 25 %
241 12-01-2020 16:04:18 6.7 C 25 %
242 12-01-2020 16:14:18 6.5 C 25 %
243 12-01-2020 16:24:18 6.3 C 26 %
244 12-01-2020 16:34:17 6.3 C 27 %
245 12-01-2020 16:44:17 6.1 C 27 %
246 12-01-2020 16:54:17 6.1 C 27 %
247 12-01-2020 17:04:18 6.1 C 27 %
248 12-01-2020 17:14:18 6 C 27 %
249 12-01-2020 17:24:17 6 C 28 %
250 12-01-2020 17:34:17 6 C 28 %
Sensor: Nr:Datum:Temp:Feuchte:
Aussen-T/F 251 12-01-2020 17:44:17 5.9 C 29 %
252 12-01-2020 17:54:18 5.7 C 30 %
253 12-01-2020 18:04:18 5.4 C 30 %
254 12-01-2020 18:14:18 5.5 C 30 %
255 12-01-2020 18:24:17 5.4 C 30 %
256 12-01-2020 18:34:17 5.6 C 30 %
257 12-01-2020 18:44:17 5.6 C 30 %
258 12-01-2020 18:54:18 5.7 C 30 %
259 12-01-2020 19:04:17 5 C 31 %
260 12-01-2020 19:14:17 4.7 C 34 %
261 12-01-2020 19:24:17 4.9 C 36 %
262 12-01-2020 19:34:18 5.6 C 33 %
263 12-01-2020 19:44:18 5.9 C 32 %
264 12-01-2020 19:54:17 6 C 31 %
265 12-01-2020 20:04:18 6 C 31 %
266 12-01-2020 20:14:18 5.9 C 31 %
267 12-01-2020 20:24:17 5.7 C 32 %
268 12-01-2020 20:34:17 5.6 C 32 %
269 12-01-2020 20:44:17 5.8 C 33 %
270 12-01-2020 20:54:17 6 C 32 %
271 12-01-2020 21:04:17 6.1 C 32 %
272 12-01-2020 21:14:17 6.2 C 32 %
273 12-01-2020 21:24:17 6.2 C 32 %
274 12-01-2020 21:34:18 6.1 C 32 %
275 12-01-2020 21:44:18 6.5 C 31 %
Sensor: Nr:Datum:Temp:Feuchte:
Aussen-T/F 276 12-01-2020 21:54:17 6.5 C 31 %
277 12-01-2020 22:04:18 6.4 C 31 %
278 12-01-2020 22:14:18 6.3 C 32 %
279 12-01-2020 22:24:17 6 C 32 %
280 12-01-2020 22:34:17 6.3 C 32 %
281 12-01-2020 22:44:17 6.2 C 33 %
282 12-01-2020 22:54:17 5.8 C 33 %
283 12-01-2020 23:04:17 5.6 C 36 %
284 12-01-2020 23:14:17 5.2 C 35 %
285 12-01-2020 23:24:17 5 C 39 %
286 12-01-2020 23:34:18 6 C 35 %
287 12-01-2020 23:44:18 5.7 C 33 %
288 12-01-2020 23:54:17 5.9 C 34 %
289 13-01-2020 00:04:18 6.3 C 32 %
290 13-01-2020 00:14:18 5.9 C 33 %
291 13-01-2020 00:24:17 6.4 C 32 %
292 13-01-2020 00:34:17 6.5 C 32 %
293 13-01-2020 00:44:17 6.7 C 31 %
294 13-01-2020 00:54:18 6.4 C 32 %
295 13-01-2020 01:04:17 6.1 C 36 %
296 13-01-2020 01:14:17 5.9 C 37 %
297 13-01-2020 01:24:17 5.7 C 40 %
298 13-01-2020 01:34:18 5.6 C 41 %
299 13-01-2020 01:44:18 5.6 C 42 %
300 13-01-2020 01:54:17 5.7 C 40 %
Sensor: Nr:Datum:Temp:Feuchte:
Aussen-T/F 301 13-01-2020 02:04:17 5.9 C 39 %
302 13-01-2020 02:14:17 5.9 C 38 %
303 13-01-2020 02:24:18 6 C 36 %
304 13-01-2020 02:34:17 5.7 C 37 %
305 13-01-2020 02:44:17 5.9 C 37 %
306 13-01-2020 02:54:17 5.6 C 39 %
307 13-01-2020 03:04:18 5.6 C 40 %
308 13-01-2020 03:14:18 5.7 C 39 %
309 13-01-2020 03:24:17 5.1 C 38 %
310 13-01-2020 03:34:17 4.7 C 41 %
311 13-01-2020 03:44:17 4 C 41 %
312 13-01-2020 03:54:17 4.1 C 42 %
313 13-01-2020 04:04:17 3.5 C 44 %
314 13-01-2020 04:14:17 3.5 C 44 %
315 13-01-2020 04:24:17 4 C 43 %
316 13-01-2020 04:34:18 4.1 C 43 %
317 13-01-2020 04:44:18 3.7 C 43 %
318 13-01-2020 04:54:17 4 C 43 %
319 13-01-2020 05:04:18 4.3 C 43 %
320 13-01-2020 05:14:18 4.3 C 42 %
321 13-01-2020 05:24:18 4.5 C 42 %
322 13-01-2020 05:34:17 4.6 C 42 %
323 13-01-2020 05:44:17 4.6 C 42 %
324 13-01-2020 05:54:17 4.9 C 42 %
325 13-01-2020 06:04:17 4.9 C 42 %
Sensor: Nr:Datum:Temp:Feuchte:
Aussen-T/F 326 13-01-2020 06:14:17 4.8 C 40 %
327 13-01-2020 06:24:17 4.6 C 40 %
328 13-01-2020 06:34:17 4.2 C 40 %
329 13-01-2020 06:44:17 4.7 C 41 %
330 13-01-2020 06:54:17 4.7 C 40 %
331 13-01-2020 07:04:17 4.4 C 37 %
332 13-01-2020 07:14:17 4.1 C 38 %
333 13-01-2020 07:24:18 4.2 C 39 %
334 13-01-2020 07:34:17 3.9 C 41 %
335 13-01-2020 07:44:17 3.9 C 42 %
336 13-01-2020 07:54:17 3.8 C 42 %
337 13-01-2020 08:04:18 3.9 C 42 %
338 13-01-2020 08:14:18 4.3 C 40 %
339 13-01-2020 08:24:17 4.2 C 40 %
340 13-01-2020 08:34:17 4.7 C 40 %
341 13-01-2020 08:44:17 4.8 C 38 %
342 13-01-2020 08:54:17 4.9 C 38 %
343 13-01-2020 09:04:17 5.2 C 36 %
344 13-01-2020 09:14:17 5.4 C 35 %
345 13-01-2020 09:24:17 5.6 C 34 %
346 13-01-2020 09:34:18 5.7 C 33 %
347 13-01-2020 09:44:18 5.8 C 33 %
348 13-01-2020 09:54:18 5.9 C 33 %
349 13-01-2020 10:04:17 5.9 C 34 %
350 13-01-2020 10:14:17 6.2 C 32 %
Sensor: Nr:Datum:Temp:Feuchte:
Aussen-T/F 351 13-01-2020 10:24:17 6.4 C 32 %
352 13-01-2020 10:34:18 6.7 C 31 %
353 13-01-2020 10:44:18 6.8 C 31 %
354 13-01-2020 10:54:17 6.8 C 31 %
355 13-01-2020 11:04:17 6.9 C 31 %
356 13-01-2020 11:14:17 7.1 C 30 %
357 13-01-2020 11:24:17 7.5 C 29 %
358 13-01-2020 11:34:17 7.8 C 29 %
359 13-01-2020 11:44:17 7.8 C 29 %
360 13-01-2020 11:54:17 7.9 C 29 %
361 13-01-2020 12:04:18 8 C 29 %
362 13-01-2020 12:14:18 8 C 28 %
363 13-01-2020 12:24:18 8.1 C 28 %
364 13-01-2020 12:34:17 8.1 C 28 %
365 13-01-2020 12:44:18 8.1 C 28 %
366 13-01-2020 12:54:17 7.8 C 28 %
367 13-01-2020 13:04:17 7.4 C 30 %
368 13-01-2020 13:14:17 7.3 C 30 %
369 13-01-2020 13:24:17 7.3 C 30 %
370 13-01-2020 13:34:17 7.5 C 30 %
371 13-01-2020 13:44:17 7.7 C 30 %
372 13-01-2020 13:54:17 6.9 C 33 %
373 13-01-2020 14:04:17 6.9 C 36 %
374 13-01-2020 14:14:17 7 C 36 %
375 13-01-2020 14:24:17 7.3 C 35 %
Sensor: Nr:Datum:Temp:Feuchte:
Aussen-T/F 376 13-01-2020 14:34:17 7.3 C 33 %
377 13-01-2020 14:44:17 7.3 C 31 %
378 13-01-2020 14:54:17 7 C 30 %
379 13-01-2020 15:04:18 7.2 C 31 %
380 13-01-2020 15:14:18 7.5 C 29 %
381 13-01-2020 15:24:17 7.5 C 28 %
382 13-01-2020 15:34:17 7.5 C 28 %
383 13-01-2020 15:44:17 7.4 C 28 %
384 13-01-2020 15:54:17 7.4 C 27 %
385 13-01-2020 16:04:17 7.2 C 29 %
386 13-01-2020 16:14:17 7.1 C 28 %
387 13-01-2020 16:24:17 7 C 29 %
388 13-01-2020 16:34:17 6.9 C 30 %
389 13-01-2020 16:44:17 6.6 C 30 %
390 13-01-2020 16:54:17 6.7 C 30 %
391 13-01-2020 17:04:18 6.6 C 31 %
392 13-01-2020 17:14:18 6.5 C 30 %
393 13-01-2020 17:24:17 6.2 C 31 %
394 13-01-2020 17:34:18 5.8 C 32 %
395 13-01-2020 17:44:18 5.4 C 33 %
396 13-01-2020 17:54:17 5.3 C 35 %
397 13-01-2020 18:04:17 5.3 C 36 %
398 13-01-2020 18:14:17 5.3 C 36 %
399 13-01-2020 18:24:18 5.6 C 35 %
400 13-01-2020 18:34:17 5.7 C 34 %
Sensor: Nr:Datum:Temp:Feuchte:
Aussen-T/F 401 13-01-2020 18:44:17 5.6 C 34 %
402 13-01-2020 18:54:17 5.3 C 35 %
403 13-01-2020 19:04:18 5.5 C 35 %
404 13-01-2020 19:14:18 5.8 C 34 %
405 13-01-2020 19:24:17 5.9 C 33 %
406 13-01-2020 19:34:17 6.2 C 31 %
407 13-01-2020 19:44:17 6.1 C 32 %
408 13-01-2020 19:54:17 5.6 C 34 %
409 13-01-2020 20:04:17 5.6 C 35 %
410 13-01-2020 20:14:17 5.5 C 35 %
411 13-01-2020 20:24:17 5.5 C 35 %
412 13-01-2020 20:34:18 5.6 C 35 %
413 13-01-2020 20:44:18 5.7 C 35 %
414 13-01-2020 20:54:17 5.7 C 35 %
415 13-01-2020 21:04:17 5.7 C 35 %
416 13-01-2020 21:14:17 5.7 C 35 %
417 13-01-2020 21:24:17 5.4 C 36 %
418 13-01-2020 21:34:17 5.6 C 37 %
419 13-01-2020 21:44:17 5.5 C 36 %
420 13-01-2020 21:54:17 5.4 C 37 %
421 13-01-2020 22:04:18 5.6 C 37 %
422 13-01-2020 22:14:18 5.7 C 37 %
423 13-01-2020 22:24:17 5.9 C 36 %
424 13-01-2020 22:34:17 6 C 35 %
425 13-01-2020 22:44:17 6.1 C 34 %
Sensor: Nr:Datum:Temp:Feuchte:
Aussen-T/F 426 13-01-2020 22:54:18 6.3 C 34 %
427 13-01-2020 23:04:17 6.2 C 35 %
428 13-01-2020 23:14:17 6 C 35 %
429 13-01-2020 23:24:17 6 C 35 %
430 13-01-2020 23:34:17 6.2 C 35 %
431 13-01-2020 23:44:17 6.1 C 37 %
432 13-01-2020 23:54:17 6.3 C 36 %
433 14-01-2020 00:04:18 6.4 C 36 %
434 14-01-2020 00:14:18 6.5 C 35 %
435 14-01-2020 00:24:18 6.7 C 35 %
436 14-01-2020 00:34:17 6.5 C 35 %
437 14-01-2020 00:44:17 6.6 C 35 %
438 14-01-2020 00:54:17 6.5 C 35 %
439 14-01-2020 01:04:18 6.3 C 36 %
440 14-01-2020 01:14:18 6 C 36 %
441 14-01-2020 01:24:17 5.8 C 38 %
442 14-01-2020 01:34:17 5.6 C 40 %
443 14-01-2020 01:44:17 6.1 C 37 %
444 14-01-2020 01:54:17 6 C 36 %
445 14-01-2020 02:04:17 6.2 C 35 %
446 14-01-2020 02:14:17 6.5 C 33 %
447 14-01-2020 02:24:17 6.5 C 32 %
448 14-01-2020 02:34:18 6.4 C 32 %
449 14-01-2020 02:44:18 6.3 C 33 %
450 14-01-2020 02:54:17 6.4 C 32 %
Sensor: Nr:Datum:Temp:Feuchte:
Aussen-T/F 451 14-01-2020 03:04:17 6.5 C 32 %
452 14-01-2020 03:14:17 6.7 C 32 %
453 14-01-2020 03:24:17 6.6 C 31 %
454 14-01-2020 03:34:17 6.5 C 31 %
455 14-01-2020 03:44:17 6.7 C 30 %
456 14-01-2020 03:54:17 7 C 30 %
457 14-01-2020 04:04:18 7.1 C 30 %
458 14-01-2020 04:14:18 6.8 C 30 %
459 14-01-2020 04:24:17 6.7 C 30 %
460 14-01-2020 04:34:17 6.5 C 31 %
461 14-01-2020 04:44:17 6.6 C 32 %
462 14-01-2020 04:54:17 6.6 C 31 %
463 14-01-2020 05:04:17 7.2 C 29 %
464 14-01-2020 05:14:17 7.3 C 28 %
465 14-01-2020 05:24:17 7.6 C 27 %
466 14-01-2020 05:34:17 7.4 C 28 %
467 14-01-2020 05:44:17 7.2 C 27 %
468 14-01-2020 05:54:18 7.2 C 27 %
469 14-01-2020 06:04:17 7.3 C 27 %
470 14-01-2020 06:14:17 7.3 C 27 %
471 14-01-2020 06:24:17 6.9 C 29 %
472 14-01-2020 06:34:18 7 C 28 %
473 14-01-2020 06:44:18 7.2 C 27 %
474 14-01-2020 06:54:17 7.2 C 27 %
475 14-01-2020 07:04:17 7.3 C 26 %
Sensor: Nr:Datum:Temp:Feuchte:
Aussen-T/F 476 14-01-2020 07:14:17 6.8 C 28 %
477 14-01-2020 07:24:17 7 C 27 %
478 14-01-2020 07:34:18 6.9 C 28 %
479 14-01-2020 07:44:18 7.1 C 26 %
480 14-01-2020 07:54:17 7.3 C 26 %
481 14-01-2020 08:04:17 7.6 C 25 %
482 14-01-2020 08:14:17 8 C 25 %
483 14-01-2020 08:24:17 7.9 C 25 %
484 14-01-2020 08:34:17 7.9 C 25 %
485 14-01-2020 08:44:17 7.9 C 25 %
486 14-01-2020 08:54:18 8.1 C 25 %
487 14-01-2020 09:04:18 8.5 C 23 %
488 14-01-2020 09:14:18 8.3 C 25 %
489 14-01-2020 09:24:17 8.6 C 25 %
490 14-01-2020 09:34:17 8.4 C 25 %
491 14-01-2020 09:44:17 8.7 C 25 %
492 14-01-2020 09:54:17 8.9 C 25 %
493 14-01-2020 10:04:18 9.4 C 21 %
494 14-01-2020 10:14:18 9.5 C 20 %
495 14-01-2020 10:24:18 9.2 C 20 %
496 14-01-2020 10:34:18 9.1 C 20 %
497 14-01-2020 10:44:18 9.1 C 21 %
498 14-01-2020 10:54:17 9.2 C 20 %
499 14-01-2020 11:04:17 9.4 C 20 %
500 14-01-2020 11:14:17 9.5 C 20 %
Sensor: Nr:Datum:Temp:Feuchte:
Aussen-T/F 501 14-01-2020 11:24:17 9.8 C 20 %
502 14-01-2020 11:34:18 9.9 C 20 %
503 14-01-2020 11:44:18 9.9 C 20 %
504 14-01-2020 11:54:17 9.7 C 20 %
505 14-01-2020 12:04:17 9.8 C 20 %
506 14-01-2020 12:14:17 9.8 C 20 %
507 14-01-2020 12:24:17 10 C 20 %
508 14-01-2020 12:34:17 10.1 C 20 %
509 14-01-2020 12:44:17 10.1 C 20 %
510 14-01-2020 12:54:18 10.2 C 20 %
511 14-01-2020 13:04:18 10.2 C 20 %
512 14-01-2020 13:14:18 10.1 C 20 %
513 14-01-2020 13:24:18 10.4 C 20 %
514 14-01-2020 13:34:17 10.5 C 20 %
515 14-01-2020 13:44:17 10.8 C 20 %
516 14-01-2020 13:54:17 11.5 C 20 %
517 14-01-2020 14:04:17 12 C 20 %
518 14-01-2020 14:14:17 12.1 C 20 %
519 14-01-2020 14:24:17 12.1 C 20 %
520 14-01-2020 14:34:17 12 C 20 %
521 14-01-2020 14:44:17 12 C 20 %
522 14-01-2020 14:54:17 12 C 20 %
523 14-01-2020 15:04:17 12.2 C 20 %
524 14-01-2020 15:14:17 12.2 C 20 %
525 14-01-2020 15:24:17 12.1 C 20 %
Sensor: Nr:Datum:Temp:Feuchte:
Aussen-T/F 526 14-01-2020 15:34:18 11.9 C 20 %
527 14-01-2020 15:44:18 11.5 C 20 %
528 14-01-2020 15:54:17 11.1 C 20 %
529 14-01-2020 16:04:18 10.8 C 20 %
530 14-01-2020 16:14:18 11.1 C 20 %
531 14-01-2020 16:24:17 10.9 C 20 %
532 14-01-2020 16:34:18 10.6 C 20 %
533 14-01-2020 16:44:18 10.7 C 20 %
534 14-01-2020 16:54:17 10.8 C 20 %
535 14-01-2020 17:04:17 10.7 C 20 %
536 14-01-2020 17:14:18 10.7 C 20 %
537 14-01-2020 17:24:17 10.6 C 20 %
538 14-01-2020 17:34:17 10.6 C 20 %
539 14-01-2020 17:44:17 11 C 20 %
540 14-01-2020 17:54:18 10.7 C 20 %
541 14-01-2020 18:04:17 10.7 C 20 %
542 14-01-2020 18:14:17 10.9 C 20 %
543 14-01-2020 18:24:17 10.4 C 20 %
544 14-01-2020 18:34:18 10.5 C 20 %
545 14-01-2020 18:44:18 10.8 C 20 %
546 14-01-2020 18:54:17 11.1 C 20 %
547 14-01-2020 19:04:17 11.2 C 20 %
548 14-01-2020 19:14:17 11 C 20 %
549 14-01-2020 19:24:17 10.9 C 20 %
550 14-01-2020 19:34:17 10.9 C 20 %
Sensor: Nr:Datum:Temp:Feuchte:
Aussen-T/F 551 14-01-2020 19:44:17 11 C 20 %
552 14-01-2020 19:54:17 10.7 C 20 %
553 14-01-2020 20:04:18 10.8 C 20 %
554 14-01-2020 20:14:18 10.8 C 20 %
555 14-01-2020 20:24:18 11 C 20 %
556 14-01-2020 20:34:17 11.5 C 20 %
557 14-01-2020 20:44:17 11.5 C 20 %
558 14-01-2020 20:54:17 11.5 C 20 %
559 14-01-2020 21:04:18 11.7 C 20 %
560 14-01-2020 21:14:18 11.4 C 20 %
561 14-01-2020 21:24:17 11.6 C 20 %
562 14-01-2020 21:34:18 12.2 C 20 %
563 14-01-2020 21:44:18 11.7 C 20 %
564 14-01-2020 21:54:18 11.5 C 20 %
565 14-01-2020 22:04:17 11.7 C 20 %
566 14-01-2020 22:14:17 11.7 C 20 %
567 14-01-2020 22:24:17 11.4 C 20 %
568 14-01-2020 22:34:18 11.7 C 20 %
569 14-01-2020 22:44:18 11.1 C 20 %
570 14-01-2020 22:54:17 11.3 C 20 %
571 14-01-2020 23:04:18 11.7 C 20 %
572 14-01-2020 23:14:18 11.6 C 20 %
573 14-01-2020 23:24:17 11.8 C 20 %
574 14-01-2020 23:34:18 11.7 C 20 %
575 14-01-2020 23:44:18 11.3 C 20 %
Sensor: Nr:Datum:Temp:Feuchte:
Aussen-T/F 576 14-01-2020 23:54:17 11.2 C 20 %
577 15-01-2020 00:04:17 11.3 C 20 %
578 15-01-2020 00:14:17 11.1 C 20 %
579 15-01-2020 00:24:17 11.8 C 20 %
580 15-01-2020 00:34:18 11.5 C 20 %
581 15-01-2020 00:44:18 11.2 C 20 %
582 15-01-2020 00:54:17 11.3 C 20 %
583 15-01-2020 01:04:17 11.3 C 20 %
584 15-01-2020 01:14:17 11.1 C 20 %
585 15-01-2020 01:24:17 10.8 C 20 %
586 15-01-2020 01:34:18 10.9 C 20 %
587 15-01-2020 01:44:18 11 C 20 %
588 15-01-2020 01:54:17 10.8 C 20 %
589 15-01-2020 02:04:18 10.3 C 20 %
590 15-01-2020 02:14:18 10.2 C 20 %
591 15-01-2020 02:24:18 10.2 C 20 %
592 15-01-2020 02:34:17 10.2 C 20 %
593 15-01-2020 02:44:17 10 C 20 %
594 15-01-2020 02:54:17 9.8 C 20 %
595 15-01-2020 03:04:18 9.6 C 23 %
596 15-01-2020 03:14:18 9.9 C 23 %
597 15-01-2020 03:24:17 10 C 21 %
598 15-01-2020 03:34:17 9.4 C 25 %
599 15-01-2020 03:44:17 9.3 C 26 %
600 15-01-2020 03:54:17 9.2 C 27 %
Sensor: Nr:Datum:Temp:Feuchte:
Aussen-T/F 601 15-01-2020 04:04:18 9.1 C 27 %
602 15-01-2020 04:14:18 9.1 C 27 %
603 15-01-2020 04:24:17 9 C 27 %
604 15-01-2020 04:34:17 8.7 C 29 %
605 15-01-2020 04:44:17 8.5 C 28 %
606 15-01-2020 04:54:17 8.2 C 28 %
607 15-01-2020 05:04:17 8.3 C 28 %
608 15-01-2020 05:14:17 8.6 C 27 %
609 15-01-2020 05:24:17 9.2 C 25 %
610 15-01-2020 05:34:17 9.7 C 25 %
611 15-01-2020 05:44:17 9.6 C 25 %
612 15-01-2020 05:54:17 9.8 C 23 %
613 15-01-2020 06:04:17 9.8 C 21 %
614 15-01-2020 06:14:17 9.7 C 21 %
615 15-01-2020 06:24:17 9.8 C 20 %
616 15-01-2020 06:34:18 9.1 C 20 %
617 15-01-2020 06:44:18 8.7 C 21 %
618 15-01-2020 06:54:17 8 C 25 %
619 15-01-2020 07:04:17 7.5 C 25 %
620 15-01-2020 07:14:17 7.3 C 26 %
621 15-01-2020 07:24:17 7 C 27 %
622 15-01-2020 07:34:18 7 C 27 %
623 15-01-2020 07:44:18 7 C 27 %
624 15-01-2020 07:54:18 6.2 C 29 %
625 15-01-2020 08:04:17 6 C 31 %
Sensor: Nr:Datum:Temp:Feuchte:
Aussen-T/F 626 15-01-2020 08:14:18 5.8 C 31 %
627 15-01-2020 08:24:17 5.8 C 31 %
628 15-01-2020 08:34:17 5.7 C 32 %
629 15-01-2020 08:44:17 6.3 C 30 %
630 15-01-2020 08:54:17 6.7 C 30 %
631 15-01-2020 09:04:18 6.6 C 30 %
632 15-01-2020 09:14:18 6.6 C 29 %
633 15-01-2020 09:24:17 6.9 C 29 %
634 15-01-2020 09:34:18 6.6 C 29 %
635 15-01-2020 09:44:18 6.8 C 30 %
636 15-01-2020 09:54:18 7.1 C 28 %
637 15-01-2020 10:04:18 7.5 C 27 %
638 15-01-2020 10:14:18 7.6 C 27 %
639 15-01-2020 10:24:17 7.7 C 27 %
640 15-01-2020 10:34:18 7.3 C 27 %
641 15-01-2020 10:44:18 7.4 C 27 %
642 15-01-2020 10:54:17 8.3 C 27 %
643 15-01-2020 11:04:17 9.1 C 25 %
644 15-01-2020 11:14:17 9.7 C 20 %
645 15-01-2020 11:24:17 10 C 20 %
646 15-01-2020 11:34:17 10.9 C 20 %
647 15-01-2020 11:44:17 10.9 C 20 %
648 15-01-2020 11:54:17 11 C 20 %
649 15-01-2020 12:04:18 11.2 C 20 %
650 15-01-2020 12:14:18 11.6 C 20 %
Sensor: Nr:Datum:Temp:Feuchte:
Aussen-T/F 651 15-01-2020 12:24:17 11.6 C 20 %
652 15-01-2020 12:34:18 11.5 C 20 %
653 15-01-2020 12:44:18 11.1 C 20 %
654 15-01-2020 12:54:18 11.6 C 20 %
655 15-01-2020 13:04:18 12 C 20 %
656 15-01-2020 13:14:18 12.2 C 20 %
657 15-01-2020 13:24:18 12.5 C 20 %
658 15-01-2020 13:34:17 12.5 C 20 %
659 15-01-2020 13:44:17 12.2 C 20 %
660 15-01-2020 13:54:17 11.8 C 20 %
661 15-01-2020 14:04:17 11.4 C 20 %
662 15-01-2020 14:14:17 11.2 C 20 %
663 15-01-2020 14:24:17 11.6 C 20 %
664 15-01-2020 14:34:18 11.7 C 20 %
665 15-01-2020 14:44:18 12 C 20 %
666 15-01-2020 14:54:18 12.7 C 20 %
667 15-01-2020 15:04:17 13.1 C 20 %
668 15-01-2020 15:14:17 13.1 C 20 %
669 15-01-2020 15:24:17 13.1 C 20 %
670 15-01-2020 15:34:17 13.2 C 20 %
671 15-01-2020 15:44:17 12.9 C 20 %
672 15-01-2020 15:54:17 13.2 C 20 %
673 15-01-2020 16:04:17 12.9 C 20 %
674 15-01-2020 16:14:17 12.7 C 20 %
675 15-01-2020 16:24:17 12.5 C 20 %
Sensor: Nr:Datum:Temp:Feuchte:
Aussen-T/F 676 15-01-2020 16:34:18 12.6 C 20 %
677 15-01-2020 16:44:18 12.1 C 20 %
678 15-01-2020 16:54:17 12 C 20 %
679 15-01-2020 17:04:18 11.8 C 20 %
680 15-01-2020 17:14:18 11.7 C 20 %
681 15-01-2020 17:24:17 11.9 C 20 %
682 15-01-2020 17:34:18 11.9 C 20 %
683 15-01-2020 17:44:18 11.4 C 20 %
684 15-01-2020 17:54:18 11.2 C 20 %
685 15-01-2020 18:04:17 11.2 C 20 %
686 15-01-2020 18:14:17 11.2 C 20 %
687 15-01-2020 18:24:17 11.2 C 20 %
688 15-01-2020 18:34:17 11.8 C 20 %
689 15-01-2020 18:44:17 11.9 C 20 %
690 15-01-2020 18:54:17 12.2 C 20 %
691 15-01-2020 19:04:18 12 C 20 %
692 15-01-2020 19:14:18 12.2 C 20 %
693 15-01-2020 19:24:18 12 C 20 %
694 15-01-2020 19:34:17 12.5 C 20 %
695 15-01-2020 19:44:17 12.9 C 20 %
696 15-01-2020 19:54:18 12.9 C 20 %
697 15-01-2020 20:04:17 13 C 20 %
698 15-01-2020 20:14:18 12.8 C 20 %
699 15-01-2020 20:24:17 12.7 C 20 %
700 15-01-2020 20:34:17 12.5 C 20 %
Sensor: Nr:Datum:Temp:Feuchte:
Aussen-T/F 701 15-01-2020 20:44:17 12.7 C 20 %
702 15-01-2020 20:54:17 12.6 C 20 %
703 15-01-2020 21:04:18 12.7 C 20 %
704 15-01-2020 21:14:18 12.8 C 20 %
705 15-01-2020 21:24:18 12.5 C 20 %
706 15-01-2020 21:34:17 12.4 C 20 %
707 15-01-2020 21:44:17 10.8 C 25 %
708 15-01-2020 21:54:17 10.2 C 28 %
709 15-01-2020 22:04:18 10.1 C 30 %
710 15-01-2020 22:14:18 9.8 C 35 %
711 15-01-2020 22:24:18 9.4 C 38 %
712 15-01-2020 22:34:17 9.3 C 40 %
713 15-01-2020 22:44:17 9.3 C 40 %
714 15-01-2020 22:54:17 9.1 C 40 %
715 15-01-2020 23:04:18 9.1 C 40 %
716 15-01-2020 23:14:18 9.1 C 38 %
717 15-01-2020 23:24:17 9.1 C 36 %
718 15-01-2020 23:34:17 8.9 C 37 %
719 15-01-2020 23:44:17 8.6 C 36 %
720 15-01-2020 23:54:17 8.4 C 37 %
721 16-01-2020 00:04:17 8.7 C 34 %
722 16-01-2020 00:14:17 8.4 C 36 %
723 16-01-2020 00:24:17 9.2 C 33 %
724 16-01-2020 00:34:17 8.6 C 36 %
725 16-01-2020 00:44:17 8.7 C 37 %
Sensor: Nr:Datum:Temp:Feuchte:
Aussen-T/F 726 16-01-2020 00:54:18 8.8 C 37 %
727 16-01-2020 01:04:17 8.9 C 37 %
728 16-01-2020 01:14:17 9 C 36 %
729 16-01-2020 01:24:17 9.1 C 35 %
730 16-01-2020 01:34:18 9 C 36 %
731 16-01-2020 01:44:18 8.9 C 37 %
732 16-01-2020 01:54:17 8.6 C 38 %
733 16-01-2020 02:04:17 8.6 C 40 %
734 16-01-2020 02:14:17 8.6 C 39 %
735 16-01-2020 02:24:17 8.8 C 37 %
736 16-01-2020 02:34:17 8.7 C 38 %
737 16-01-2020 02:44:18 8.6 C 42 %
738 16-01-2020 02:54:17 8.7 C 42 %
739 16-01-2020 03:04:18 8.6 C 42 %
740 16-01-2020 03:14:18 8.6 C 42 %
741 16-01-2020 03:24:18 8.7 C 43 %
742 16-01-2020 03:34:17 8.6 C 42 %
743 16-01-2020 03:44:17 8.6 C 42 %
744 16-01-2020 03:54:17 8.7 C 42 %
745 16-01-2020 04:04:18 8.7 C 42 %
746 16-01-2020 04:14:18 8.6 C 42 %
747 16-01-2020 04:24:17 8.6 C 42 %
748 16-01-2020 04:34:18 8.4 C 42 %
749 16-01-2020 04:44:18 8.2 C 42 %
750 16-01-2020 04:54:17 8.2 C 42 %
Sensor: Nr:Datum:Temp:Feuchte:
Aussen-T/F 751 16-01-2020 05:04:17 8.3 C 42 %
752 16-01-2020 05:14:17 8.1 C 42 %
753 16-01-2020 05:24:17 8.1 C 42 %
754 16-01-2020 05:34:17 7.7 C 42 %
755 16-01-2020 05:44:17 7.1 C 42 %
756 16-01-2020 05:54:17 7.9 C 42 %
757 16-01-2020 06:04:17 8 C 42 %
758 16-01-2020 06:14:17 7.6 C 42 %
759 16-01-2020 06:24:17 7.2 C 41 %
760 16-01-2020 06:34:18 7.1 C 42 %
761 16-01-2020 06:44:18 7.3 C 42 %
762 16-01-2020 06:54:17 6.8 C 42 %
763 16-01-2020 07:04:17 6.2 C 41 %
764 16-01-2020 07:14:17 5.6 C 42 %
765 16-01-2020 07:24:17 6 C 42 %
766 16-01-2020 07:34:18 6.7 C 43 %
767 16-01-2020 07:44:18 6.9 C 42 %
768 16-01-2020 07:54:17 6.9 C 42 %
769 16-01-2020 08:04:17 6.7 C 42 %
770 16-01-2020 08:14:17 6.4 C 42 %
771 16-01-2020 08:24:17 5.9 C 42 %
772 16-01-2020 08:34:17 5.9 C 42 %
773 16-01-2020 08:44:17 5.6 C 42 %
774 16-01-2020 08:54:18 5.4 C 42 %
775 16-01-2020 09:04:17 5.2 C 42 %
Sensor: Nr:Datum:Temp:Feuchte:
Aussen-T/F 776 16-01-2020 09:14:17 5.2 C 42 %
777 16-01-2020 09:24:17 5.6 C 42 %
778 16-01-2020 09:34:17 5.4 C 42 %
779 16-01-2020 09:44:17 5.7 C 42 %
780 16-01-2020 09:54:17 6.3 C 42 %
781 16-01-2020 10:04:17 6.5 C 42 %
782 16-01-2020 10:14:17 6.5 C 42 %
783 16-01-2020 10:24:17 6.7 C 42 %
784 16-01-2020 10:34:17 6.9 C 42 %
785 16-01-2020 10:44:17 6.8 C 42 %
786 16-01-2020 10:54:18 7.1 C 41 %
787 16-01-2020 11:04:17 6.9 C 41 %
788 16-01-2020 11:14:17 6.7 C 41 %
789 16-01-2020 11:24:17 6.8 C 41 %
790 16-01-2020 11:34:17 6.9 C 41 %
791 16-01-2020 11:44:17 6.8 C 41 %
792 16-01-2020 11:54:17 6.8 C 41 %
793 16-01-2020 12:04:18 6.7 C 41 %
794 16-01-2020 12:14:18 6.5 C 41 %
795 16-01-2020 12:24:17 6.3 C 41 %
796 16-01-2020 12:34:17 6.4 C 41 %
797 16-01-2020 12:44:18 6.7 C 41 %
798 16-01-2020 12:54:17 7.5 C 41 %
799 16-01-2020 13:04:18 7.5 C 41 %
800 16-01-2020 13:14:18 7.7 C 41 %
Sensor: Nr:Datum:Temp:Feuchte:
Aussen-T/F 801 16-01-2020 13:24:17 7.6 C 40 %
802 16-01-2020 13:34:17 7.8 C 40 %
803 16-01-2020 13:44:17 7.8 C 40 %
804 16-01-2020 13:54:18 7.9 C 40 %
805 16-01-2020 14:04:17 8.1 C 38 %
806 16-01-2020 14:14:17 8.3 C 37 %
807 16-01-2020 14:24:17 9 C 36 %
808 16-01-2020 14:34:17 9.1 C 36 %
809 16-01-2020 14:44:17 8.9 C 35 %
810 16-01-2020 14:54:17 8.7 C 35 %
811 16-01-2020 15:04:17 8.9 C 35 %
812 16-01-2020 15:14:17 8.6 C 35 %
813 16-01-2020 15:24:17 8.5 C 35 %
814 16-01-2020 15:34:18 8.4 C 35 %
815 16-01-2020 15:44:18 8.4 C 35 %
816 16-01-2020 15:54:17 8 C 35 %
817 16-01-2020 16:04:17 7.6 C 37 %
818 16-01-2020 16:14:17 7.5 C 37 %
819 16-01-2020 16:24:17 7.5 C 37 %
820 16-01-2020 16:34:17 7.1 C 37 %
821 16-01-2020 16:44:17 7.5 C 39 %
822 16-01-2020 16:54:18 7.1 C 38 %
823 16-01-2020 17:04:17 6.8 C 40 %
824 16-01-2020 17:14:17 7 C 40 %
825 16-01-2020 17:24:17 6.9 C 40 %
Sensor: Nr:Datum:Temp:Feuchte:
Aussen-T/F 826 16-01-2020 17:34:18 6.9 C 40 %
827 16-01-2020 17:44:18 7 C 40 %
828 16-01-2020 17:54:17 6.5 C 40 %
829 16-01-2020 18:04:17 6.3 C 40 %
830 16-01-2020 18:14:17 6.5 C 41 %
831 16-01-2020 18:24:17 6.5 C 41 %
832 16-01-2020 18:34:17 6.5 C 41 %
833 16-01-2020 18:44:17 5.9 C 41 %
834 16-01-2020 18:54:18 5.9 C 42 %
835 16-01-2020 19:04:17 6.1 C 42 %
836 16-01-2020 19:14:17 6.2 C 43 %
837 16-01-2020 19:24:17 5.4 C 42 %
838 16-01-2020 19:34:17 5.3 C 43 %
839 16-01-2020 19:44:17 5.3 C 43 %
840 16-01-2020 19:54:17 5.2 C 43 %
841 16-01-2020 20:04:18 5.3 C 43 %
842 16-01-2020 20:14:18 5.4 C 43 %
843 16-01-2020 20:24:18 5.7 C 43 %
844 16-01-2020 20:34:17 5.9 C 42 %
845 16-01-2020 20:44:17 5.7 C 40 %
846 16-01-2020 20:54:17 5.4 C 41 %
847 16-01-2020 21:04:18 5.9 C 42 %
848 16-01-2020 21:14:18 5.3 C 41 %
849 16-01-2020 21:24:18 5.6 C 42 %
850 16-01-2020 21:34:18 5.1 C 41 %
Sensor: Nr:Datum:Temp:Feuchte:
Aussen-T/F 851 16-01-2020 21:44:18 5 C 42 %
852 16-01-2020 21:54:17 4.7 C 42 %
853 16-01-2020 22:04:17 5.2 C 42 %
854 16-01-2020 22:14:17 5 C 42 %
855 16-01-2020 22:24:18 5 C 42 %
856 16-01-2020 22:34:18 5.1 C 42 %
857 16-01-2020 22:44:18 5.5 C 42 %
858 16-01-2020 22:54:17 5.1 C 40 %
859 16-01-2020 23:04:17 5 C 41 %
860 16-01-2020 23:14:17 5.6 C 41 %
861 16-01-2020 23:24:17 6.8 C 36 %
862 16-01-2020 23:34:17 7 C 34 %
863 16-01-2020 23:44:17 6.4 C 35 %
864 16-01-2020 23:54:17 5.8 C 36 %
865 17-01-2020 00:04:17 5.6 C 37 %
866 17-01-2020 00:14:17 5.3 C 39 %
867 17-01-2020 00:24:17 5.7 C 40 %
868 17-01-2020 00:34:18 5.2 C 40 %
869 17-01-2020 00:44:18 5 C 40 %
870 17-01-2020 00:54:17 5.1 C 41 %
871 17-01-2020 01:04:17 5.2 C 41 %
872 17-01-2020 01:14:17 5 C 41 %
873 17-01-2020 01:24:17 4.9 C 42 %
874 17-01-2020 01:34:18 4.8 C 42 %
875 17-01-2020 01:44:18 4.6 C 41 %
Sensor: Nr:Datum:Temp:Feuchte:
Aussen-T/F 876 17-01-2020 01:54:17 4.6 C 41 %
877 17-01-2020 02:04:17 5.5 C 41 %
878 17-01-2020 02:14:17 4.2 C 39 %
879 17-01-2020 02:24:17 4 C 40 %
880 17-01-2020 02:34:18 4 C 43 %
881 17-01-2020 02:44:18 3.7 C 44 %
882 17-01-2020 02:54:17 3.9 C 45 %
883 17-01-2020 03:04:17 3.8 C 44 %
884 17-01-2020 03:14:17 3.8 C 44 %
885 17-01-2020 03:24:17 3.7 C 45 %
886 17-01-2020 03:34:18 3.8 C 45 %
887 17-01-2020 03:44:18 3.4 C 44 %
888 17-01-2020 03:54:17 3.6 C 44 %
889 17-01-2020 04:04:18 3.4 C 44 %
890 17-01-2020 04:14:18 3.4 C 44 %
891 17-01-2020 04:24:18 3.5 C 44 %
892 17-01-2020 04:34:17 3.5 C 44 %
893 17-01-2020 04:44:17 3.2 C 44 %
894 17-01-2020 04:54:17 3 C 43 %
895 17-01-2020 05:04:18 2.9 C 45 %
896 17-01-2020 05:14:18 2.8 C 45 %
897 17-01-2020 05:24:17 2.7 C 45 %
898 17-01-2020 05:34:17 2.5 C 45 %
899 17-01-2020 05:44:17 2.3 C 45 %
900 17-01-2020 05:54:17 2.4 C 45 %
Sensor: Nr:Datum:Temp:Feuchte:
Aussen-T/F 901 17-01-2020 06:04:17 2.1 C 45 %
902 17-01-2020 06:14:17 2 C 45 %
903 17-01-2020 06:24:17 1.8 C 45 %
904 17-01-2020 06:34:17 1.8 C 45 %
905 17-01-2020 06:44:17 1.8 C 46 %
906 17-01-2020 06:54:17 1.7 C 45 %
907 17-01-2020 07:04:18 1.8 C 45 %
908 17-01-2020 07:14:18 1.5 C 45 %
909 17-01-2020 07:24:17 1.3 C 45 %
910 17-01-2020 07:34:17 1.2 C 45 %
911 17-01-2020 07:44:17 1.4 C 45 %
912 17-01-2020 07:54:17 1.6 C 46 %
913 17-01-2020 08:04:18 1.9 C 46 %
914 17-01-2020 08:14:18 2.2 C 45 %
915 17-01-2020 08:24:17 2 C 45 %
916 17-01-2020 08:34:17 2.2 C 45 %
917 17-01-2020 08:44:17 2.3 C 45 %
918 17-01-2020 08:54:18 2.3 C 45 %
919 17-01-2020 09:04:17 2.4 C 45 %
920 17-01-2020 09:14:17 2.2 C 44 %
921 17-01-2020 09:24:17 2 C 44 %
922 17-01-2020 09:34:17 2.1 C 44 %
923 17-01-2020 09:44:17 2.9 C 45 %
924 17-01-2020 09:54:17 3 C 44 %
925 17-01-2020 10:04:17 3.1 C 44 %
Sensor: Nr:Datum:Temp:Feuchte:
Aussen-T/F 926 17-01-2020 10:14:17 3.4 C 44 %
927 17-01-2020 10:24:17 3.5 C 44 %
928 17-01-2020 10:34:18 3.7 C 44 %
929 17-01-2020 10:44:18 4 C 43 %
930 17-01-2020 10:54:17 4.1 C 42 %
931 17-01-2020 11:04:17 4.4 C 42 %
932 17-01-2020 11:14:17 4.4 C 41 %
933 17-01-2020 11:24:17 4.6 C 42 %
934 17-01-2020 11:34:18 5.8 C 42 %
935 17-01-2020 11:44:18 6 C 40 %
936 17-01-2020 11:54:17 6.3 C 37 %
937 17-01-2020 12:04:17 6.7 C 36 %
938 17-01-2020 12:14:17 6.8 C 36 %
939 17-01-2020 12:24:17 7 C 35 %
940 17-01-2020 12:34:17 7.2 C 36 %
941 17-01-2020 12:44:17 7.3 C 35 %
942 17-01-2020 12:54:17 7.3 C 35 %
943 17-01-2020 13:04:18 7.3 C 35 %
944 17-01-2020 13:14:18 7.7 C 34 %
945 17-01-2020 13:24:18 8.6 C 33 %
946 17-01-2020 13:34:18 8.9 C 32 %
947 17-01-2020 13:44:18 9.3 C 31 %
948 17-01-2020 13:54:17 9 C 31 %
949 17-01-2020 14:04:17 9.2 C 31 %
950 17-01-2020 14:14:17 9.3 C 31 %
Sensor: Nr:Datum:Temp:Feuchte:
Aussen-T/F 951 17-01-2020 14:24:17 9.3 C 31 %
952 17-01-2020 14:34:17 9.1 C 31 %
953 17-01-2020 14:44:17 8.8 C 33 %
954 17-01-2020 14:54:17 8.6 C 35 %
955 17-01-2020 15:04:17 8.5 C 35 %
956 17-01-2020 15:14:17 8.3 C 36 %
957 17-01-2020 15:24:17 8.3 C 36 %
958 17-01-2020 15:34:18 8.2 C 36 %
959 17-01-2020 15:44:18 8.1 C 38 %
960 17-01-2020 15:54:17 8.1 C 37 %
961 17-01-2020 16:04:18 8 C 37 %
962 17-01-2020 16:14:18 8 C 37 %
963 17-01-2020 16:24:17 8.1 C 36 %
964 17-01-2020 16:34:17 8.1 C 37 %
965 17-01-2020 16:44:17 7.9 C 37 %
966 17-01-2020 16:54:17 7.8 C 38 %
967 17-01-2020 17:04:17 7.9 C 38 %
968 17-01-2020 17:14:17 8.5 C 35 %
969 17-01-2020 17:24:17 8.5 C 35 %
970 17-01-2020 17:34:17 8.4 C 34 %
971 17-01-2020 17:44:17 8.2 C 35 %
972 17-01-2020 17:54:17 8.5 C 34 %
973 17-01-2020 18:04:17 8.7 C 32 %
974 17-01-2020 18:14:18 8.5 C 33 %
975 17-01-2020 18:24:18 8.4 C 33 %
Sensor: Nr:Datum:Temp:Feuchte:
Aussen-T/F 976 17-01-2020 18:34:18 8.3 C 33 %
977 17-01-2020 18:44:18 8.3 C 34 %
978 17-01-2020 18:54:18 7.8 C 35 %
979 17-01-2020 19:04:17 7.1 C 36 %
980 17-01-2020 19:14:17 7.6 C 35 %
981 17-01-2020 19:24:17 6.3 C 37 %
982 17-01-2020 19:34:17 5.9 C 40 %
983 17-01-2020 19:44:17 5.9 C 41 %
984 17-01-2020 19:54:17 5.9 C 42 %
985 17-01-2020 20:04:17 6 C 42 %
986 17-01-2020 20:14:17 6.3 C 42 %
987 17-01-2020 20:24:17 6.6 C 40 %
988 17-01-2020 20:34:17 7.9 C 32 %
989 17-01-2020 20:44:17 7.7 C 31 %
990 17-01-2020 20:54:18 7.9 C 31 %
991 17-01-2020 21:04:17 7.8 C 30 %
992 17-01-2020 21:14:17 7.4 C 31 %
993 17-01-2020 21:24:17 6.9 C 31 %
994 17-01-2020 21:34:17 6.7 C 31 %
995 17-01-2020 21:44:17 6.8 C 31 %
996 17-01-2020 21:54:18 6.3 C 31 %
997 17-01-2020 22:04:17 5.8 C 31 %
998 17-01-2020 22:14:17 5 C 32 %
999 17-01-2020 22:24:17 4.4 C 35 %
1000 17-01-2020 22:34:18 4.2 C 36 %
Sensor: Nr:Datum:Temp:Feuchte:
Aussen-T/F 1001 17-01-2020 22:44:18 4.2 C 35 %
1002 17-01-2020 22:54:17 3.9 C 37 %
1003 17-01-2020 23:04:17 4 C 37 %
1004 17-01-2020 23:14:17 3.3 C 39 %
1005 17-01-2020 23:24:17 3.6 C 39 %
1006 17-01-2020 23:34:18 3.6 C 39 %
1007 17-01-2020 23:44:18 3.1 C 38 %
1008 17-01-2020 23:54:17 2.6 C 40 %
1009 18-01-2020 00:04:17 2.6 C 41 %
1010 18-01-2020 00:14:17 2.6 C 43 %
1011 18-01-2020 00:24:18 2.8 C 43 %
1012 18-01-2020 00:34:17 3.2 C 43 %
1013 18-01-2020 00:44:17 3.2 C 42 %
1014 18-01-2020 00:54:17 4.2 C 36 %
1015 18-01-2020 01:04:18 4.1 C 36 %
1016 18-01-2020 01:14:18 4 C 36 %
1017 18-01-2020 01:24:17 3.7 C 37 %
1018 18-01-2020 01:34:18 3.8 C 39 %
1019 18-01-2020 01:44:18 3.9 C 39 %
1020 18-01-2020 01:54:17 4.2 C 35 %
1021 18-01-2020 02:04:17 4 C 35 %
1022 18-01-2020 02:14:17 3.4 C 39 %
1023 18-01-2020 02:24:17 3.8 C 40 %
1024 18-01-2020 02:34:17 3.3 C 39 %
1025 18-01-2020 02:44:17 3.6 C 39 %
Sensor: Nr:Datum:Temp:Feuchte:
Aussen-T/F 1026 18-01-2020 02:54:18 3.9 C 36 %
1027 18-01-2020 03:04:17 4.9 C 32 %
1028 18-01-2020 03:14:17 4.9 C 31 %
1029 18-01-2020 03:24:17 4.6 C 31 %
1030 18-01-2020 03:34:17 4.4 C 31 %
1031 18-01-2020 03:44:17 4.5 C 32 %
1032 18-01-2020 03:54:17 4.3 C 32 %
1033 18-01-2020 04:04:17 4.1 C 32 %
1034 18-01-2020 04:14:17 4.1 C 32 %
1035 18-01-2020 04:24:17 4.3 C 32 %
1036 18-01-2020 04:34:18 4.2 C 32 %
1037 18-01-2020 04:44:18 4 C 32 %
1038 18-01-2020 04:54:17 4.1 C 32 %
1039 18-01-2020 05:04:17 4.1 C 31 %
1040 18-01-2020 05:14:17 3.7 C 33 %
1041 18-01-2020 05:24:17 3.8 C 32 %
1042 18-01-2020 05:34:18 3.8 C 32 %
1043 18-01-2020 05:44:18 3.9 C 32 %
1044 18-01-2020 05:54:17 3.2 C 33 %
1045 18-01-2020 06:04:17 3.4 C 32 %
1046 18-01-2020 06:14:17 4 C 31 %
1047 18-01-2020 06:24:17 3.6 C 32 %
1048 18-01-2020 06:34:18 3.8 C 32 %
1049 18-01-2020 06:44:18 3.6 C 32 %
1050 18-01-2020 06:54:17 3.7 C 31 %
Sensor: Nr:Datum:Temp:Feuchte:
Aussen-T/F 1051 18-01-2020 07:04:17 3.2 C 32 %
1052 18-01-2020 07:14:17 3.4 C 32 %
1053 18-01-2020 07:24:17 3 C 33 %
1054 18-01-2020 07:34:18 2.7 C 34 %
1055 18-01-2020 07:44:18 4 C 31 %
1056 18-01-2020 07:54:17 3.7 C 32 %
1057 18-01-2020 08:04:18 4 C 31 %
1058 18-01-2020 08:14:18 4.3 C 31 %
1059 18-01-2020 08:24:17 3.8 C 32 %
1060 18-01-2020 08:34:17 3.7 C 32 %
1061 18-01-2020 08:44:17 3.6 C 32 %
1062 18-01-2020 08:54:17 3.6 C 32 %
1063 18-01-2020 09:04:18 4.1 C 30 %
1064 18-01-2020 09:14:18 3.9 C 32 %
1065 18-01-2020 09:24:18 4.2 C 30 %
1066 18-01-2020 09:34:17 4 C 31 %
1067 18-01-2020 09:44:17 4.1 C 31 %
1068 18-01-2020 09:54:17 4.3 C 31 %
1069 18-01-2020 10:04:17 4.6 C 30 %
1070 18-01-2020 10:14:17 4.9 C 30 %
1071 18-01-2020 10:24:17 4.7 C 30 %
1072 18-01-2020 10:34:18 4.4 C 30 %
1073 18-01-2020 10:44:18 5.1 C 30 %
1074 18-01-2020 10:54:17 5 C 29 %
1075 18-01-2020 11:04:17 5.2 C 28 %
Sensor: Nr:Datum:Temp:Feuchte:
Aussen-T/F 1076 18-01-2020 11:14:17 5.3 C 27 %
1077 18-01-2020 11:24:17 5.3 C 27 %
1078 18-01-2020 11:34:18 5.5 C 27 %
1079 18-01-2020 11:44:18 5.6 C 27 %
1080 18-01-2020 11:54:17 5.6 C 27 %
1081 18-01-2020 12:04:18 6 C 27 %
1082 18-01-2020 12:14:18 6 C 26 %
1083 18-01-2020 12:24:17 5.9 C 26 %
1084 18-01-2020 12:34:17 6 C 26 %
1085 18-01-2020 12:44:17 5.7 C 26 %
1086 18-01-2020 12:54:17 5.9 C 26 %
1087 18-01-2020 13:04:17 6.1 C 25 %
1088 18-01-2020 13:14:17 5.8 C 25 %
1089 18-01-2020 13:24:17 6 C 25 %
1090 18-01-2020 13:34:18 5.7 C 27 %
1091 18-01-2020 13:44:18 5.4 C 27 %
1092 18-01-2020 13:54:17 5.8 C 26 %
1093 18-01-2020 14:04:17 5.7 C 27 %
1094 18-01-2020 14:14:17 5.6 C 26 %
1095 18-01-2020 14:24:17 6 C 26 %
1096 18-01-2020 14:34:18 6.4 C 25 %
1097 18-01-2020 14:44:18 6.5 C 23 %
1098 18-01-2020 14:54:17 6.6 C 20 %
1099 18-01-2020 15:04:17 6.6 C 20 %
1100 18-01-2020 15:14:17 6.4 C 21 %
Sensor: Nr:Datum:Temp:Feuchte:
Aussen-T/F 1101 18-01-2020 15:24:17 6.3 C 21 %
1102 18-01-2020 15:34:17 6.1 C 23 %
1103 18-01-2020 15:44:17 5.9 C 25 %
1104 18-01-2020 15:54:17 5.7 C 25 %
1105 18-01-2020 16:04:17 5.7 C 25 %
1106 18-01-2020 16:14:17 5.3 C 25 %
1107 18-01-2020 16:24:17 5.1 C 25 %
1108 18-01-2020 16:34:18 5 C 26 %
1109 18-01-2020 16:44:18 4.6 C 27 %
1110 18-01-2020 16:54:17 4.8 C 28 %
1111 18-01-2020 17:04:17 5 C 26 %
1112 18-01-2020 17:14:17 4.7 C 27 %
1113 18-01-2020 17:24:18 4.2 C 28 %
1114 18-01-2020 17:34:17 3.5 C 31 %
1115 18-01-2020 17:44:17 3.3 C 31 %
1116 18-01-2020 17:54:17 3.1 C 32 %
1117 18-01-2020 18:04:18 2.6 C 34 %
1118 18-01-2020 18:14:18 2.3 C 36 %
1119 18-01-2020 18:24:17 2 C 37 %
1120 18-01-2020 18:34:17 2.5 C 38 %
1121 18-01-2020 18:44:17 3.2 C 33 %
1122 18-01-2020 18:54:17 3.1 C 31 %
1123 18-01-2020 19:04:18 2.5 C 32 %
1124 18-01-2020 19:14:18 1.6 C 38 %
1125 18-01-2020 19:24:18 1 C 39 %
Sensor: Nr:Datum:Temp:Feuchte:
Aussen-T/F 1126 18-01-2020 19:34:17 0.7 C 41 %
1127 18-01-2020 19:44:17 0.7 C 45 %
1128 18-01-2020 19:54:17 0.7 C 45 %
1129 18-01-2020 20:04:18 0.5 C 44 %
1130 18-01-2020 20:14:18 0.4 C 45 %
1131 18-01-2020 20:24:17 0.3 C 44 %
1132 18-01-2020 20:34:18 0.2 C 43 %
1133 18-01-2020 20:44:18 0.2 C 43 %
1134 18-01-2020 20:54:17 0 C 43 %
1135 18-01-2020 21:04:17 0.3 C 44 %
1136 18-01-2020 21:14:17 1 C 43 %
1137 18-01-2020 21:24:17 1.5 C 42 %
1138 18-01-2020 21:34:17 1.6 C 40 %
1139 18-01-2020 21:44:17 1.8 C 39 %
1140 18-01-2020 21:54:17 1.7 C 37 %
1141 18-01-2020 22:04:18 1.5 C 38 %
1142 18-01-2020 22:14:18 1.1 C 39 %
1143 18-01-2020 22:24:17 1.1 C 41 %
1144 18-01-2020 22:34:17 2 C 37 %
1145 18-01-2020 22:44:18 2 C 36 %
1146 18-01-2020 22:54:17 2.3 C 36 %
1147 18-01-2020 23:04:17 2.3 C 35 %
1148 18-01-2020 23:14:17 2.6 C 35 %
1149 18-01-2020 23:24:17 2.4 C 35 %
1150 18-01-2020 23:34:17 2.8 C 35 %
Sensor: Nr:Datum:Temp:Feuchte:
Aussen-T/F 1151 18-01-2020 23:44:17 2.7 C 36 %
1152 18-01-2020 23:54:17 2.1 C 38 %
1153 19-01-2020 00:04:18 1.8 C 42 %
1154 19-01-2020 00:14:18 2.2 C 44 %
1155 19-01-2020 00:24:17 2.2 C 44 %
1156 19-01-2020 00:34:17 2.2 C 43 %
1157 19-01-2020 00:44:17 2.5 C 41 %
1158 19-01-2020 00:54:17 2.3 C 41 %
1159 19-01-2020 01:04:17 2.4 C 41 %
1160 19-01-2020 01:14:17 2.2 C 40 %
1161 19-01-2020 01:24:17 2 C 40 %
1162 19-01-2020 01:34:17 2 C 43 %
1163 19-01-2020 01:44:17 2 C 44 %
1164 19-01-2020 01:54:18 1.9 C 45 %
1165 19-01-2020 02:04:17 2 C 44 %
1166 19-01-2020 02:14:17 1.9 C 45 %
1167 19-01-2020 02:24:17 1.9 C 45 %
1168 19-01-2020 02:34:17 1.9 C 45 %
1169 19-01-2020 02:44:17 1.6 C 45 %
1170 19-01-2020 02:54:18 1.8 C 46 %
1171 19-01-2020 03:04:17 1.9 C 46 %
1172 19-01-2020 03:14:17 2 C 45 %
1173 19-01-2020 03:24:17 2 C 45 %
1174 19-01-2020 03:34:17 2.1 C 45 %
1175 19-01-2020 03:44:17 2.1 C 45 %
Sensor: Nr:Datum:Temp:Feuchte:
Aussen-T/F 1176 19-01-2020 03:54:17 2.1 C 45 %
1177 19-01-2020 04:04:17 2.1 C 45 %
1178 19-01-2020 04:14:17 2.1 C 45 %
1179 19-01-2020 04:24:17 2.1 C 45 %
1180 19-01-2020 04:34:18 2.2 C 45 %
1181 19-01-2020 04:44:18 2.1 C 44 %
1182 19-01-2020 04:54:17 2 C 44 %
1183 19-01-2020 05:04:18 2.1 C 45 %
1184 19-01-2020 05:14:18 2.2 C 45 %
1185 19-01-2020 05:24:17 2.2 C 45 %
1186 19-01-2020 05:34:18 2.2 C 45 %
1187 19-01-2020 05:44:18 2.2 C 44 %
1188 19-01-2020 05:54:17 2.2 C 44 %
1189 19-01-2020 06:04:18 2.2 C 44 %
1190 19-01-2020 06:14:18 2.2 C 44 %
1191 19-01-2020 06:24:17 2.2 C 43 %
1192 19-01-2020 06:34:18 2.2 C 43 %
1193 19-01-2020 06:44:18 2.2 C 44 %
1194 19-01-2020 06:54:17 2.3 C 44 %
1195 19-01-2020 07:04:17 2.3 C 45 %
1196 19-01-2020 07:14:17 2.3 C 44 %
1197 19-01-2020 07:24:17 2.3 C 44 %
1198 19-01-2020 07:34:17 2.3 C 44 %
1199 19-01-2020 07:44:17 2.3 C 44 %
1200 19-01-2020 07:54:17 2.4 C 42 %
Sensor: Nr:Datum:Temp:Feuchte:
Aussen-T/F 1201 19-01-2020 08:04:17 2.4 C 42 %
1202 19-01-2020 08:14:17 2.3 C 43 %
1203 19-01-2020 08:24:18 2.3 C 43 %
1204 19-01-2020 08:34:17 2.4 C 43 %
1205 19-01-2020 08:44:17 2.5 C 43 %
1206 19-01-2020 08:54:17 2.6 C 42 %
1207 19-01-2020 09:04:18 2.5 C 42 %
1208 19-01-2020 09:14:18 2.6 C 42 %
1209 19-01-2020 09:24:18 2.6 C 41 %
1210 19-01-2020 09:34:17 2.7 C 40 %
1211 19-01-2020 09:44:17 2.7 C 40 %
1212 19-01-2020 09:54:18 2.7 C 40 %
1213 19-01-2020 10:04:18 2.7 C 40 %
1214 19-01-2020 10:14:18 2.7 C 40 %
1215 19-01-2020 10:24:17 2.9 C 38 %
1216 19-01-2020 10:34:17 3.1 C 38 %
1217 19-01-2020 10:44:17 3.3 C 36 %
1218 19-01-2020 10:54:17 3.6 C 35 %
1219 19-01-2020 11:04:18 3.4 C 36 %
1220 19-01-2020 11:14:18 3.5 C 36 %
1221 19-01-2020 11:24:18 3.4 C 36 %
1222 19-01-2020 11:34:17 3.5 C 36 %
1223 19-01-2020 11:44:17 3.8 C 35 %
1224 19-01-2020 11:54:17 4.1 C 33 %
1225 19-01-2020 12:04:18 4.1 C 33 %
Sensor: Nr:Datum:Temp:Feuchte:
Aussen-T/F 1226 19-01-2020 12:14:18 4 C 33 %
1227 19-01-2020 12:24:18 3.8 C 35 %
1228 19-01-2020 12:34:17 4.1 C 35 %
1229 19-01-2020 12:44:17 4.1 C 34 %
1230 19-01-2020 12:54:18 4.1 C 34 %
1231 19-01-2020 13:04:17 4.1 C 34 %
1232 19-01-2020 13:14:17 4.4 C 33 %
1233 19-01-2020 13:24:17 4.1 C 33 %
1234 19-01-2020 13:34:18 4.1 C 34 %
1235 19-01-2020 13:44:18 4.2 C 33 %
1236 19-01-2020 13:54:17 4.5 C 34 %
1237 19-01-2020 14:04:17 5.2 C 32 %
1238 19-01-2020 14:14:17 4.8 C 32 %
1239 19-01-2020 14:24:17 4.7 C 32 %
1240 19-01-2020 14:34:17 4.5 C 31 %
1241 19-01-2020 14:44:17 4.5 C 31 %
1242 19-01-2020 14:54:18 4.7 C 31 %
1243 19-01-2020 15:04:17 4.5 C 31 %
1244 19-01-2020 15:14:17 4.5 C 32 %
1245 19-01-2020 15:24:17 4.5 C 32 %
1246 19-01-2020 15:34:17 4.6 C 31 %
1247 19-01-2020 15:44:17 4.8 C 31 %
1248 19-01-2020 15:54:18 4.4 C 31 %
1249 19-01-2020 16:04:17 4.1 C 32 %
1250 19-01-2020 16:14:17 4.1 C 32 %
Sensor: Nr:Datum:Temp:Feuchte:
Aussen-T/F 1251 19-01-2020 16:24:17 4.1 C 34 %
1252 19-01-2020 16:34:18 4.1 C 35 %
1253 19-01-2020 16:44:18 3.8 C 36 %
1254 19-01-2020 16:54:17 3.6 C 39 %
1255 19-01-2020 17:04:18 3.5 C 42 %
1256 19-01-2020 17:14:18 3.4 C 43 %
1257 19-01-2020 17:24:18 3.3 C 45 %
1258 19-01-2020 17:34:18 3.3 C 45 %
1259 19-01-2020 17:44:18 3.3 C 45 %
1260 19-01-2020 17:54:17 3.4 C 44 %
1261 19-01-2020 18:04:18 3.3 C 44 %
1262 19-01-2020 18:14:18 3.4 C 43 %
1263 19-01-2020 18:24:18 3.2 C 44 %
1264 19-01-2020 18:34:17 3.3 C 45 %
1265 19-01-2020 18:44:17 3.4 C 44 %
1266 19-01-2020 18:54:17 3.4 C 44 %
1267 19-01-2020 19:04:18 3.3 C 44 %
1268 19-01-2020 19:14:18 3.4 C 43 %
1269 19-01-2020 19:24:17 3.4 C 43 %
1270 19-01-2020 19:34:18 3.4 C 43 %
1271 19-01-2020 19:44:18 3.3 C 43 %
1272 19-01-2020 19:54:17 3.3 C 44 %
1273 19-01-2020 20:04:17 3.2 C 44 %
1274 19-01-2020 20:14:17 3.2 C 44 %
1275 19-01-2020 20:25:17 3.3 C 44 %
Sensor: Nr:Datum:Temp:Feuchte:
Aussen-T/F 1276 19-01-2020 20:34:18 3.3 C 44 %
1277 19-01-2020 20:44:18 3.3 C 44 %
1278 19-01-2020 20:54:17 3.2 C 44 %
1279 19-01-2020 21:14:17 3.2 C 43 %
1280 19-01-2020 21:14:17 3.2 C 43 %
1281 19-01-2020 21:24:17 3.2 C 44 %
1282 19-01-2020 21:34:18 3.2 C 44 %
1283 19-01-2020 21:44:18 3.1 C 44 %
1284 19-01-2020 21:54:17 3.2 C 44 %
1285 19-01-2020 22:04:17 3.1 C 44 %
1286 19-01-2020 22:14:17 3.1 C 44 %
1287 19-01-2020 22:24:17 3.2 C 44 %
1288 19-01-2020 22:34:17 3.3 C 44 %
1289 19-01-2020 22:44:17 3.3 C 43 %
1290 19-01-2020 22:55:17 3.3 C 43 %
1291 19-01-2020 23:05:17 3.2 C 42 %
1292 19-01-2020 23:14:18 2.8 C 43 %
1293 19-01-2020 23:24:18 2.2 C 43 %
1294 19-01-2020 23:35:17 2.2 C 44 %
1295 19-01-2020 23:44:17 2.1 C 45 %
1296 19-01-2020 23:54:17 2 C 45 %
1297 20-01-2020 00:05:17 2.1 C 45 %
1298 20-01-2020 00:14:18 2.4 C 45 %
1299 20-01-2020 00:24:18 2.1 C 45 %
1300 20-01-2020 00:34:17 2.5 C 45 %
Sensor: Nr:Datum:Temp:Feuchte:
Aussen-T/F 1301 20-01-2020 00:44:18 2.5 C 45 %
1302 20-01-2020 00:55:17 2.5 C 45 %
1303 20-01-2020 01:04:18 2.3 C 45 %
1304 20-01-2020 01:14:18 2.4 C 45 %
1305 20-01-2020 01:24:18 2.2 C 45 %
1306 20-01-2020 01:34:17 2.5 C 45 %
1307 20-01-2020 01:44:17 2.4 C 45 %
1308 20-01-2020 01:55:17 2.2 C 45 %
1309 20-01-2020 02:05:18 1.7 C 45 %
1310 20-01-2020 02:15:18 1.7 C 45 %
1311 20-01-2020 02:25:18 1.6 C 45 %
1312 20-01-2020 02:35:17 1.8 C 46 %
1313 20-01-2020 02:45:17 1.9 C 46 %
1314 20-01-2020 02:55:17 2.1 C 45 %
1315 20-01-2020 03:05:17 2 C 45 %
1316 20-01-2020 03:15:17 1.5 C 45 %
1317 20-01-2020 03:25:17 1.3 C 45 %
1318 20-01-2020 03:35:17 1.3 C 45 %
1319 20-01-2020 03:45:17 0.8 C 46 %
1320 20-01-2020 03:55:17 1 C 45 %
1321 20-01-2020 04:05:18 1.5 C 46 %
1322 20-01-2020 04:15:17 1.6 C 46 %
1323 20-01-2020 04:25:17 1.8 C 46 %
1324 20-01-2020 04:35:17 1.8 C 46 %
1325 20-01-2020 04:45:17 1.5 C 45 %
Sensor: Nr:Datum:Temp:Feuchte:
Aussen-T/F 1326 20-01-2020 04:55:18 1.4 C 45 %
1327 20-01-2020 05:05:17 1.6 C 45 %
1328 20-01-2020 05:15:17 1.6 C 45 %
1329 20-01-2020 05:25:17 1.8 C 45 %
1330 20-01-2020 05:35:18 1.5 C 45 %
1331 20-01-2020 05:45:17 1.2 C 45 %
1332 20-01-2020 05:55:17 1.4 C 45 %
1333 20-01-2020 06:05:18 1.3 C 45 %
1334 20-01-2020 06:15:17 1.2 C 45 %
1335 20-01-2020 06:25:17 1.2 C 45 %
1336 20-01-2020 06:35:17 1.4 C 45 %
1337 20-01-2020 06:45:18 1.4 C 45 %
1338 20-01-2020 06:55:18 1.3 C 45 %
1339 20-01-2020 07:05:17 1.1 C 45 %
1340 20-01-2020 07:15:17 1 C 45 %
1341 20-01-2020 07:25:17 1.1 C 45 %
1342 20-01-2020 07:35:17 0.7 C 46 %
1343 20-01-2020 07:45:17 0.4 C 46 %
1344 20-01-2020 07:55:17 0.2 C 46 %
1345 20-01-2020 08:05:18 0.1 C 46 %
1346 20-01-2020 08:15:18 0.4 C 46 %
1347 20-01-2020 08:25:18 0.8 C 46 %
1348 20-01-2020 08:35:17 0.6 C 46 %
1349 20-01-2020 08:45:17 1.3 C 45 %
1350 20-01-2020 08:55:17 1.4 C 45 %
Sensor: Nr:Datum:Temp:Feuchte:
Aussen-T/F 1351 20-01-2020 09:05:17 1.5 C 45 %
1352 20-01-2020 09:15:17 1.7 C 45 %
1353 20-01-2020 09:25:17 1.9 C 45 %
1354 20-01-2020 09:35:17 2.2 C 45 %
1355 20-01-2020 09:45:18 2.3 C 45 %
1356 20-01-2020 09:55:18 2.5 C 45 %
1357 20-01-2020 10:05:18 2.8 C 45 %
1358 20-01-2020 10:15:17 2.7 C 45 %
1359 20-01-2020 10:25:17 3 C 43 %
1360 20-01-2020 10:35:17 3.5 C 43 %
1361 20-01-2020 10:45:17 3.7 C 43 %
1362 20-01-2020 10:55:17 3.9 C 43 %
1363 20-01-2020 11:05:18 4 C 41 %
1364 20-01-2020 11:15:18 4.2 C 40 %
1365 20-01-2020 11:25:18 4.5 C 37 %
1366 20-01-2020 11:35:18 4.5 C 35 %
1367 20-01-2020 11:45:17 4.6 C 36 %
1368 20-01-2020 11:55:17 5 C 35 %
1369 20-01-2020 12:05:17 5.1 C 34 %
1370 20-01-2020 12:15:18 5.1 C 30 %
1371 20-01-2020 12:25:18 4.9 C 30 %
1372 20-01-2020 12:35:18 5 C 26 %
1373 20-01-2020 12:45:17 5.1 C 25 %
1374 20-01-2020 12:55:17 5.2 C 21 %
1375 20-01-2020 13:05:17 5.3 C 20 %
Sensor: Nr:Datum:Temp:Feuchte:
Aussen-T/F 1376 20-01-2020 13:15:17 5.6 C 21 %
1377 20-01-2020 13:25:17 5.7 C 20 %
1378 20-01-2020 13:35:17 6.1 C 20 %
1379 20-01-2020 13:45:17 5.8 C 20 %
1380 20-01-2020 13:55:18 5.7 C 20 %
1381 20-01-2020 14:05:17 5.7 C 20 %
1382 20-01-2020 14:15:17 5.9 C 20 %
1383 20-01-2020 14:25:17 6 C 20 %
1384 20-01-2020 14:35:17 5.8 C 20 %
1385 20-01-2020 14:45:18 5.7 C 20 %
1386 20-01-2020 14:55:18 5.6 C 20 %
1387 20-01-2020 15:05:17 5 C 20 %
1388 20-01-2020 15:15:17 4.8 C 25 %
1389 20-01-2020 15:25:17 4.9 C 20 %
1390 20-01-2020 15:35:17 5.2 C 20 %
1391 20-01-2020 15:45:17 5 C 20 %
1392 20-01-2020 15:55:18 4.8 C 20 %
1393 20-01-2020 16:05:17 4 C 26 %
1394 20-01-2020 16:15:17 3.9 C 29 %
1395 20-01-2020 16:25:17 3.7 C 30 %
1396 20-01-2020 16:35:17 3.4 C 31 %
1397 20-01-2020 16:45:18 3.1 C 30 %
1398 20-01-2020 16:55:18 2.6 C 31 %
1399 20-01-2020 17:05:17 2.2 C 30 %
1400 20-01-2020 17:15:17 1.9 C 32 %
Sensor: Nr:Datum:Temp:Feuchte:
Aussen-T/F 1401 20-01-2020 17:25:17 1.8 C 32 %
1402 20-01-2020 17:35:17 1.6 C 33 %
1403 20-01-2020 17:45:18 1.2 C 34 %
1404 20-01-2020 17:55:18 1 C 35 %
1405 20-01-2020 18:05:18 0.8 C 36 %
1406 20-01-2020 18:15:17 0.4 C 38 %
1407 20-01-2020 18:25:17 0.1 C 40 %
1408 20-01-2020 18:35:17 0.2 C 40 %
1409 20-01-2020 18:45:17 0.2 C 40 %
1410 20-01-2020 18:55:17 -0.1 C 40 %
1411 20-01-2020 19:05:18 -0.6 C 40 %
1412 20-01-2020 19:15:17 -1 C 41 %
1413 20-01-2020 19:25:18 -1.2 C 42 %
1414 20-01-2020 19:35:17 -1.2 C 43 %
1415 20-01-2020 19:45:17 -1.3 C 44 %
1416 20-01-2020 19:55:17 -1.5 C 44 %
1417 20-01-2020 20:05:18 -1.4 C 45 %
1418 20-01-2020 20:15:17 -1.4 C 45 %
1419 20-01-2020 20:25:17 -1.7 C 44 %
1420 20-01-2020 20:35:17 -1.8 C 45 %
1421 20-01-2020 20:45:18 -2 C 45 %
1422 20-01-2020 20:55:18 -2.1 C 45 %
1423 20-01-2020 21:05:18 -2.2 C 45 %
1424 20-01-2020 21:15:17 -2.3 C 45 %
1425 20-01-2020 21:25:17 -2.3 C 45 %
Sensor: Nr:Datum:Temp:Feuchte:
Aussen-T/F 1426 20-01-2020 21:35:17 -2.3 C 45 %
1427 20-01-2020 21:45:17 -2.5 C 45 %
1428 20-01-2020 21:55:17 -2.5 C 45 %
1429 20-01-2020 22:05:18 -2.5 C 45 %
1430 20-01-2020 22:15:18 -2.7 C 45 %
1431 20-01-2020 22:25:18 -2.7 C 45 %
1432 20-01-2020 22:35:17 -2.7 C 46 %
1433 20-01-2020 22:45:17 -2.8 C 45 %
1434 20-01-2020 22:55:17 -2.8 C 45 %
1435 20-01-2020 23:05:17 -2.9 C 45 %
1436 20-01-2020 23:15:17 -2.7 C 45 %
1437 20-01-2020 23:25:17 -2.9 C 45 %
1438 20-01-2020 23:35:18 -3.1 C 44 %
1439 20-01-2020 23:45:17 -2.6 C 45 %
1440 20-01-2020 23:55:17 -2.8 C 45 %
1441 21-01-2020 00:05:17 -2.5 C 45 %
1442 21-01-2020 00:15:18 -3 C 43 %
1443 21-01-2020 00:25:18 -3.1 C 44 %
1444 21-01-2020 00:35:17 -3.1 C 44 %
1445 21-01-2020 00:45:17 -3 C 44 %
1446 21-01-2020 00:55:17 -3.1 C 44 %
1447 21-01-2020 01:05:17 -3.3 C 44 %
1448 21-01-2020 01:15:17 -3.1 C 44 %
1449 21-01-2020 01:25:17 -3.3 C 44 %
1450 21-01-2020 01:35:18 -3.1 C 45 %
Sensor: Nr:Datum:Temp:Feuchte:
Aussen-T/F 1451 21-01-2020 01:45:17 -3.3 C 44 %
1452 21-01-2020 01:55:17 -3.5 C 43 %
1453 21-01-2020 02:05:17 -3.6 C 43 %
1454 21-01-2020 02:15:17 -3.5 C 45 %
1455 21-01-2020 02:25:17 -3.7 C 44 %
1456 21-01-2020 02:35:17 -3.7 C 44 %
1457 21-01-2020 02:45:18 -3.8 C 44 %
1458 21-01-2020 02:55:18 -3.6 C 44 %
1459 21-01-2020 03:05:17 -3.9 C 43 %
1460 21-01-2020 03:15:17 -3.8 C 44 %
1461 21-01-2020 03:25:17 -3.9 C 43 %
1462 21-01-2020 03:35:17 -4.2 C 43 %
1463 21-01-2020 03:45:17 -4.4 C 42 %
1464 21-01-2020 03:55:17 -4.3 C 43 %
1465 21-01-2020 04:05:18 -4.4 C 42 %
1466 21-01-2020 04:15:17 -4.5 C 42 %
1467 21-01-2020 04:25:17 -4.2 C 43 %
1468 21-01-2020 04:35:17 -4.3 C 43 %
1469 21-01-2020 04:45:17 -4.3 C 43 %
1470 21-01-2020 04:55:17 -4.5 C 43 %
1471 21-01-2020 05:05:18 -4.4 C 43 %
1472 21-01-2020 05:15:17 -4.5 C 43 %
1473 21-01-2020 05:25:17 -4.3 C 44 %
1474 21-01-2020 05:35:17 -4 C 45 %
1475 21-01-2020 05:45:17 -4.1 C 44 %
Sensor: Nr:Datum:Temp:Feuchte:
Aussen-T/F 1476 21-01-2020 05:55:17 -3.9 C 45 %
1477 21-01-2020 06:05:18 -3.9 C 45 %
1478 21-01-2020 06:15:17 -3.7 C 45 %
1479 21-01-2020 06:25:17 -3.7 C 45 %
1480 21-01-2020 06:35:17 -3.5 C 45 %
1481 21-01-2020 06:45:17 -3.5 C 45 %
1482 21-01-2020 06:55:17 -3.3 C 45 %
1483 21-01-2020 07:05:17 -3.6 C 45 %
1484 21-01-2020 07:15:17 -3.6 C 45 %
1485 21-01-2020 07:25:17 -3.5 C 45 %
1486 21-01-2020 07:35:17 -3.5 C 45 %
1487 21-01-2020 07:45:18 -3.5 C 45 %
1488 21-01-2020 07:55:18 -3.6 C 45 %
1489 21-01-2020 08:05:17 -3.3 C 45 %
1490 21-01-2020 08:15:17 -3.6 C 45 %
1491 21-01-2020 08:25:17 -3.5 C 45 %
1492 21-01-2020 08:35:17 -3.7 C 45 %
1493 21-01-2020 08:45:17 -3.8 C 45 %
1494 21-01-2020 08:55:18 -3.6 C 45 %
1495 21-01-2020 09:05:17 -3.6 C 45 %
1496 21-01-2020 09:15:17 -3.7 C 45 %
1497 21-01-2020 09:25:17 -3.5 C 45 %
1498 21-01-2020 09:35:17 -3.7 C 44 %
1499 21-01-2020 09:45:17 -3.9 C 44 %
1500 21-01-2020 09:55:17 -3.7 C 44 %
Sensor: Nr:Datum:Temp:Feuchte:
Aussen-T/F 1501 21-01-2020 10:05:17 -3.6 C 45 %
1502 21-01-2020 10:15:18 -3.3 C 45 %
1503 21-01-2020 10:25:18 -3.1 C 45 %
1504 21-01-2020 10:35:17 -3 C 45 %
1505 21-01-2020 10:45:17 -3 C 44 %
1506 21-01-2020 10:55:17 -2.7 C 44 %
1507 21-01-2020 11:05:17 -3 C 44 %
1508 21-01-2020 11:15:17 -2.9 C 44 %
1509 21-01-2020 11:25:17 -2.5 C 45 %
1510 21-01-2020 11:35:17 -2.2 C 44 %
1511 21-01-2020 11:45:18 -2 C 44 %
1512 21-01-2020 11:55:18 -1.6 C 45 %
1513 21-01-2020 12:05:18 -1.5 C 45 %
1514 21-01-2020 12:15:17 -1.5 C 45 %
1515 21-01-2020 12:25:17 -1.7 C 45 %
1516 21-01-2020 12:35:17 -1.2 C 46 %
1517 21-01-2020 12:45:18 -1.2 C 45 %
1518 21-01-2020 12:55:18 -1.2 C 45 %
1519 21-01-2020 13:05:18 -0.9 C 46 %
1520 21-01-2020 13:15:17 -1 C 45 %
1521 21-01-2020 13:25:18 -0.9 C 45 %
1522 21-01-2020 13:35:17 -0.7 C 45 %
1523 21-01-2020 13:45:17 -0.6 C 46 %
1524 21-01-2020 13:55:17 -0.8 C 45 %
1525 21-01-2020 14:05:17 -0.6 C 46 %
Sensor: Nr:Datum:Temp:Feuchte:
Aussen-T/F 1526 21-01-2020 14:15:17 -0.3 C 46 %
1527 21-01-2020 14:25:17 -0.2 C 46 %
1528 21-01-2020 14:35:18 -0.3 C 46 %
1529 21-01-2020 14:45:18 -0.3 C 46 %
1530 21-01-2020 14:55:18 -0.3 C 46 %
1531 21-01-2020 15:05:17 -0.5 C 46 %
1532 21-01-2020 15:15:17 -0.6 C 46 %
1533 21-01-2020 15:25:17 -0.5 C 46 %
1534 21-01-2020 15:35:17 -0.4 C 46 %
1535 21-01-2020 15:45:17 -0.4 C 46 %
1536 21-01-2020 15:55:18 -0.6 C 46 %
1537 21-01-2020 16:05:17 -0.8 C 46 %
1538 21-01-2020 16:15:17 -0.9 C 46 %
1539 21-01-2020 16:25:17 -0.9 C 46 %
1540 21-01-2020 16:35:17 -0.9 C 46 %
1541 21-01-2020 16:45:17 -1 C 46 %
1542 21-01-2020 16:55:17 -1.3 C 46 %
1543 21-01-2020 17:05:18 -1.4 C 46 %
1544 21-01-2020 17:15:17 -1.4 C 46 %
1545 21-01-2020 17:25:17 -1.5 C 46 %
1546 21-01-2020 17:35:17 -1.6 C 46 %
1547 21-01-2020 17:45:17 -1.7 C 46 %
1548 21-01-2020 17:55:18 -1.8 C 46 %
1549 21-01-2020 18:05:17 -1.9 C 46 %
1550 21-01-2020 18:15:17 -2.2 C 45 %
Sensor: Nr:Datum:Temp:Feuchte:
Aussen-T/F 1551 21-01-2020 18:25:17 -2.2 C 45 %
1552 21-01-2020 18:35:17 -2.3 C 45 %
1553 21-01-2020 18:45:17 -2.4 C 45 %
1554 21-01-2020 18:55:17 -2.5 C 45 %
1555 21-01-2020 19:05:17 -2.1 C 46 %
1556 21-01-2020 19:15:17 -2.1 C 46 %
1557 21-01-2020 19:25:17 -2.3 C 45 %
1558 21-01-2020 19:35:17 -2.3 C 45 %
1559 21-01-2020 19:45:17 -2.3 C 45 %
1560 21-01-2020 19:55:18 -2.4 C 45 %
1561 21-01-2020 20:05:18 -2.4 C 45 %
1562 21-01-2020 20:15:17 -2.5 C 45 %
1563 21-01-2020 20:25:17 -2.7 C 45 %
1564 21-01-2020 20:35:17 -2.5 C 45 %
1565 21-01-2020 20:45:18 -2.6 C 45 %
1566 21-01-2020 20:55:18 -2.7 C 45 %
1567 21-01-2020 21:05:18 -3 C 45 %
1568 21-01-2020 21:15:17 -3 C 45 %
1569 21-01-2020 21:25:18 -3 C 45 %
1570 21-01-2020 21:35:17 -2.9 C 45 %
1571 21-01-2020 21:45:17 -2.8 C 45 %
1572 21-01-2020 21:55:17 -2.7 C 45 %
1573 21-01-2020 22:05:18 -2.7 C 45 %
1574 21-01-2020 22:15:18 -2.9 C 45 %
1575 21-01-2020 22:25:18 -2.9 C 45 %
Sensor: Nr:Datum:Temp:Feuchte:
Aussen-T/F 1576 21-01-2020 22:35:18 -3 C 45 %
1577 21-01-2020 22:45:17 -3.2 C 45 %
1578 21-01-2020 22:55:17 -3.3 C 45 %
1579 21-01-2020 23:05:18 -3.4 C 45 %
1580 21-01-2020 23:15:17 -3.2 C 45 %
1581 21-01-2020 23:25:18 -3.2 C 45 %
1582 21-01-2020 23:35:17 -3.2 C 45 %
1583 21-01-2020 23:45:17 -3.2 C 45 %
1584 21-01-2020 23:55:17 -3.2 C 45 %
1585 22-01-2020 00:05:17 -3.4 C 45 %
1586 22-01-2020 00:15:17 -3.6 C 45 %
1587 22-01-2020 00:25:17 -3.8 C 45 %
1588 22-01-2020 00:35:17 -3.5 C 45 %
1589 22-01-2020 00:45:18 -3.4 C 45 %
1590 22-01-2020 00:55:18 -3.3 C 45 %
1591 22-01-2020 01:05:17 -3.5 C 45 %
1592 22-01-2020 01:15:18 -3.4 C 45 %
1593 22-01-2020 01:25:18 -3.5 C 45 %
1594 22-01-2020 01:35:17 -3.6 C 45 %
1595 22-01-2020 01:45:17 -3.6 C 45 %
1596 22-01-2020 01:55:17 -3.7 C 45 %
1597 22-01-2020 02:05:18 -3.8 C 45 %
1598 22-01-2020 02:15:18 -3.8 C 45 %
1599 22-01-2020 02:25:18 -3.9 C 45 %
1600 22-01-2020 02:35:18 -3.9 C 45 %
Sensor: Nr:Datum:Temp:Feuchte:
Aussen-T/F 1601 22-01-2020 02:45:17 -3.9 C 45 %
1602 22-01-2020 02:55:17 -4 C 45 %
1603 22-01-2020 03:05:17 -4.1 C 44 %
1604 22-01-2020 03:15:17 -3.9 C 45 %
1605 22-01-2020 03:25:17 -3.9 C 45 %
1606 22-01-2020 03:35:18 -3.9 C 45 %
1607 22-01-2020 03:45:17 -3.9 C 45 %
1608 22-01-2020 03:55:17 -4 C 45 %
1609 22-01-2020 04:05:17 -3.9 C 45 %
1610 22-01-2020 04:15:18 -4 C 45 %
1611 22-01-2020 04:25:18 -4 C 45 %
1612 22-01-2020 04:35:17 -3.9 C 45 %
1613 22-01-2020 04:45:17 -4 C 45 %
1614 22-01-2020 04:55:17 -3.9 C 45 %
1615 22-01-2020 05:05:17 -4 C 45 %
1616 22-01-2020 05:15:17 -3.9 C 45 %
1617 22-01-2020 05:25:17 -4 C 44 %
1618 22-01-2020 05:35:18 -3.9 C 44 %
1619 22-01-2020 05:45:17 -3.8 C 45 %
1620 22-01-2020 05:55:17 -3.9 C 45 %
1621 22-01-2020 06:05:17 -3.9 C 45 %
1622 22-01-2020 06:15:17 -3.9 C 44 %
1623 22-01-2020 06:25:17 -4 C 44 %
1624 22-01-2020 06:35:18 -4 C 44 %
1625 22-01-2020 06:45:17 -3.9 C 44 %
Sensor: Nr:Datum:Temp:Feuchte:
Aussen-T/F 1626 22-01-2020 06:55:17 -3.8 C 44 %
1627 22-01-2020 07:05:17 -3.8 C 44 %
1628 22-01-2020 07:15:17 -3.5 C 45 %
1629 22-01-2020 07:25:17 -3.7 C 45 %
1630 22-01-2020 07:35:17 -3.5 C 45 %
1631 22-01-2020 07:45:18 -3.4 C 45 %
1632 22-01-2020 07:55:18 -3.4 C 45 %
1633 22-01-2020 08:05:17 -3.3 C 45 %
1634 22-01-2020 08:15:17 -3.6 C 45 %
1635 22-01-2020 08:25:17 -3.5 C 45 %
1636 22-01-2020 08:35:18 -3.5 C 45 %
1637 22-01-2020 08:45:17 -3.4 C 45 %
1638 22-01-2020 08:55:17 -3.3 C 45 %
1639 22-01-2020 09:05:17 -3.3 C 45 %
1640 22-01-2020 09:15:17 -3.2 C 45 %
1641 22-01-2020 09:25:17 -3.2 C 45 %
1642 22-01-2020 09:35:18 -2.9 C 45 %
1643 22-01-2020 09:45:17 -2.9 C 44 %
1644 22-01-2020 09:55:17 -3 C 44 %
1645 22-01-2020 10:05:17 -2.9 C 45 %
1646 22-01-2020 10:15:17 -3 C 45 %
1647 22-01-2020 10:25:17 -3 C 45 %
1648 22-01-2020 10:35:17 -3 C 44 %
1649 22-01-2020 10:45:17 -2.9 C 45 %
1650 22-01-2020 10:55:17 -3.1 C 45 %
Sensor: Nr:Datum:Temp:Feuchte:
Aussen-T/F 1651 22-01-2020 11:05:18 -3 C 45 %
1652 22-01-2020 11:15:18 -2.8 C 45 %
1653 22-01-2020 11:25:18 -2.5 C 45 %
1654 22-01-2020 11:35:17 -2 C 45 %
1655 22-01-2020 11:45:17 -1.9 C 44 %
1656 22-01-2020 11:55:17 -1.3 C 44 %
1657 22-01-2020 12:05:17 -1.8 C 42 %
1658 22-01-2020 12:15:17 -1.5 C 43 %
1659 22-01-2020 12:25:17 -1.1 C 45 %
1660 22-01-2020 12:35:18 -1 C 45 %
1661 22-01-2020 12:45:17 -1.4 C 43 %
1662 22-01-2020 12:55:17 -1.2 C 44 %
1663 22-01-2020 13:05:17 -1.3 C 44 %
1664 22-01-2020 13:15:17 -1 C 44 %
1665 22-01-2020 13:25:17 -0.8 C 44 %
1666 22-01-2020 13:35:18 -0.6 C 44 %
1667 22-01-2020 13:45:17 -0.3 C 44 %
1668 22-01-2020 13:55:17 -0.2 C 43 %
1669 22-01-2020 14:05:17 -0.5 C 42 %
1670 22-01-2020 14:15:17 -0.7 C 41 %
1671 22-01-2020 14:25:17 -0.5 C 43 %
1672 22-01-2020 14:35:17 -0.6 C 42 %
1673 22-01-2020 14:45:17 -0.4 C 43 %
1674 22-01-2020 14:55:17 -0.6 C 42 %
1675 22-01-2020 15:05:18 -0.5 C 42 %
Sensor: Nr:Datum:Temp:Feuchte:
Aussen-T/F 1676 22-01-2020 15:15:17 -0.6 C 41 %
1677 22-01-2020 15:25:17 -0.5 C 42 %
1678 22-01-2020 15:35:17 -0.5 C 41 %
1679 22-01-2020 15:45:18 -0.3 C 42 %
1680 22-01-2020 15:55:18 -0.3 C 42 %
1681 22-01-2020 16:05:17 -0.3 C 42 %
1682 22-01-2020 16:15:17 -0.2 C 43 %
1683 22-01-2020 16:25:17 -0.2 C 43 %
1684 22-01-2020 16:35:17 -0.3 C 42 %
1685 22-01-2020 16:45:17 -0.4 C 43 %
1686 22-01-2020 16:55:18 -0.4 C 44 %
1687 22-01-2020 17:05:17 -0.4 C 45 %
1688 22-01-2020 17:15:18 -0.4 C 45 %
1689 22-01-2020 17:25:18 -0.5 C 45 %
1690 22-01-2020 17:35:17 -0.4 C 46 %
1691 22-01-2020 17:45:17 -0.4 C 46 %
1692 22-01-2020 17:55:17 -0.4 C 46 %
1693 22-01-2020 18:05:18 -0.4 C 46 %
1694 22-01-2020 18:15:17 -0.5 C 45 %
1695 22-01-2020 18:25:18 -0.6 C 46 %
1696 22-01-2020 18:35:17 -0.6 C 46 %
1697 22-01-2020 18:45:17 -0.5 C 46 %
1698 22-01-2020 18:55:17 -0.5 C 46 %
1699 22-01-2020 19:05:17 -0.4 C 46 %
1700 22-01-2020 19:15:17 -0.4 C 46 %
Sensor: Nr:Datum:Temp:Feuchte:
Aussen-T/F 1701 22-01-2020 19:25:17 -0.3 C 46 %
1702 22-01-2020 19:35:17 -0.3 C 46 %
1703 22-01-2020 19:45:17 -0.3 C 46 %
1704 22-01-2020 19:55:17 -0.2 C 46 %
1705 22-01-2020 20:05:18 -0.2 C 46 %
1706 22-01-2020 20:15:17 -0.2 C 46 %
1707 22-01-2020 20:25:17 -0.2 C 46 %
1708 22-01-2020 20:35:17 -0.2 C 46 %
1709 22-01-2020 20:45:17 -0.2 C 46 %
1710 22-01-2020 20:55:17 -0.2 C 46 %
1711 22-01-2020 21:05:18 -0.2 C 46 %
1712 22-01-2020 21:15:17 -0.1 C 46 %
1713 22-01-2020 21:25:18 -0.2 C 46 %
1714 22-01-2020 21:35:17 -0.1 C 46 %
1715 22-01-2020 21:45:18 -0.1 C 46 %
1716 22-01-2020 21:55:18 -0.1 C 46 %
1717 22-01-2020 22:05:17 -0.1 C 46 %
1718 22-01-2020 22:15:17 -0.1 C 46 %
1719 22-01-2020 22:25:17 0 C 46 %
1720 22-01-2020 22:35:18 -0.1 C 46 %
1721 22-01-2020 22:45:17 0 C 46 %
1722 22-01-2020 22:55:17 0 C 46 %
1723 22-01-2020 23:05:17 0 C 46 %
1724 22-01-2020 23:15:17 0 C 46 %
1725 22-01-2020 23:25:17 0 C 46 %
Sensor: Nr:Datum:Temp:Feuchte:
Aussen-T/F 1726 22-01-2020 23:35:17 0.1 C 46 %
1727 22-01-2020 23:45:17 0.1 C 46 %
1728 22-01-2020 23:55:17 0.1 C 46 %
1729 23-01-2020 00:05:17 0.1 C 46 %
1730 23-01-2020 00:15:17 0.1 C 46 %
1731 23-01-2020 00:25:17 0.1 C 46 %
1732 23-01-2020 00:35:18 0.1 C 46 %
1733 23-01-2020 00:45:17 0.1 C 46 %
1734 23-01-2020 00:55:17 0.1 C 46 %
1735 23-01-2020 01:05:18 0.1 C 46 %
1736 23-01-2020 01:15:18 0.1 C 46 %
1737 23-01-2020 01:25:18 0.2 C 46 %
1738 23-01-2020 01:35:17 0.1 C 46 %
1739 23-01-2020 01:45:17 0.1 C 46 %
1740 23-01-2020 01:55:18 0.2 C 46 %
1741 23-01-2020 02:05:17 0.2 C 46 %
1742 23-01-2020 02:15:17 0.2 C 46 %
1743 23-01-2020 02:25:17 0.2 C 46 %
1744 23-01-2020 02:35:17 0.3 C 46 %
1745 23-01-2020 02:45:17 0.2 C 46 %
1746 23-01-2020 02:55:18 0.2 C 46 %
1747 23-01-2020 03:05:17 0.3 C 46 %
1748 23-01-2020 03:15:17 0.3 C 46 %
1749 23-01-2020 03:25:17 0.3 C 46 %
1750 23-01-2020 03:35:17 0.3 C 46 %
Sensor: Nr:Datum:Temp:Feuchte:
Aussen-T/F 1751 23-01-2020 03:45:17 0.3 C 46 %
1752 23-01-2020 03:55:18 0.3 C 46 %
1753 23-01-2020 04:05:17 0.3 C 46 %
1754 23-01-2020 04:15:17 0.3 C 46 %
1755 23-01-2020 04:25:17 0.3 C 46 %
1756 23-01-2020 04:35:18 0.3 C 46 %
1757 23-01-2020 04:45:17 0.4 C 46 %
1758 23-01-2020 04:55:17 0.3 C 46 %
1759 23-01-2020 05:05:17 0.4 C 46 %
1760 23-01-2020 05:15:18 0.3 C 46 %
1761 23-01-2020 05:25:18 0.3 C 46 %
1762 23-01-2020 05:35:17 0.3 C 46 %
1763 23-01-2020 05:45:17 0.3 C 46 %
1764 23-01-2020 05:55:17 0.4 C 46 %
1765 23-01-2020 06:05:18 0.4 C 46 %
1766 23-01-2020 06:15:17 0.4 C 46 %
1767 23-01-2020 06:25:18 0.4 C 46 %
1768 23-01-2020 06:35:17 0.5 C 46 %
1769 23-01-2020 06:45:17 0.5 C 46 %
1770 23-01-2020 06:55:17 0.5 C 46 %
1771 23-01-2020 07:05:17 0.5 C 46 %
1772 23-01-2020 07:15:17 0.5 C 46 %
1773 23-01-2020 07:25:17 0.5 C 46 %
1774 23-01-2020 07:35:18 0.5 C 46 %
1775 23-01-2020 07:45:17 0.6 C 46 %
Sensor: Nr:Datum:Temp:Feuchte:
Aussen-T/F 1776 23-01-2020 07:55:17 0.6 C 46 %
1777 23-01-2020 08:05:17 0.6 C 46 %
1778 23-01-2020 08:15:17 0.7 C 46 %
1779 23-01-2020 08:25:17 0.7 C 46 %
1780 23-01-2020 08:35:18 0.7 C 46 %
1781 23-01-2020 08:45:17 0.7 C 46 %
1782 23-01-2020 08:55:17 0.8 C 46 %
1783 23-01-2020 09:05:17 0.8 C 46 %
1784 23-01-2020 09:15:17 0.8 C 46 %
1785 23-01-2020 09:25:17 1.5 C 45 %
1786 23-01-2020 09:35:17 1 C 45 %
1787 23-01-2020 09:45:18 1 C 45 %
1788 23-01-2020 09:55:18 1.1 C 45 %
1789 23-01-2020 10:05:17 1.1 C 45 %
1790 23-01-2020 10:15:17 1.1 C 44 %
1791 23-01-2020 10:25:17 1.3 C 44 %
1792 23-01-2020 10:35:17 1.3 C 44 %
1793 23-01-2020 10:45:17 1.4 C 44 %
1794 23-01-2020 10:55:17 1.4 C 43 %
1795 23-01-2020 11:05:18 1.6 C 42 %
1796 23-01-2020 11:15:17 1.7 C 42 %
1797 23-01-2020 11:25:17 1.7 C 41 %
1798 23-01-2020 11:35:17 1.8 C 40 %
1799 23-01-2020 11:45:17 1.7 C 40 %
1800 23-01-2020 11:55:17 1.8 C 40 %
Sensor: Nr:Datum:Temp:Feuchte:
Aussen-T/F 1801 23-01-2020 12:05:17 1.9 C 40 %
1802 23-01-2020 12:15:17 1.9 C 40 %
1803 23-01-2020 12:25:17 1.8 C 38 %
1804 23-01-2020 12:35:17 2 C 37 %
1805 23-01-2020 12:45:18 2 C 37 %
1806 23-01-2020 12:55:18 2.1 C 37 %
1807 23-01-2020 13:05:18 2.1 C 37 %
1808 23-01-2020 13:15:17 2.1 C 37 %
1809 23-01-2020 13:25:17 2.2 C 37 %
1810 23-01-2020 13:35:17 2.3 C 36 %
1811 23-01-2020 13:45:17 2.3 C 36 %
1812 23-01-2020 13:55:17 2.2 C 36 %
1813 23-01-2020 14:05:17 2.2 C 36 %
1814 23-01-2020 14:15:18 2.3 C 36 %
1815 23-01-2020 14:25:18 2.2 C 37 %
1816 23-01-2020 14:35:18 2.2 C 36 %
1817 23-01-2020 14:45:17 2.2 C 36 %
1818 23-01-2020 14:55:17 2.1 C 36 %
1819 23-01-2020 15:05:17 2.2 C 36 %
1820 23-01-2020 15:15:17 2.3 C 35 %
1821 23-01-2020 15:25:17 2.3 C 35 %
1822 23-01-2020 15:35:18 2.2 C 36 %
1823 23-01-2020 15:45:17 2.1 C 36 %
1824 23-01-2020 15:55:17 2.1 C 37 %
1825 23-01-2020 16:05:17 2 C 37 %
Sensor: Nr:Datum:Temp:Feuchte:
Aussen-T/F 1826 23-01-2020 16:15:17 1.9 C 37 %
1827 23-01-2020 16:25:17 1.9 C 38 %
1828 23-01-2020 16:35:18 1.8 C 39 %
1829 23-01-2020 16:45:17 1.7 C 39 %
1830 23-01-2020 16:55:17 1.6 C 40 %
1831 23-01-2020 17:05:17 1.5 C 41 %
1832 23-01-2020 17:15:17 1.4 C 42 %
1833 23-01-2020 17:25:17 1.4 C 42 %
1834 23-01-2020 17:35:18 0.8 C 43 %
1835 23-01-2020 17:45:17 0.2 C 43 %
1836 23-01-2020 17:55:17 -0.2 C 45 %
1837 23-01-2020 18:05:17 -0.5 C 45 %
1838 23-01-2020 18:15:17 -0.6 C 46 %
1839 23-01-2020 18:25:17 -0.7 C 46 %
1840 23-01-2020 18:35:18 -0.8 C 46 %
1841 23-01-2020 18:45:17 -0.7 C 46 %
1842 23-01-2020 18:55:17 -0.7 C 46 %
1843 23-01-2020 19:05:17 -1 C 46 %
1844 23-01-2020 19:15:17 -1.3 C 46 %
1845 23-01-2020 19:25:17 -1.7 C 46 %
1846 23-01-2020 19:35:18 -1.9 C 46 %
1847 23-01-2020 19:45:17 -1.6 C 46 %
1848 23-01-2020 19:55:17 -1.8 C 46 %
1849 23-01-2020 20:05:17 -2 C 46 %
1850 23-01-2020 20:15:17 -1.8 C 46 %
Sensor: Nr:Datum:Temp:Feuchte:
Aussen-T/F 1851 23-01-2020 20:25:17 -2 C 45 %
1852 23-01-2020 20:35:18 -2 C 46 %
1853 23-01-2020 20:45:18 -1.7 C 46 %
1854 23-01-2020 20:55:18 -1.3 C 46 %
1855 23-01-2020 21:05:17 -1.1 C 46 %
1856 23-01-2020 21:15:17 -0.9 C 46 %
1857 23-01-2020 21:25:17 -0.8 C 46 %
1858 23-01-2020 21:35:18 -0.7 C 46 %
1859 23-01-2020 21:45:17 -0.7 C 46 %
1860 23-01-2020 21:55:17 -0.6 C 46 %
1861 23-01-2020 22:05:17 -0.6 C 46 %
1862 23-01-2020 22:15:17 -0.6 C 46 %
1863 23-01-2020 22:25:17 -0.5 C 46 %
1864 23-01-2020 22:35:17 -0.4 C 46 %
1865 23-01-2020 22:45:18 -0.3 C 46 %
1866 23-01-2020 22:55:18 -0.2 C 46 %
1867 23-01-2020 23:05:18 -0.2 C 46 %
1868 23-01-2020 23:15:17 -0.2 C 46 %
1869 23-01-2020 23:25:17 -0.2 C 46 %
1870 23-01-2020 23:35:17 -0.1 C 46 %
1871 23-01-2020 23:45:17 -0.1 C 46 %
1872 23-01-2020 23:55:17 -0.1 C 46 %
1873 24-01-2020 00:05:18 0 C 46 %
1874 24-01-2020 00:15:17 0.1 C 45 %
1875 24-01-2020 00:25:17 0 C 45 %
Sensor: Nr:Datum:Temp:Feuchte:
Aussen-T/F 1876 24-01-2020 00:35:17 0.2 C 42 %
1877 24-01-2020 00:45:17 0.1 C 42 %
1878 24-01-2020 00:55:17 0.1 C 42 %
1879 24-01-2020 01:05:17 0.1 C 41 %
1880 24-01-2020 01:15:18 0.1 C 41 %
1881 24-01-2020 01:25:18 0 C 40 %
1882 24-01-2020 01:35:17 0 C 40 %
1883 24-01-2020 01:45:17 0 C 40 %
1884 24-01-2020 01:55:17 0 C 39 %
1885 24-01-2020 02:05:18 -0.1 C 40 %
1886 24-01-2020 02:15:17 -0.1 C 40 %
1887 24-01-2020 02:25:17 -0.1 C 40 %
1888 24-01-2020 02:35:17 -0.1 C 40 %
1889 24-01-2020 02:45:18 -0.1 C 40 %
1890 24-01-2020 02:55:18 0 C 39 %
1891 24-01-2020 03:05:17 -0.1 C 39 %
1892 24-01-2020 03:15:17 -0.1 C 39 %
1893 24-01-2020 03:25:17 -0.1 C 39 %
1894 24-01-2020 03:35:17 0 C 38 %
1895 24-01-2020 03:45:17 0 C 38 %
1896 24-01-2020 03:55:18 -0.1 C 39 %
1897 24-01-2020 04:05:17 -0.1 C 39 %
1898 24-01-2020 04:15:17 -0.1 C 38 %
1899 24-01-2020 04:25:17 -0.1 C 38 %
1900 24-01-2020 04:35:17 -0.1 C 38 %
Sensor: Nr:Datum:Temp:Feuchte:
Aussen-T/F 1901 24-01-2020 04:45:17 -0.1 C 38 %
1902 24-01-2020 04:55:18 -0.1 C 38 %
1903 24-01-2020 05:05:17 -0.1 C 38 %
1904 24-01-2020 05:15:17 -0.2 C 38 %
1905 24-01-2020 05:25:17 -0.1 C 38 %
1906 24-01-2020 05:35:17 -0.2 C 38 %
1907 24-01-2020 05:45:18 -0.2 C 38 %
1908 24-01-2020 05:55:18 -0.2 C 38 %
1909 24-01-2020 06:05:17 -0.2 C 38 %
1910 24-01-2020 06:15:18 -0.2 C 38 %
1911 24-01-2020 06:25:18 -0.2 C 38 %
1912 24-01-2020 06:35:18 -0.2 C 38 %
1913 24-01-2020 06:45:17 -0.2 C 38 %
1914 24-01-2020 06:55:17 -0.2 C 38 %
1915 24-01-2020 07:05:17 -0.2 C 38 %
1916 24-01-2020 07:15:17 -0.3 C 38 %
1917 24-01-2020 07:25:17 -0.3 C 38 %
1918 24-01-2020 07:35:18 -0.3 C 38 %
1919 24-01-2020 07:45:17 -0.3 C 37 %
1920 24-01-2020 07:55:17 -0.3 C 37 %
1921 24-01-2020 08:05:17 -0.3 C 37 %
1922 24-01-2020 08:15:17 -0.3 C 37 %
1923 24-01-2020 08:25:17 -0.3 C 37 %
1924 24-01-2020 08:35:17 -0.3 C 36 %
1925 24-01-2020 08:45:17 -0.3 C 36 %
Sensor: Nr:Datum:Temp:Feuchte:
Aussen-T/F 1926 24-01-2020 08:55:17 -0.3 C 36 %
1927 24-01-2020 09:05:17 -0.3 C 36 %
1928 24-01-2020 09:15:17 -0.2 C 36 %
1929 24-01-2020 09:25:17 -0.1 C 36 %
1930 24-01-2020 09:35:18 0 C 36 %
1931 24-01-2020 09:45:17 0.1 C 36 %
1932 24-01-2020 09:55:17 0.2 C 35 %
1933 24-01-2020 10:05:17 0.2 C 35 %
1934 24-01-2020 10:15:17 0.2 C 35 %
1935 24-01-2020 10:25:17 0.4 C 35 %
1936 24-01-2020 10:35:17 0.5 C 35 %
1937 24-01-2020 10:45:17 0.6 C 35 %
1938 24-01-2020 10:55:17 0.4 C 34 %
1939 24-01-2020 11:05:17 0.7 C 34 %
1940 24-01-2020 11:15:17 0.7 C 34 %
1941 24-01-2020 11:25:17 0.9 C 34 %
1942 24-01-2020 11:35:17 1 C 33 %
1943 24-01-2020 11:45:18 1.2 C 32 %
1944 24-01-2020 11:55:18 1.3 C 32 %
1945 24-01-2020 12:05:17 1.6 C 31 %
1946 24-01-2020 12:15:17 1.6 C 31 %
1947 24-01-2020 12:25:17 1.9 C 31 %
1948 24-01-2020 12:35:17 1.5 C 31 %
1949 24-01-2020 12:45:17 1.7 C 30 %
1950 24-01-2020 12:55:17 2.1 C 30 %
Sensor: Nr:Datum:Temp:Feuchte:
Aussen-T/F 1951 24-01-2020 13:05:18 1.9 C 30 %
1952 24-01-2020 13:15:18 2 C 29 %
1953 24-01-2020 13:25:18 2.4 C 30 %
1954 24-01-2020 13:35:18 3 C 28 %
1955 24-01-2020 13:45:17 3.2 C 27 %
1956 24-01-2020 13:55:18 2.5 C 27 %
1957 24-01-2020 14:05:17 2.2 C 27 %
1958 24-01-2020 14:15:17 2.7 C 28 %
1959 24-01-2020 14:25:17 2.6 C 29 %
1960 24-01-2020 14:35:17 2.8 C 28 %
1961 24-01-2020 14:45:18 2.7 C 28 %
1962 24-01-2020 14:55:18 2.5 C 29 %
1963 24-01-2020 15:05:17 2.6 C 29 %
1964 24-01-2020 15:15:17 2.5 C 29 %
1965 24-01-2020 15:25:17 2.4 C 30 %
1966 24-01-2020 15:35:17 2.3 C 30 %
1967 24-01-2020 15:45:17 2.3 C 30 %
1968 24-01-2020 15:55:18 2.3 C 30 %
1969 24-01-2020 16:05:17 2.2 C 30 %
1970 24-01-2020 16:15:17 2 C 30 %
1971 24-01-2020 16:25:17 2.1 C 30 %
1972 24-01-2020 16:35:18 1.9 C 31 %
1973 24-01-2020 16:45:17 1.8 C 32 %
1974 24-01-2020 16:55:17 1.8 C 32 %
1975 24-01-2020 17:05:17 1.7 C 32 %
Sensor: Nr:Datum:Temp:Feuchte:
Aussen-T/F 1976 24-01-2020 17:15:17 1.6 C 32 %
1977 24-01-2020 17:25:17 1.5 C 33 %
1978 24-01-2020 17:35:17 1.5 C 35 %
1979 24-01-2020 17:45:17 1.3 C 35 %
1980 24-01-2020 17:55:17 1.3 C 35 %
1981 24-01-2020 18:05:17 1.3 C 36 %
1982 24-01-2020 18:15:17 1.4 C 36 %
1983 24-01-2020 18:25:17 1.2 C 36 %
1984 24-01-2020 18:35:18 1.2 C 36 %
1985 24-01-2020 18:45:17 1.2 C 36 %
1986 24-01-2020 18:55:17 1.3 C 36 %
1987 24-01-2020 19:05:17 1.2 C 37 %
1988 24-01-2020 19:15:17 1.2 C 37 %
1989 24-01-2020 19:25:17 1.2 C 37 %
1990 24-01-2020 19:35:18 1.2 C 37 %
1991 24-01-2020 19:45:17 1.2 C 37 %
1992 24-01-2020 19:55:17 1.4 C 37 %
1993 24-01-2020 20:05:17 1.4 C 37 %
1994 24-01-2020 20:15:17 1.3 C 37 %
1995 24-01-2020 20:25:17 1.4 C 37 %
1996 24-01-2020 20:31:17 1 C 36 %
1997 24-01-2020 20:35:17 1.4 C 37 %
1998 24-01-2020 20:41:17 1 C 36 %
1999 24-01-2020 20:45:18 1.4 C 37 %
2000 24-01-2020 20:51:17 1 C 36 %
Sensor: Nr:Datum:Temp:Feuchte:
Aussen-T/F 2001 24-01-2020 20:55:18 1.4 C 37 %
2002 24-01-2020 21:01:17 0.9 C 37 %
2003 24-01-2020 21:05:17 1.3 C 37 %
2004 24-01-2020 21:11:17 0.9 C 38 %
2005 24-01-2020 21:15:17 1.2 C 37 %
2006 24-01-2020 21:21:17 0.9 C 38 %
2007 24-01-2020 21:25:17 1.2 C 37 %
2008 24-01-2020 21:31:17 0.8 C 38 %
2009 24-01-2020 21:35:17 1.1 C 36 %
2010 24-01-2020 21:41:17 0.8 C 38 %
2011 24-01-2020 23:05:17 0.8 C 38 %
2012 24-01-2020 23:15:17 0.8 C 38 %
2013 24-01-2020 23:25:17 0.7 C 37 %
2014 24-01-2020 23:35:18 0.7 C 37 %
2015 24-01-2020 23:45:17 0.7 C 37 %
2016 24-01-2020 23:55:17 0.7 C 37 %
2017 25-01-2020 00:05:18 0.6 C 37 %
2018 25-01-2020 00:15:17 0.6 C 37 %
2019 25-01-2020 00:25:17 0.7 C 38 %
2020 25-01-2020 00:35:17 0.6 C 38 %
2021 25-01-2020 00:45:17 0.6 C 38 %
2022 25-01-2020 00:55:17 0.6 C 39 %
2023 25-01-2020 01:05:17 0.7 C 39 %
2024 25-01-2020 01:15:17 0.6 C 39 %
2025 25-01-2020 01:25:17 0.7 C 40 %
Sensor: Nr:Datum:Temp:Feuchte:
Aussen-T/F 2026 25-01-2020 01:35:18 0.7 C 40 %
2027 25-01-2020 01:45:17 0.6 C 40 %
2028 25-01-2020 01:55:17 0.6 C 40 %
2029 25-01-2020 02:05:17 0.6 C 40 %
2030 25-01-2020 02:15:18 0.5 C 40 %
2031 25-01-2020 02:25:18 0.5 C 40 %
2032 25-01-2020 02:35:17 0.6 C 40 %
2033 25-01-2020 02:45:17 0.6 C 40 %
2034 25-01-2020 02:55:18 0.6 C 40 %
2035 25-01-2020 03:05:17 0.6 C 40 %
2036 25-01-2020 03:15:17 0.5 C 40 %
2037 25-01-2020 03:25:17 0.5 C 40 %
2038 25-01-2020 03:35:17 0.5 C 40 %
2039 25-01-2020 03:45:18 0.5 C 40 %
2040 25-01-2020 03:55:18 0.4 C 40 %
2041 25-01-2020 04:05:18 0.4 C 40 %
2042 25-01-2020 04:15:17 0.4 C 40 %
2043 25-01-2020 04:25:18 0.4 C 40 %
2044 25-01-2020 04:35:17 0.3 C 40 %
2045 25-01-2020 04:45:17 0.4 C 40 %
2046 25-01-2020 04:55:17 0.4 C 40 %
2047 25-01-2020 05:05:18 0.4 C 40 %
2048 25-01-2020 05:15:18 0.4 C 40 %
2049 25-01-2020 05:25:18 0.4 C 40 %
2050 25-01-2020 05:35:17 0.3 C 40 %
Sensor: Nr:Datum:Temp:Feuchte:
Aussen-T/F 2051 25-01-2020 05:45:17 0.3 C 39 %
2052 25-01-2020 05:55:17 0.3 C 40 %
2053 25-01-2020 06:05:17 0.3 C 40 %
2054 25-01-2020 06:15:18 0.4 C 40 %
2055 25-01-2020 06:25:18 0.3 C 40 %
2056 25-01-2020 06:35:17 0.3 C 40 %
2057 25-01-2020 06:45:17 0.4 C 40 %
2058 25-01-2020 06:55:17 0.4 C 40 %
2059 25-01-2020 07:05:18 0.4 C 40 %
2060 25-01-2020 07:15:17 0.5 C 40 %
2061 25-01-2020 07:25:17 0.5 C 40 %
2062 25-01-2020 07:35:17 0.5 C 41 %
2063 25-01-2020 07:45:18 0.5 C 41 %
2064 25-01-2020 07:55:18 0.4 C 41 %
2065 25-01-2020 08:05:17 0.5 C 42 %
2066 25-01-2020 08:15:17 0.5 C 42 %
2067 25-01-2020 08:25:17 0.6 C 42 %
2068 25-01-2020 08:35:18 0.6 C 42 %
2069 25-01-2020 08:45:17 0.6 C 42 %
2070 25-01-2020 08:55:17 0.8 C 42 %
2071 25-01-2020 09:05:18 0.8 C 41 %
2072 25-01-2020 09:15:17 0.9 C 41 %
2073 25-01-2020 09:25:18 1.1 C 40 %
2074 25-01-2020 09:35:17 1.2 C 40 %
2075 25-01-2020 09:45:18 1.2 C 40 %
Sensor: Nr:Datum:Temp:Feuchte:
Aussen-T/F 2076 25-01-2020 09:55:18 1.2 C 41 %
2077 25-01-2020 10:05:18 1.5 C 41 %
2078 25-01-2020 10:15:18 1.6 C 41 %
2079 25-01-2020 10:25:18 1.7 C 41 %
2080 25-01-2020 10:35:17 1.9 C 40 %
2081 25-01-2020 10:45:17 2.1 C 40 %
2082 25-01-2020 10:55:17 2.2 C 38 %
2083 25-01-2020 11:05:17 2.4 C 39 %
2084 25-01-2020 11:15:17 2.5 C 38 %
2085 25-01-2020 11:25:18 2.4 C 39 %
2086 25-01-2020 11:35:18 2.9 C 38 %
2087 25-01-2020 11:45:17 2.8 C 37 %
2088 25-01-2020 11:55:17 3 C 37 %
2089 25-01-2020 12:05:18 3.3 C 36 %
2090 25-01-2020 12:15:18 3.4 C 35 %
2091 25-01-2020 12:25:18 3.6 C 35 %
2092 25-01-2020 12:35:18 3.7 C 35 %
2093 25-01-2020 12:45:18 3.7 C 35 %
2094 25-01-2020 12:55:18 3.7 C 35 %
2095 25-01-2020 13:05:17 3.5 C 35 %
2096 25-01-2020 13:15:17 3.5 C 35 %
2097 25-01-2020 13:25:17 3.4 C 36 %
2098 25-01-2020 13:35:17 3.6 C 36 %
2099 25-01-2020 13:45:17 3.8 C 35 %
2100 25-01-2020 13:55:17 3.9 C 35 %
Sensor: Nr:Datum:Temp:Feuchte:
Aussen-T/F 2101 25-01-2020 14:05:18 4.2 C 34 %
2102 25-01-2020 14:15:18 4.2 C 34 %
2103 25-01-2020 14:25:18 4.1 C 35 %
2104 25-01-2020 14:35:18 4.2 C 34 %
2105 25-01-2020 14:45:17 4.4 C 34 %
2106 25-01-2020 14:55:18 4.5 C 34 %
2107 25-01-2020 15:05:18 4.5 C 34 %
2108 25-01-2020 15:15:18 4.4 C 34 %
2109 25-01-2020 15:25:18 4.3 C 34 %
2110 25-01-2020 15:35:17 4.2 C 34 %
2111 25-01-2020 15:45:18 4.1 C 35 %
2112 25-01-2020 15:55:18 4.2 C 35 %
2113 25-01-2020 16:05:18 4.2 C 35 %
2114 25-01-2020 16:15:17 4.1 C 35 %
2115 25-01-2020 16:25:17 4.1 C 35 %
2116 25-01-2020 16:35:17 3.9 C 36 %
2117 25-01-2020 16:45:17 3.9 C 37 %
2118 25-01-2020 16:55:17 3.8 C 37 %
2119 25-01-2020 17:05:17 3.7 C 37 %
2120 25-01-2020 17:15:17 3.6 C 38 %
2121 25-01-2020 17:25:17 3.6 C 38 %
2122 25-01-2020 17:35:17 3.6 C 39 %
2123 25-01-2020 17:45:17 3.9 C 39 %
2124 25-01-2020 17:55:17 3.5 C 39 %
2125 25-01-2020 18:05:18 3.4 C 39 %
Sensor: Nr:Datum:Temp:Feuchte:
Aussen-T/F 2126 25-01-2020 18:15:17 3.4 C 39 %
2127 25-01-2020 18:25:17 3.3 C 40 %
2128 25-01-2020 18:35:17 3.3 C 40 %
2129 25-01-2020 18:45:17 3.2 C 40 %
2130 25-01-2020 18:55:17 3.2 C 40 %
2131 25-01-2020 19:05:18 3.2 C 40 %
2132 25-01-2020 19:15:17 3.2 C 40 %
2133 25-01-2020 19:25:17 3.2 C 40 %
2134 25-01-2020 19:35:17 3.2 C 40 %
2135 25-01-2020 19:45:17 3.2 C 40 %
2136 25-01-2020 19:55:17 3.1 C 41 %
2137 25-01-2020 20:05:18 3.1 C 41 %
2138 25-01-2020 20:15:18 3 C 41 %
2139 25-01-2020 20:25:18 3 C 42 %
2140 25-01-2020 20:35:17 2.9 C 43 %
2141 25-01-2020 20:45:17 2.8 C 43 %
2142 25-01-2020 20:55:17 2.6 C 42 %
2143 25-01-2020 21:05:17 2.5 C 41 %
2144 25-01-2020 21:15:18 2.5 C 41 %
2145 25-01-2020 21:25:18 2.3 C 41 %
2146 25-01-2020 21:35:18 2.2 C 41 %
2147 25-01-2020 21:45:17 2.1 C 42 %
2148 25-01-2020 21:55:18 1.9 C 43 %
2149 25-01-2020 22:05:18 1.8 C 43 %
2150 25-01-2020 22:15:18 1.7 C 43 %
Sensor: Nr:Datum:Temp:Feuchte:
Aussen-T/F 2151 25-01-2020 22:25:18 1.6 C 42 %
2152 25-01-2020 22:35:17 1.5 C 43 %
2153 25-01-2020 22:45:17 1.5 C 43 %
2154 25-01-2020 22:55:17 1.4 C 43 %
2155 25-01-2020 23:05:17 1.4 C 43 %
2156 25-01-2020 23:15:17 1.3 C 43 %
2157 25-01-2020 23:25:17 1.1 C 43 %
2158 25-01-2020 23:35:17 1.1 C 43 %
2159 25-01-2020 23:45:17 1.1 C 43 %
2160 25-01-2020 23:55:17 1 C 43 %
2161 26-01-2020 00:05:18 1 C 44 %
2162 26-01-2020 00:15:18 1.1 C 44 %
2163 26-01-2020 00:25:18 1 C 43 %
2164 26-01-2020 00:35:18 1 C 44 %
2165 26-01-2020 00:45:17 1 C 44 %
2166 26-01-2020 00:55:18 1 C 43 %
2167 26-01-2020 01:05:17 0.8 C 44 %
2168 26-01-2020 01:15:17 0.7 C 44 %
2169 26-01-2020 01:25:17 0.7 C 44 %
2170 26-01-2020 01:35:17 0.7 C 45 %
2171 26-01-2020 01:45:18 0.8 C 45 %
2172 26-01-2020 01:55:18 0.8 C 45 %
2173 26-01-2020 02:05:18 0.8 C 45 %
2174 26-01-2020 02:15:17 0.8 C 45 %
2175 26-01-2020 02:25:17 0.8 C 45 %
Sensor: Nr:Datum:Temp:Feuchte:
Aussen-T/F 2176 26-01-2020 02:35:17 0.8 C 44 %
2177 26-01-2020 02:45:17 0.7 C 44 %
2178 26-01-2020 02:55:17 0.8 C 44 %
2179 26-01-2020 03:05:17 0.7 C 44 %
2180 26-01-2020 03:15:17 0.7 C 44 %
2181 26-01-2020 03:25:17 0.6 C 44 %
2182 26-01-2020 03:35:17 0.7 C 45 %
2183 26-01-2020 03:45:17 0.6 C 45 %
2184 26-01-2020 03:55:17 0.6 C 45 %
2185 26-01-2020 04:05:17 0.6 C 45 %
2186 26-01-2020 04:15:17 0.6 C 45 %
2187 26-01-2020 04:25:17 0.7 C 45 %
2188 26-01-2020 04:35:18 0.7 C 45 %
2189 26-01-2020 04:45:18 0.7 C 44 %
2190 26-01-2020 04:55:18 0.7 C 44 %
2191 26-01-2020 05:05:18 0.7 C 44 %
2192 26-01-2020 05:15:18 0.6 C 43 %
2193 26-01-2020 05:25:18 0.7 C 43 %
2194 26-01-2020 05:35:18 0.6 C 43 %
2195 26-01-2020 05:45:18 0.6 C 43 %
2196 26-01-2020 05:55:18 0.6 C 43 %
2197 26-01-2020 06:05:18 0.6 C 44 %
2198 26-01-2020 06:15:17 0.5 C 44 %
2199 26-01-2020 06:25:17 0.6 C 44 %
2200 26-01-2020 06:35:17 0.6 C 44 %
Sensor: Nr:Datum:Temp:Feuchte:
Aussen-T/F 2201 26-01-2020 06:45:18 0.6 C 44 %
2202 26-01-2020 06:55:18 0.6 C 44 %
2203 26-01-2020 07:05:17 0.7 C 45 %
2204 26-01-2020 07:15:17 0.7 C 44 %
2205 26-01-2020 07:25:17 0.7 C 44 %
2206 26-01-2020 07:35:18 0.7 C 45 %
2207 26-01-2020 07:45:17 0.7 C 45 %
2208 26-01-2020 07:55:18 0.7 C 45 %
2209 26-01-2020 08:05:18 0.7 C 45 %
2210 26-01-2020 08:15:18 0.6 C 45 %
2211 26-01-2020 08:25:18 0.6 C 45 %
2212 26-01-2020 08:35:18 0.6 C 45 %
2213 26-01-2020 08:45:17 0.7 C 45 %
2214 26-01-2020 08:55:17 0.7 C 45 %
2215 26-01-2020 09:05:18 0.9 C 45 %
2216 26-01-2020 09:15:18 0.9 C 44 %
2217 26-01-2020 09:25:18 1 C 42 %
2218 26-01-2020 09:35:18 1 C 41 %
2219 26-01-2020 09:45:17 1 C 40 %
2220 26-01-2020 09:55:17 0.8 C 41 %
2221 26-01-2020 10:05:18 0.7 C 41 %
2222 26-01-2020 10:15:18 0.9 C 42 %
2223 26-01-2020 10:25:18 1.1 C 40 %
2224 26-01-2020 10:35:18 1.6 C 40 %
2225 26-01-2020 10:45:18 1.9 C 38 %
Sensor: Nr:Datum:Temp:Feuchte:
Aussen-T/F 2226 26-01-2020 10:55:18 2.1 C 37 %
2227 26-01-2020 11:05:18 2.2 C 37 %
2228 26-01-2020 11:15:18 2.3 C 37 %
2229 26-01-2020 11:25:18 2.4 C 37 %
2230 26-01-2020 11:35:18 2.3 C 37 %
2231 26-01-2020 11:45:17 2.4 C 38 %
2232 26-01-2020 11:55:18 2.9 C 38 %
2233 26-01-2020 12:05:18 4.2 C 34 %
2234 26-01-2020 12:15:18 4.9 C 32 %
2235 26-01-2020 12:25:18 4 C 32 %
2236 26-01-2020 12:35:18 3.8 C 35 %
2237 26-01-2020 12:45:17 3.8 C 36 %
2238 26-01-2020 12:55:17 3.9 C 37 %
2239 26-01-2020 13:05:18 3.9 C 37 %
2240 26-01-2020 13:15:18 4 C 36 %
2241 26-01-2020 13:25:18 4.2 C 36 %
2242 26-01-2020 13:35:18 4.4 C 36 %
2243 26-01-2020 13:45:17 4.5 C 37 %
2244 26-01-2020 13:55:17 4.5 C 37 %
2245 26-01-2020 14:05:18 4.6 C 38 %
2246 26-01-2020 14:15:17 4.7 C 37 %
2247 26-01-2020 14:25:17 4.7 C 37 %
2248 26-01-2020 14:35:17 4.8 C 37 %
2249 26-01-2020 14:45:18 4.8 C 37 %
2250 26-01-2020 14:55:18 5.7 C 35 %
Sensor: Nr:Datum:Temp:Feuchte:
Aussen-T/F 2251 26-01-2020 15:05:18 6.6 C 33 %
2252 26-01-2020 15:15:18 6.3 C 32 %
2253 26-01-2020 15:25:18 6 C 33 %
2254 26-01-2020 15:35:18 5.5 C 35 %
2255 26-01-2020 15:45:17 4.9 C 36 %
2256 26-01-2020 15:55:17 4.7 C 38 %
2257 26-01-2020 16:05:18 4.6 C 38 %
2258 26-01-2020 16:15:18 4.2 C 39 %
2259 26-01-2020 16:25:18 4 C 39 %
2260 26-01-2020 16:35:18 3.7 C 41 %
2261 26-01-2020 16:45:18 3.7 C 41 %
2262 26-01-2020 16:55:18 4.1 C 38 %
2263 26-01-2020 17:05:18 3.6 C 39 %
2264 26-01-2020 17:15:18 3.5 C 39 %
2265 26-01-2020 17:25:18 3.3 C 40 %
2266 26-01-2020 17:35:17 3.5 C 40 %
2267 26-01-2020 17:45:17 3.8 C 39 %
2268 26-01-2020 17:55:17 3.8 C 39 %
2269 26-01-2020 18:05:17 3.8 C 38 %
2270 26-01-2020 18:15:18 3.8 C 38 %
2271 26-01-2020 18:25:18 3.9 C 38 %
2272 26-01-2020 18:35:18 3.8 C 38 %
2273 26-01-2020 18:45:17 3.5 C 39 %
2274 26-01-2020 18:55:17 3.4 C 39 %
2275 26-01-2020 19:05:17 3.3 C 40 %
Sensor: Nr:Datum:Temp:Feuchte:
Aussen-T/F 2276 26-01-2020 19:15:17 3.1 C 40 %
2277 26-01-2020 19:25:18 3 C 41 %
2278 26-01-2020 19:35:18 3.2 C 41 %
2279 26-01-2020 19:45:17 3.2 C 40 %
2280 26-01-2020 19:55:18 3 C 40 %
2281 26-01-2020 20:05:18 3 C 42 %
2282 26-01-2020 20:15:18 2.9 C 42 %
2283 26-01-2020 20:25:18 3 C 42 %
2284 26-01-2020 20:35:18 2.9 C 43 %
2285 26-01-2020 20:45:18 2.7 C 43 %
2286 26-01-2020 20:55:18 2.4 C 44 %
2287 26-01-2020 21:05:17 2.2 C 43 %
2288 26-01-2020 21:15:17 2 C 45 %
2289 26-01-2020 21:25:17 2.1 C 45 %
2290 26-01-2020 21:35:17 2.2 C 45 %
2291 26-01-2020 21:45:17 1.9 C 46 %
2292 26-01-2020 21:55:17 1.5 C 45 %
2293 26-01-2020 22:05:17 1.4 C 46 %
2294 26-01-2020 22:15:17 0.9 C 47 %
2295 26-01-2020 22:25:17 0.6 C 46 %
2296 26-01-2020 22:35:18 0.3 C 46 %
2297 26-01-2020 22:45:17 0.3 C 46 %
2298 26-01-2020 22:55:18 0.3 C 46 %
2299 26-01-2020 23:05:18 0.9 C 48 %
2300 26-01-2020 23:15:18 0.2 C 47 %
Sensor: Nr:Datum:Temp:Feuchte:
Aussen-T/F 2301 26-01-2020 23:25:18 1.4 C 46 %
2302 26-01-2020 23:35:17 1.4 C 46 %
2303 26-01-2020 23:45:17 1.5 C 46 %
2304 26-01-2020 23:55:17 1.6 C 46 %
2305 27-01-2020 00:05:17 2 C 45 %
2306 27-01-2020 00:15:17 1.9 C 46 %
2307 27-01-2020 00:25:17 1.9 C 46 %
2308 27-01-2020 00:35:17 1.8 C 46 %
2309 27-01-2020 00:45:18 1.7 C 46 %
2310 27-01-2020 00:55:18 1.6 C 45 %
2311 27-01-2020 01:05:17 1.6 C 45 %
2312 27-01-2020 01:15:17 1.5 C 45 %
2313 27-01-2020 01:25:17 1.2 C 45 %
2314 27-01-2020 01:35:17 0.8 C 46 %
2315 27-01-2020 01:45:17 0.8 C 46 %
2316 27-01-2020 01:55:17 0.5 C 46 %
2317 27-01-2020 02:05:17 1 C 45 %
2318 27-01-2020 02:15:17 1.6 C 46 %
2319 27-01-2020 02:25:17 1.9 C 46 %
2320 27-01-2020 02:35:18 2 C 45 %
2321 27-01-2020 02:45:18 2.1 C 45 %
2322 27-01-2020 02:55:18 2.3 C 45 %
2323 27-01-2020 03:05:18 2.3 C 45 %
2324 27-01-2020 03:15:17 2.4 C 45 %
2325 27-01-2020 03:25:17 2.6 C 45 %
Sensor: Nr:Datum:Temp:Feuchte:
Aussen-T/F 2326 27-01-2020 03:35:17 2.4 C 45 %
2327 27-01-2020 03:45:17 2 C 44 %
2328 27-01-2020 03:55:17 2.4 C 44 %
2329 27-01-2020 04:05:17 3 C 44 %
2330 27-01-2020 04:15:17 3 C 43 %
2331 27-01-2020 04:25:17 3.5 C 44 %
2332 27-01-2020 04:35:17 3.5 C 44 %
2333 27-01-2020 04:45:18 3.6 C 44 %
2334 27-01-2020 04:55:18 3.7 C 44 %
2335 27-01-2020 05:05:18 3.6 C 44 %
2336 27-01-2020 05:15:17 4 C 43 %
2337 27-01-2020 05:25:17 4 C 43 %
2338 27-01-2020 05:35:18 4 C 43 %
2339 27-01-2020 05:45:17 4 C 43 %
2340 27-01-2020 05:55:17 4.2 C 43 %
2341 27-01-2020 06:05:18 4.3 C 43 %
2342 27-01-2020 06:15:18 4.8 C 43 %
2343 27-01-2020 06:25:18 5.1 C 42 %
2344 27-01-2020 06:35:17 5.4 C 42 %
2345 27-01-2020 06:45:17 5.9 C 42 %
2346 27-01-2020 06:55:17 6.1 C 41 %
2347 27-01-2020 07:05:17 5.9 C 41 %
2348 27-01-2020 07:15:18 5.9 C 41 %
2349 27-01-2020 07:25:18 5.9 C 42 %
2350 27-01-2020 07:35:18 5.8 C 42 %
Sensor: Nr:Datum:Temp:Feuchte:
Aussen-T/F 2351 27-01-2020 07:45:18 5.7 C 42 %
2352 27-01-2020 07:55:18 5.6 C 42 %
2353 27-01-2020 08:05:18 5.5 C 42 %
2354 27-01-2020 08:15:17 5.5 C 42 %
2355 27-01-2020 08:25:17 5.7 C 43 %
2356 27-01-2020 08:35:17 5.8 C 43 %
2357 27-01-2020 08:45:17 5.8 C 43 %
2358 27-01-2020 08:55:17 5.9 C 41 %
2359 27-01-2020 09:05:17 6 C 40 %
2360 27-01-2020 09:15:17 6.4 C 40 %
2361 27-01-2020 09:25:17 6.8 C 37 %
2362 27-01-2020 09:35:18 6.7 C 37 %
2363 27-01-2020 09:45:17 7.1 C 36 %
2364 27-01-2020 09:55:17 7.6 C 34 %
2365 27-01-2020 10:05:18 7.9 C 32 %
2366 27-01-2020 10:15:18 8 C 32 %
2367 27-01-2020 10:25:18 8 C 32 %
2368 27-01-2020 10:35:17 8 C 32 %
2369 27-01-2020 10:45:18 8 C 32 %
2370 27-01-2020 10:55:18 8 C 32 %
2371 27-01-2020 11:05:17 7.9 C 33 %
2372 27-01-2020 11:15:17 7.8 C 33 %
2373 27-01-2020 11:25:17 7.8 C 34 %
2374 27-01-2020 11:35:17 7.9 C 33 %
2375 27-01-2020 11:45:18 7.8 C 33 %
Sensor: Nr:Datum:Temp:Feuchte:
Aussen-T/F 2376 27-01-2020 11:55:18 7.9 C 34 %
2377 27-01-2020 12:05:17 8 C 32 %
2378 27-01-2020 12:15:17 8.4 C 32 %
2379 27-01-2020 12:25:17 8.6 C 32 %
2380 27-01-2020 12:35:17 8.7 C 31 %
2381 27-01-2020 12:45:17 9 C 31 %
2382 27-01-2020 12:55:17 9 C 30 %
2383 27-01-2020 13:05:18 9 C 30 %
2384 27-01-2020 13:15:17 8.7 C 31 %
2385 27-01-2020 13:25:17 7.9 C 32 %
2386 27-01-2020 13:35:17 7.4 C 34 %
2387 27-01-2020 13:45:17 7.3 C 35 %
2388 27-01-2020 13:55:17 7.1 C 36 %
2389 27-01-2020 14:05:18 7.2 C 36 %
2390 27-01-2020 14:15:17 7.1 C 36 %
2391 27-01-2020 14:25:17 7.1 C 38 %
2392 27-01-2020 14:35:17 7 C 36 %
2393 27-01-2020 14:45:17 7 C 37 %
2394 27-01-2020 14:55:17 7 C 38 %
2395 27-01-2020 15:05:18 6.9 C 38 %
2396 27-01-2020 15:15:17 6.8 C 40 %
2397 27-01-2020 15:25:17 6.8 C 37 %
2398 27-01-2020 15:35:17 6.9 C 37 %
2399 27-01-2020 15:45:17 6.7 C 37 %
2400 27-01-2020 15:55:17 6.7 C 37 %
Sensor: Nr:Datum:Temp:Feuchte:
Aussen-T/F 2401 27-01-2020 16:05:17 6.6 C 38 %
2402 27-01-2020 16:15:18 6.5 C 40 %
2403 27-01-2020 16:25:18 6.5 C 40 %
2404 27-01-2020 16:35:18 6.4 C 40 %
2405 27-01-2020 16:45:17 6.4 C 39 %
2406 27-01-2020 16:55:17 6.3 C 40 %
2407 27-01-2020 17:05:17 6.3 C 39 %
2408 27-01-2020 17:15:17 6.4 C 39 %
2409 27-01-2020 17:25:17 6.6 C 37 %
2410 27-01-2020 17:35:17 6.3 C 38 %
2411 27-01-2020 17:45:17 6.2 C 39 %
2412 27-01-2020 17:55:17 6.5 C 37 %
2413 27-01-2020 18:05:17 6.4 C 37 %
2414 27-01-2020 18:15:17 6.5 C 37 %
2415 27-01-2020 18:25:18 6.4 C 37 %
2416 27-01-2020 18:35:18 6.4 C 37 %
2417 27-01-2020 18:45:17 6.6 C 36 %
2418 27-01-2020 18:55:17 6.4 C 36 %
2419 27-01-2020 19:05:18 6.3 C 36 %
2420 27-01-2020 19:15:17 6.2 C 37 %
2421 27-01-2020 19:25:17 6.1 C 39 %
2422 27-01-2020 19:35:17 6.1 C 40 %
2423 27-01-2020 19:45:18 6.1 C 40 %
2424 27-01-2020 19:55:18 5.9 C 42 %
2425 27-01-2020 20:05:18 5.9 C 43 %
Sensor: Nr:Datum:Temp:Feuchte:
Aussen-T/F 2426 27-01-2020 20:15:18 5.8 C 42 %
2427 27-01-2020 20:25:18 5.9 C 40 %
2428 27-01-2020 20:35:18 5.6 C 41 %
2429 27-01-2020 20:45:18 5.4 C 42 %
2430 27-01-2020 20:55:18 5.4 C 43 %
2431 27-01-2020 21:05:18 5.4 C 43 %
2432 27-01-2020 21:15:18 5.4 C 43 %
2433 27-01-2020 21:25:18 5.3 C 42 %
2434 27-01-2020 21:35:18 5.4 C 43 %
2435 27-01-2020 21:45:18 5.4 C 43 %
2436 27-01-2020 21:55:18 5.3 C 42 %
2437 27-01-2020 22:05:17 5.3 C 43 %
2438 27-01-2020 22:15:17 5.3 C 43 %
2439 27-01-2020 22:25:17 5.3 C 43 %
2440 27-01-2020 22:35:17 5.5 C 42 %
2441 27-01-2020 22:45:17 5.5 C 41 %
2442 27-01-2020 22:55:17 5.6 C 40 %
2443 27-01-2020 23:05:17 5.6 C 40 %
2444 27-01-2020 23:15:17 5.6 C 41 %
2445 27-01-2020 23:25:17 5.7 C 41 %
2446 27-01-2020 23:35:17 5.5 C 40 %
2447 27-01-2020 23:45:17 5.7 C 40 %
2448 27-01-2020 23:55:17 5.8 C 39 %
2449 28-01-2020 00:05:18 5.9 C 38 %
2450 28-01-2020 00:15:17 6 C 37 %
Sensor: Nr:Datum:Temp:Feuchte:
Aussen-T/F 2451 28-01-2020 00:25:18 6 C 37 %
2452 28-01-2020 00:35:18 6 C 37 %
2453 28-01-2020 00:45:17 6.3 C 36 %
2454 28-01-2020 00:55:18 6.7 C 36 %
2455 28-01-2020 01:05:18 6.7 C 35 %
2456 28-01-2020 01:15:17 6.8 C 35 %
2457 28-01-2020 01:25:17 6.8 C 35 %
2458 28-01-2020 01:35:17 6.9 C 35 %
2459 28-01-2020 01:45:17 6.8 C 35 %
2460 28-01-2020 01:55:17 7 C 35 %
2461 28-01-2020 02:05:18 6.8 C 35 %
2462 28-01-2020 02:15:18 7 C 34 %
2463 28-01-2020 02:25:18 7.4 C 33 %
2464 28-01-2020 02:35:17 7 C 33 %
2465 28-01-2020 02:45:17 6.8 C 35 %
2466 28-01-2020 02:55:17 7.4 C 33 %
2467 28-01-2020 03:05:17 7.4 C 33 %
2468 28-01-2020 03:15:17 7.6 C 32 %
2469 28-01-2020 03:25:18 7.6 C 31 %
2470 28-01-2020 03:35:18 7.6 C 31 %
2471 28-01-2020 03:45:18 6.8 C 33 %
2472 28-01-2020 03:55:18 6.4 C 36 %
2473 28-01-2020 04:05:18 5.8 C 39 %
2474 28-01-2020 04:15:17 5.6 C 38 %
2475 28-01-2020 04:25:17 5.6 C 38 %
Sensor: Nr:Datum:Temp:Feuchte:
Aussen-T/F 2476 28-01-2020 04:35:17 5.6 C 39 %
2477 28-01-2020 04:45:18 5.4 C 41 %
2478 28-01-2020 04:55:18 5.6 C 38 %
2479 28-01-2020 05:05:18 5.8 C 38 %
2480 28-01-2020 05:15:18 6.1 C 35 %
2481 28-01-2020 05:25:18 6.1 C 35 %
2482 28-01-2020 05:35:18 5.5 C 37 %
2483 28-01-2020 05:45:17 5.7 C 38 %
2484 28-01-2020 05:55:17 6 C 35 %
2485 28-01-2020 06:05:18 6.3 C 34 %
2486 28-01-2020 06:15:17 6 C 36 %
2487 28-01-2020 06:25:17 5.6 C 37 %
2488 28-01-2020 06:35:17 5.3 C 38 %
2489 28-01-2020 06:45:18 4.9 C 38 %
2490 28-01-2020 06:55:18 4.6 C 38 %
2491 28-01-2020 07:05:18 4.2 C 41 %
2492 28-01-2020 07:15:18 4.2 C 40 %
2493 28-01-2020 07:25:18 4 C 42 %
2494 28-01-2020 07:35:17 4.1 C 44 %
2495 28-01-2020 07:45:18 4.7 C 38 %
2496 28-01-2020 07:55:18 4.2 C 38 %
2497 28-01-2020 08:05:18 4.5 C 38 %
2498 28-01-2020 08:15:17 4.2 C 40 %
2499 28-01-2020 08:25:17 4.1 C 37 %
2500 28-01-2020 08:35:17 4.1 C 39 %
Sensor: Nr:Datum:Temp:Feuchte:
Aussen-T/F 2501 28-01-2020 08:45:17 4.2 C 38 %
2502 28-01-2020 08:55:17 4.3 C 40 %
2503 28-01-2020 09:05:17 4.3 C 40 %
2504 28-01-2020 09:15:17 4.2 C 41 %
2505 28-01-2020 09:25:17 4.1 C 38 %
2506 28-01-2020 09:35:18 3.8 C 39 %
2507 28-01-2020 09:45:17 4 C 36 %
2508 28-01-2020 09:55:17 4.2 C 35 %
2509 28-01-2020 10:05:18 4.1 C 36 %
2510 28-01-2020 10:15:17 4.3 C 35 %
2511 28-01-2020 10:25:17 4.4 C 35 %
2512 28-01-2020 10:35:17 4.7 C 33 %
2513 28-01-2020 10:45:17 4.7 C 33 %
2514 28-01-2020 10:55:17 4.9 C 33 %
2515 28-01-2020 11:05:17 5.1 C 32 %
2516 28-01-2020 11:15:17 4.7 C 33 %
2517 28-01-2020 11:25:17 5.1 C 32 %
2518 28-01-2020 11:35:17 5.2 C 31 %
2519 28-01-2020 11:45:17 5.5 C 31 %
2520 28-01-2020 11:55:17 5.3 C 31 %
2521 28-01-2020 12:05:17 5.6 C 31 %
2522 28-01-2020 12:15:18 6 C 27 %
2523 28-01-2020 12:25:18 6.3 C 25 %
2524 28-01-2020 12:35:17 6.2 C 25 %
2525 28-01-2020 12:45:18 6.4 C 25 %
Sensor: Nr:Datum:Temp:Feuchte:
Aussen-T/F 2526 28-01-2020 12:55:18 6.5 C 23 %
2527 28-01-2020 13:05:17 6.4 C 20 %
2528 28-01-2020 13:15:17 6.4 C 23 %
2529 28-01-2020 13:25:17 6.6 C 21 %
2530 28-01-2020 13:35:17 6.4 C 20 %
2531 28-01-2020 13:45:17 6.2 C 20 %
2532 28-01-2020 13:55:17 6.1 C 23 %
2533 28-01-2020 14:05:17 6.2 C 23 %
2534 28-01-2020 14:15:17 6 C 23 %
2535 28-01-2020 14:25:17 6.1 C 20 %
2536 28-01-2020 14:35:18 6.1 C 20 %
2537 28-01-2020 14:45:17 5.9 C 23 %
2538 28-01-2020 14:55:18 5.9 C 20 %
2539 28-01-2020 15:05:18 6.6 C 20 %
2540 28-01-2020 15:15:17 6.5 C 20 %
2541 28-01-2020 15:25:17 6.4 C 20 %
2542 28-01-2020 15:35:18 5.6 C 21 %
2543 28-01-2020 15:45:17 5.7 C 20 %
2544 28-01-2020 15:55:17 5.2 C 21 %
2545 28-01-2020 16:05:18 5.1 C 23 %
2546 28-01-2020 16:15:18 5 C 21 %
2547 28-01-2020 16:25:18 4.9 C 20 %
2548 28-01-2020 16:35:17 4.8 C 20 %
2549 28-01-2020 16:45:18 4.6 C 20 %
2550 28-01-2020 16:55:18 4.3 C 20 %
Sensor: Nr:Datum:Temp:Feuchte:
Aussen-T/F 2551 28-01-2020 17:05:17 4.2 C 20 %
2552 28-01-2020 17:15:17 4.2 C 20 %
2553 28-01-2020 17:25:17 3.9 C 23 %
2554 28-01-2020 17:35:17 4.3 C 21 %
2555 28-01-2020 17:45:17 4.1 C 21 %
2556 28-01-2020 17:55:17 4 C 21 %
2557 28-01-2020 18:05:17 3.8 C 23 %
2558 28-01-2020 18:15:18 3.5 C 25 %
2559 28-01-2020 18:25:18 3.5 C 26 %
2560 28-01-2020 18:35:18 3.3 C 27 %
2561 28-01-2020 18:45:17 3.8 C 26 %
2562 28-01-2020 18:55:18 3.7 C 26 %
2563 28-01-2020 19:05:18 3.7 C 26 %
2564 28-01-2020 19:15:17 3.9 C 25 %
2565 28-01-2020 19:25:17 4 C 23 %
2566 28-01-2020 19:35:17 4 C 23 %
2567 28-01-2020 19:45:17 3.8 C 25 %
2568 28-01-2020 19:55:17 3.4 C 26 %
2569 28-01-2020 20:05:17 3.5 C 26 %
2570 28-01-2020 20:15:18 3.7 C 26 %
2571 28-01-2020 20:25:18 4 C 26 %
2572 28-01-2020 20:35:18 4 C 26 %
2573 28-01-2020 20:45:18 3.8 C 27 %
2574 28-01-2020 20:55:18 3.8 C 27 %
2575 28-01-2020 21:05:18 3.7 C 27 %
Sensor: Nr:Datum:Temp:Feuchte:
Aussen-T/F 2576 28-01-2020 21:15:18 3.5 C 28 %
2577 28-01-2020 21:25:18 3.3 C 28 %
2578 28-01-2020 21:35:18 3.4 C 28 %
2579 28-01-2020 21:45:17 3.4 C 28 %
2580 28-01-2020 21:55:18 3.2 C 30 %
2581 28-01-2020 22:05:18 3.5 C 30 %
2582 28-01-2020 22:15:18 3.5 C 30 %
2583 28-01-2020 22:25:18 3.6 C 30 %
2584 28-01-2020 22:35:17 3.6 C 30 %
2585 28-01-2020 22:45:18 3.3 C 30 %
2586 28-01-2020 22:55:18 3.6 C 30 %
2587 28-01-2020 23:05:18 3.5 C 31 %
2588 28-01-2020 23:15:18 3.6 C 31 %
2589 28-01-2020 23:25:18 3.6 C 31 %
2590 28-01-2020 23:35:18 3.9 C 30 %
2591 28-01-2020 23:45:18 4.2 C 29 %
2592 28-01-2020 23:55:18 4.2 C 29 %
2593 29-01-2020 00:05:18 3.7 C 31 %
2594 29-01-2020 00:15:18 3.6 C 31 %
2595 29-01-2020 00:25:18 3.9 C 31 %
2596 29-01-2020 00:35:18 4 C 30 %
2597 29-01-2020 00:45:17 3.5 C 32 %
2598 29-01-2020 00:55:17 3.2 C 35 %
2599 29-01-2020 01:05:17 2.9 C 37 %
2600 29-01-2020 01:15:17 2.9 C 36 %
Sensor: Nr:Datum:Temp:Feuchte:
Aussen-T/F 2601 29-01-2020 01:25:17 3 C 35 %
2602 29-01-2020 01:35:18 3.2 C 35 %
2603 29-01-2020 01:45:17 3.2 C 35 %
2604 29-01-2020 01:55:17 3.3 C 34 %
2605 29-01-2020 02:05:18 3.2 C 34 %
2606 29-01-2020 02:15:17 3.2 C 35 %
2607 29-01-2020 02:25:17 3 C 36 %
2608 29-01-2020 02:35:17 2.6 C 39 %
2609 29-01-2020 02:45:17 2.8 C 39 %
2610 29-01-2020 02:55:17 2.9 C 38 %
2611 29-01-2020 03:05:17 2.8 C 39 %
2612 29-01-2020 03:15:17 2.9 C 38 %
2613 29-01-2020 03:25:17 3.1 C 36 %
2614 29-01-2020 03:35:18 2.9 C 37 %
2615 29-01-2020 03:45:17 2.9 C 37 %
2616 29-01-2020 03:55:18 2.7 C 38 %
2617 29-01-2020 04:05:18 2.7 C 40 %
2618 29-01-2020 04:15:18 2.6 C 40 %
2619 29-01-2020 04:25:18 2.8 C 37 %
2620 29-01-2020 04:35:17 3.1 C 35 %
2621 29-01-2020 04:45:18 3.3 C 34 %
2622 29-01-2020 04:55:18 3.2 C 34 %
2623 29-01-2020 05:05:17 3.3 C 33 %
2624 29-01-2020 05:15:17 3.4 C 33 %
2625 29-01-2020 05:25:17 3.5 C 33 %
Sensor: Nr:Datum:Temp:Feuchte:
Aussen-T/F 2626 29-01-2020 05:35:17 3.5 C 33 %
2627 29-01-2020 05:45:17 3.4 C 33 %
2628 29-01-2020 05:55:17 3.4 C 33 %
2629 29-01-2020 06:05:17 3.3 C 33 %
2630 29-01-2020 06:15:17 3.3 C 33 %
2631 29-01-2020 06:25:18 3.2 C 33 %
2632 29-01-2020 06:35:17 3.2 C 33 %
2633 29-01-2020 06:45:17 3.3 C 33 %
2634 29-01-2020 06:55:17 2.8 C 35 %
2635 29-01-2020 07:05:17 3.6 C 33 %
2636 29-01-2020 07:15:17 3.5 C 33 %
2637 29-01-2020 07:25:18 3.8 C 32 %
2638 29-01-2020 07:35:18 3.7 C 32 %
2639 29-01-2020 07:45:18 3.5 C 32 %
2640 29-01-2020 07:55:18 3.6 C 32 %
2641 29-01-2020 08:05:18 3.6 C 32 %
2642 29-01-2020 08:15:18 3.6 C 32 %
2643 29-01-2020 08:25:18 3.6 C 32 %
2644 29-01-2020 08:35:18 4 C 30 %
2645 29-01-2020 08:45:17 4.1 C 30 %
2646 29-01-2020 08:55:18 4.1 C 30 %
2647 29-01-2020 09:05:18 4.1 C 30 %
2648 29-01-2020 09:15:17 4.1 C 30 %
2649 29-01-2020 09:25:17 4.2 C 30 %
2650 29-01-2020 09:35:17 4 C 30 %
Sensor: Nr:Datum:Temp:Feuchte:
Aussen-T/F 2651 29-01-2020 09:45:17 3.6 C 32 %
2652 29-01-2020 09:55:17 3.7 C 33 %
2653 29-01-2020 10:05:18 4.1 C 31 %
2654 29-01-2020 10:15:17 4.2 C 30 %
2655 29-01-2020 10:25:17 4.3 C 30 %
2656 29-01-2020 10:35:17 4.3 C 30 %
2657 29-01-2020 10:45:17 4.5 C 30 %
2658 29-01-2020 10:55:17 4.7 C 30 %
2659 29-01-2020 11:05:17 4.6 C 30 %
2660 29-01-2020 11:15:18 4.9 C 30 %
2661 29-01-2020 11:25:18 4.9 C 30 %
2662 29-01-2020 11:35:17 5.3 C 30 %
2663 29-01-2020 11:45:18 5.6 C 29 %
2664 29-01-2020 11:55:18 6.4 C 28 %
2665 29-01-2020 12:05:17 6.4 C 27 %
2666 29-01-2020 12:15:17 6 C 27 %
2667 29-01-2020 12:25:17 6.6 C 26 %
2668 29-01-2020 12:35:18 6.5 C 25 %
2669 29-01-2020 12:45:17 6.7 C 25 %
2670 29-01-2020 12:55:17 6.6 C 20 %
2671 29-01-2020 13:05:17 6.8 C 20 %
2672 29-01-2020 13:15:17 6.9 C 20 %
2673 29-01-2020 13:25:17 6.8 C 20 %
2674 29-01-2020 13:35:18 7.3 C 20 %
2675 29-01-2020 13:45:18 7.4 C 20 %
Sensor: Nr:Datum:Temp:Feuchte:
Aussen-T/F 2676 29-01-2020 13:55:18 7.4 C 20 %
2677 29-01-2020 14:05:17 7.4 C 20 %
2678 29-01-2020 14:15:17 7.5 C 20 %
2679 29-01-2020 14:25:17 7 C 20 %
2680 29-01-2020 14:35:18 6.9 C 20 %
2681 29-01-2020 14:45:17 7.1 C 20 %
2682 29-01-2020 14:55:17 6.9 C 20 %
2683 29-01-2020 15:05:17 6.9 C 20 %
2684 29-01-2020 15:15:18 6.7 C 20 %
2685 29-01-2020 15:25:18 6.9 C 20 %
2686 29-01-2020 15:35:17 6.8 C 20 %
2687 29-01-2020 15:45:17 6.9 C 20 %
2688 29-01-2020 15:55:17 6.9 C 20 %
2689 29-01-2020 16:05:17 6.7 C 20 %
2690 29-01-2020 16:15:18 6.9 C 20 %
2691 29-01-2020 16:25:18 6.9 C 20 %
2692 29-01-2020 16:35:17 7.2 C 20 %
2693 29-01-2020 16:45:18 6.9 C 20 %
2694 29-01-2020 16:55:18 6.6 C 20 %
2695 29-01-2020 17:05:17 6.3 C 20 %
2696 29-01-2020 17:15:17 5.9 C 20 %
2697 29-01-2020 17:25:18 5.2 C 20 %
2698 29-01-2020 17:35:18 4.5 C 20 %
2699 29-01-2020 17:45:18 4.4 C 20 %
2700 29-01-2020 17:55:18 4.3 C 20 %
Sensor: Nr:Datum:Temp:Feuchte:
Aussen-T/F 2701 29-01-2020 18:05:18 3.8 C 21 %
2702 29-01-2020 18:15:17 4.1 C 20 %
2703 29-01-2020 18:25:17 3.3 C 26 %
2704 29-01-2020 18:35:18 3.1 C 28 %
2705 29-01-2020 18:45:17 3.6 C 26 %
2706 29-01-2020 18:55:18 3.1 C 27 %
2707 29-01-2020 19:05:18 2.3 C 30 %
2708 29-01-2020 19:15:17 2.3 C 31 %
2709 29-01-2020 19:25:17 2.6 C 30 %
2710 29-01-2020 19:35:17 2.4 C 30 %
2711 29-01-2020 19:45:18 2.7 C 30 %
2712 29-01-2020 19:55:18 1.8 C 33 %
2713 29-01-2020 20:05:18 1.3 C 35 %
2714 29-01-2020 20:15:17 2.3 C 34 %
2715 29-01-2020 20:25:17 1.9 C 36 %
2716 29-01-2020 20:35:18 1.8 C 35 %
2717 29-01-2020 20:45:17 2.4 C 35 %
2718 29-01-2020 20:55:18 2.4 C 35 %
2719 29-01-2020 21:05:18 2.6 C 35 %
2720 29-01-2020 21:15:18 2.1 C 36 %
2721 29-01-2020 21:25:18 2.2 C 35 %
2722 29-01-2020 21:35:18 2.6 C 35 %
2723 29-01-2020 21:45:18 2.4 C 35 %
2724 29-01-2020 21:55:18 2.2 C 36 %
2725 29-01-2020 22:05:18 1.9 C 39 %
Sensor: Nr:Datum:Temp:Feuchte:
Aussen-T/F 2726 29-01-2020 22:15:17 2.6 C 38 %
2727 29-01-2020 22:25:17 3.4 C 35 %
2728 29-01-2020 22:35:17 3.8 C 35 %
2729 29-01-2020 22:45:18 3.9 C 35 %
2730 29-01-2020 22:55:18 4.4 C 33 %
2731 29-01-2020 23:05:17 4.6 C 32 %
2732 29-01-2020 23:15:17 4.6 C 33 %
2733 29-01-2020 23:25:17 4.6 C 32 %
2734 29-01-2020 23:35:18 4.8 C 32 %
2735 29-01-2020 23:45:18 4.9 C 32 %
2736 29-01-2020 23:55:18 5.1 C 31 %
2737 30-01-2020 00:05:17 5.1 C 31 %
2738 30-01-2020 00:15:17 5.2 C 31 %
2739 30-01-2020 00:25:17 5.2 C 31 %
2740 30-01-2020 00:35:17 5.1 C 31 %
2741 30-01-2020 00:45:17 5.3 C 31 %
2742 30-01-2020 00:55:17 5.4 C 31 %
2743 30-01-2020 01:05:17 5.6 C 31 %
2744 30-01-2020 01:15:17 5.5 C 31 %
2745 30-01-2020 01:25:18 5.8 C 31 %
2746 30-01-2020 01:35:18 5.7 C 31 %
2747 30-01-2020 01:45:17 5.7 C 31 %
2748 30-01-2020 01:55:18 5.8 C 30 %
2749 30-01-2020 02:05:18 5.7 C 31 %
2750 30-01-2020 02:15:18 5.8 C 31 %
Sensor: Nr:Datum:Temp:Feuchte:
Aussen-T/F 2751 30-01-2020 02:25:18 5.6 C 31 %
2752 30-01-2020 02:35:17 5.6 C 31 %
2753 30-01-2020 02:45:17 5.3 C 31 %
2754 30-01-2020 02:55:17 5.1 C 32 %
2755 30-01-2020 03:05:17 5.4 C 32 %
2756 30-01-2020 03:15:17 5.4 C 32 %
2757 30-01-2020 03:25:17 5.8 C 31 %
2758 30-01-2020 03:35:18 5.9 C 31 %
2759 30-01-2020 03:45:17 6 C 30 %
2760 30-01-2020 03:55:17 6 C 30 %
2761 30-01-2020 04:05:18 6 C 31 %
2762 30-01-2020 04:15:17 5.3 C 31 %
2763 30-01-2020 04:25:17 5.5 C 31 %
2764 30-01-2020 04:35:18 5.5 C 31 %
2765 30-01-2020 04:45:18 5 C 32 %
2766 30-01-2020 04:55:18 4.7 C 33 %
2767 30-01-2020 05:05:18 5 C 33 %
2768 30-01-2020 05:15:17 4.8 C 34 %
2769 30-01-2020 05:25:17 5.1 C 32 %
2770 30-01-2020 05:35:17 5 C 33 %
2771 30-01-2020 05:45:17 4.8 C 33 %
2772 30-01-2020 05:55:17 5.1 C 32 %
2773 30-01-2020 06:05:18 4.9 C 33 %
2774 30-01-2020 06:15:17 5.1 C 32 %
2775 30-01-2020 06:25:17 5 C 32 %
Sensor: Nr:Datum:Temp:Feuchte:
Aussen-T/F 2776 30-01-2020 06:35:17 5 C 32 %
2777 30-01-2020 06:45:17 4.9 C 32 %
2778 30-01-2020 06:55:17 5 C 31 %
2779 30-01-2020 07:05:17 4.9 C 32 %
2780 30-01-2020 07:15:17 5.2 C 31 %
2781 30-01-2020 07:25:17 5.3 C 31 %
2782 30-01-2020 07:35:17 4.8 C 32 %
2783 30-01-2020 07:45:17 4.4 C 32 %
2784 30-01-2020 07:55:17 4.4 C 33 %
2785 30-01-2020 08:05:18 4.5 C 33 %
2786 30-01-2020 08:15:17 4.3 C 34 %
2787 30-01-2020 08:25:17 4.3 C 35 %
2788 30-01-2020 08:35:18 4.5 C 35 %
2789 30-01-2020 08:45:17 5 C 33 %
2790 30-01-2020 08:55:18 5.2 C 32 %
2791 30-01-2020 09:05:18 5.4 C 32 %
2792 30-01-2020 09:15:17 5.4 C 32 %
2793 30-01-2020 09:25:17 5.3 C 32 %
2794 30-01-2020 09:35:17 5.6 C 32 %
2795 30-01-2020 09:45:17 5.5 C 32 %
2796 30-01-2020 09:55:17 6.3 C 30 %
2797 30-01-2020 10:05:17 6.4 C 30 %
2798 30-01-2020 10:15:17 6.7 C 30 %
2799 30-01-2020 10:25:17 7 C 29 %
2800 30-01-2020 10:35:17 6.8 C 30 %
Sensor: Nr:Datum:Temp:Feuchte:
Aussen-T/F 2801 30-01-2020 10:45:17 6.8 C 30 %
2802 30-01-2020 10:55:17 7 C 30 %
2803 30-01-2020 11:05:18 7.1 C 30 %
2804 30-01-2020 11:15:17 7.4 C 30 %
2805 30-01-2020 11:25:17 7.5 C 30 %
2806 30-01-2020 11:35:17 7.9 C 30 %
2807 30-01-2020 11:45:17 8.2 C 29 %
2808 30-01-2020 11:55:17 8.1 C 29 %
2809 30-01-2020 12:05:17 8.1 C 29 %
2810 30-01-2020 12:15:17 8 C 29 %
2811 30-01-2020 12:25:17 8.1 C 29 %
2812 30-01-2020 12:35:17 8.6 C 29 %
2813 30-01-2020 12:45:17 8.8 C 28 %
2814 30-01-2020 12:55:17 8.9 C 28 %
2815 30-01-2020 13:05:17 9.2 C 27 %
2816 30-01-2020 13:15:17 9.4 C 26 %
2817 30-01-2020 13:25:17 9.7 C 25 %
2818 30-01-2020 13:35:18 9.7 C 25 %
2819 30-01-2020 13:45:18 10 C 23 %
2820 30-01-2020 13:55:18 10.3 C 23 %
2821 30-01-2020 14:05:17 10.5 C 23 %
2822 30-01-2020 14:15:17 10.6 C 22 %
2823 30-01-2020 14:25:17 10.5 C 20 %
2824 30-01-2020 14:35:17 10.5 C 20 %
2825 30-01-2020 14:45:17 10.7 C 20 %
Sensor: Nr:Datum:Temp:Feuchte:
Aussen-T/F 2826 30-01-2020 14:55:17 10.9 C 20 %
2827 30-01-2020 15:05:17 10.8 C 20 %
2828 30-01-2020 15:15:17 10.6 C 20 %
2829 30-01-2020 15:25:17 10.5 C 20 %
2830 30-01-2020 15:35:17 10.6 C 20 %
2831 30-01-2020 15:45:17 10.3 C 20 %
2832 30-01-2020 15:55:17 10.2 C 20 %
2833 30-01-2020 16:05:17 10 C 20 %
2834 30-01-2020 16:15:18 9.4 C 21 %
2835 30-01-2020 16:25:18 9.1 C 21 %
2836 30-01-2020 16:35:18 9.1 C 23 %
2837 30-01-2020 16:45:18 8.9 C 25 %
2838 30-01-2020 16:55:18 8.6 C 25 %
2839 30-01-2020 17:05:18 9.1 C 25 %
2840 30-01-2020 17:15:17 8.9 C 26 %
2841 30-01-2020 17:25:17 8.9 C 26 %
2842 30-01-2020 17:35:18 9 C 26 %
2843 30-01-2020 17:45:18 9 C 26 %
2844 30-01-2020 17:55:18 9.1 C 26 %
2845 30-01-2020 18:05:18 9.2 C 26 %
2846 30-01-2020 18:15:17 9.1 C 26 %
2847 30-01-2020 18:25:17 9.1 C 27 %
2848 30-01-2020 18:35:17 9.1 C 27 %
2849 30-01-2020 18:45:17 9 C 28 %
2850 30-01-2020 18:55:17 8.3 C 31 %
Sensor: Nr:Datum:Temp:Feuchte:
Aussen-T/F 2851 30-01-2020 19:05:17 8.2 C 34 %
2852 30-01-2020 19:15:17 8 C 35 %
2853 30-01-2020 19:25:17 8.2 C 35 %
2854 30-01-2020 19:35:18 8.5 C 35 %
2855 30-01-2020 19:45:18 8.9 C 33 %
2856 30-01-2020 19:55:18 9 C 32 %
2857 30-01-2020 20:05:18 9.2 C 32 %
2858 30-01-2020 20:15:17 9.2 C 32 %
2859 30-01-2020 20:25:17 9.2 C 32 %
2860 30-01-2020 20:35:17 9.3 C 32 %
2861 30-01-2020 20:45:17 9.3 C 32 %
2862 30-01-2020 20:55:17 9.6 C 32 %
2863 30-01-2020 21:05:17 9.6 C 32 %
2864 30-01-2020 21:15:17 9.6 C 32 %
2865 30-01-2020 21:25:17 9.6 C 32 %
2866 30-01-2020 21:35:17 9.8 C 32 %
2867 30-01-2020 21:45:17 9.8 C 32 %
2868 30-01-2020 21:55:17 10 C 32 %
2869 30-01-2020 22:05:17 10.1 C 32 %
2870 30-01-2020 22:15:17 10.2 C 32 %
2871 30-01-2020 22:25:17 10.2 C 32 %
2872 30-01-2020 22:35:18 10.1 C 32 %
2873 30-01-2020 22:45:17 10.1 C 32 %
2874 30-01-2020 22:55:17 10.4 C 32 %
2875 30-01-2020 23:05:17 10.4 C 32 %
Sensor: Nr:Datum:Temp:Feuchte:
Aussen-T/F 2876 30-01-2020 23:15:17 10.5 C 33 %
2877 30-01-2020 23:25:17 10.7 C 33 %
2878 30-01-2020 23:35:18 10.8 C 33 %
2879 30-01-2020 23:45:18 11.1 C 32 %
2880 30-01-2020 23:55:18 11 C 32 %
2881 31-01-2020 00:05:17 11.2 C 32 %
2882 31-01-2020 00:15:17 11.6 C 32 %
2883 31-01-2020 00:25:17 11.5 C 32 %
2884 31-01-2020 00:35:17 11.7 C 32 %
2885 31-01-2020 00:45:17 11.9 C 32 %
2886 31-01-2020 00:55:17 12 C 31 %
2887 31-01-2020 01:05:17 12.1 C 31 %
2888 31-01-2020 01:15:17 12.2 C 31 %
2889 31-01-2020 01:25:17 12.6 C 31 %
2890 31-01-2020 01:35:18 12.8 C 31 %
2891 31-01-2020 01:45:17 12.9 C 31 %
2892 31-01-2020 01:55:18 12.8 C 31 %
2893 31-01-2020 02:05:18 13 C 30 %
2894 31-01-2020 02:15:17 13.1 C 30 %
2895 31-01-2020 02:25:17 12.9 C 31 %
2896 31-01-2020 02:35:17 13.1 C 30 %
2897 31-01-2020 02:45:18 12.9 C 30 %
2898 31-01-2020 02:55:18 12.8 C 30 %
2899 31-01-2020 03:05:18 13 C 30 %
2900 31-01-2020 03:15:17 13 C 30 %
Sensor: Nr:Datum:Temp:Feuchte:
Aussen-T/F 2901 31-01-2020 03:25:17 12.9 C 31 %
2902 31-01-2020 03:35:17 12.9 C 31 %
2903 31-01-2020 03:45:17 12.9 C 31 %
2904 31-01-2020 03:55:17 12.8 C 31 %
2905 31-01-2020 04:05:17 12.9 C 31 %
2906 31-01-2020 04:15:17 12.8 C 31 %
2907 31-01-2020 04:25:17 12.7 C 31 %
2908 31-01-2020 04:35:17 12.8 C 31 %
2909 31-01-2020 04:45:17 12.7 C 31 %
2910 31-01-2020 04:55:17 12.7 C 31 %
2911 31-01-2020 05:05:18 12.8 C 31 %
2912 31-01-2020 05:15:17 12.7 C 31 %
2913 31-01-2020 05:25:17 12.6 C 31 %
2914 31-01-2020 05:35:17 12.7 C 31 %
2915 31-01-2020 05:45:18 12.7 C 31 %
2916 31-01-2020 05:55:18 12.5 C 31 %
2917 31-01-2020 06:05:17 12.7 C 30 %
2918 31-01-2020 06:15:17 12.8 C 30 %
2919 31-01-2020 06:25:17 12.4 C 30 %
2920 31-01-2020 06:35:18 12.4 C 31 %
2921 31-01-2020 06:45:17 12.3 C 31 %
2922 31-01-2020 06:55:17 12.4 C 31 %
2923 31-01-2020 07:05:18 12.3 C 31 %
2924 31-01-2020 07:15:18 12.2 C 31 %
2925 31-01-2020 07:25:18 12.1 C 31 %
Sensor: Nr:Datum:Temp:Feuchte:
Aussen-T/F 2926 31-01-2020 07:35:17 12.3 C 31 %
2927 31-01-2020 07:45:18 12.4 C 30 %
2928 31-01-2020 07:55:18 12.5 C 30 %
2929 31-01-2020 08:05:18 12.3 C 30 %
2930 31-01-2020 08:15:17 12.4 C 30 %
2931 31-01-2020 08:25:17 12.5 C 30 %
2932 31-01-2020 08:35:17 12.5 C 30 %
2933 31-01-2020 08:45:17 12.7 C 30 %
2934 31-01-2020 08:55:17 12.7 C 30 %
2935 31-01-2020 09:05:18 12.8 C 30 %
2936 31-01-2020 09:15:18 12.9 C 29 %
2937 31-01-2020 09:25:18 13 C 28 %
2938 31-01-2020 09:35:17 13.1 C 28 %
2939 31-01-2020 09:45:17 13.2 C 28 %
2940 31-01-2020 09:55:17 13.3 C 27 %
2941 31-01-2020 10:05:17 13.2 C 27 %
2942 31-01-2020 10:15:17 13.3 C 27 %
2943 31-01-2020 10:25:17 13.5 C 27 %
2944 31-01-2020 10:35:18 13.5 C 27 %
2945 31-01-2020 10:45:18 13.4 C 27 %
2946 31-01-2020 10:55:18 13.5 C 26 %
2947 31-01-2020 11:05:17 13.7 C 26 %
2948 31-01-2020 11:15:18 13.7 C 26 %
2949 31-01-2020 11:25:18 13.8 C 26 %
2950 31-01-2020 11:35:18 13.8 C 26 %
Sensor: Nr:Datum:Temp:Feuchte:
Aussen-T/F 2951 31-01-2020 11:45:18 13.8 C 26 %
2952 31-01-2020 11:55:18 13.6 C 25 %
2953 31-01-2020 12:05:17 13.4 C 25 %
2954 31-01-2020 12:15:17 13.5 C 25 %
2955 31-01-2020 12:25:17 13.5 C 25 %
2956 31-01-2020 12:35:17 13.7 C 25 %
2957 31-01-2020 12:45:17 14.1 C 25 %
2958 31-01-2020 12:55:17 14.2 C 25 %
2959 31-01-2020 13:05:17 14.4 C 25 %
2960 31-01-2020 13:15:18 14.4 C 24 %
2961 31-01-2020 13:25:18 14.6 C 23 %
2962 31-01-2020 13:35:17 14.8 C 23 %
2963 31-01-2020 13:45:17 14.7 C 23 %
2964 31-01-2020 13:55:17 14.4 C 23 %
2965 31-01-2020 14:05:18 14.6 C 23 %
2966 31-01-2020 14:15:18 14.4 C 23 %
2967 31-01-2020 14:25:18 14.3 C 23 %
2968 31-01-2020 14:35:17 14.3 C 23 %
2969 31-01-2020 14:45:17 14.2 C 24 %
2970 31-01-2020 14:55:17 14.2 C 24 %
2971 31-01-2020 15:05:17 13.8 C 25 %
2972 31-01-2020 15:15:18 13.7 C 25 %
2973 31-01-2020 15:25:18 13.7 C 25 %
2974 31-01-2020 15:35:18 13.6 C 25 %
2975 31-01-2020 15:45:18 13.4 C 25 %
Sensor: Nr:Datum:Temp:Feuchte:
Aussen-T/F 2976 31-01-2020 15:55:18 13.2 C 25 %
2977 31-01-2020 16:05:17 13 C 25 %
2978 31-01-2020 16:15:17 12.9 C 26 %
2979 31-01-2020 16:25:17 12.9 C 25 %
2980 31-01-2020 16:35:17 12.7 C 26 %
2981 31-01-2020 16:45:17 12.3 C 26 %
2982 31-01-2020 16:55:17 12.8 C 26 %
2983 31-01-2020 17:05:18 12.5 C 26 %
2984 31-01-2020 17:15:18 12.3 C 26 %
2985 31-01-2020 17:25:18 12 C 26 %
2986 31-01-2020 17:35:18 12.1 C 26 %
2987 31-01-2020 17:45:18 12.1 C 26 %
2988 31-01-2020 17:55:18 11.7 C 27 %
2989 31-01-2020 18:05:17 12.1 C 26 %
2990 31-01-2020 18:15:17 12 C 26 %
2991 31-01-2020 18:25:17 12 C 27 %
2992 31-01-2020 18:35:17 12.2 C 27 %
2993 31-01-2020 18:45:17 12.4 C 27 %
2994 31-01-2020 18:55:17 12.4 C 27 %
2995 31-01-2020 19:05:17 12.5 C 27 %
2996 31-01-2020 19:15:17 12.4 C 27 %
2997 31-01-2020 19:25:17 12.6 C 27 %
2998 31-01-2020 19:35:18 12.6 C 27 %
2999 31-01-2020 19:45:17 12.6 C 27 %
3000 31-01-2020 19:55:17 12.5 C 27 %
Sensor: Nr:Datum:Temp:Feuchte:
Aussen-T/F 3001 31-01-2020 20:05:18 12.4 C 27 %
3002 31-01-2020 20:15:18 12.4 C 28 %
3003 31-01-2020 20:25:18 12.4 C 28 %
3004 31-01-2020 20:35:18 12.2 C 27 %
3005 31-01-2020 20:45:17 12.4 C 27 %
3006 31-01-2020 20:55:18 12 C 28 %
3007 31-01-2020 21:05:18 12.1 C 28 %
3008 31-01-2020 21:16:17 12.1 C 28 %
3009 31-01-2020 21:26:17 12.2 C 29 %
3010 31-01-2020 21:35:17 12.5 C 28 %
3011 31-01-2020 21:46:17 12.5 C 28 %
3012 31-01-2020 21:55:17 12.5 C 28 %
3013 31-01-2020 22:06:17 12.7 C 28 %
3014 31-01-2020 22:16:17 12.8 C 27 %
3015 31-01-2020 22:26:17 12.7 C 27 %
3016 31-01-2020 22:35:17 12.7 C 27 %
3017 31-01-2020 22:45:18 12.6 C 27 %
3018 31-01-2020 22:55:18 12.6 C 27 %
3019 31-01-2020 23:05:17 12.6 C 27 %
3020 31-01-2020 23:15:17 12.6 C 27 %
3021 31-01-2020 23:25:17 12.6 C 27 %
3022 31-01-2020 23:35:18 12.5 C 27 %
3023 31-01-2020 23:45:18 12.6 C 27 %
3024 31-01-2020 23:55:18 12.5 C 27 %
Sensor: Nr:Datum:Temp:Feuchte:
G-T/H 1 11-01-2020 00:04:17 10.8 C 75 %
2 11-01-2020 00:14:17 10.8 C 75 %
3 11-01-2020 00:24:17 10.8 C 75 %
4 11-01-2020 00:34:18 10.7 C 75 %
5 11-01-2020 00:44:18 10.7 C 75 %
6 11-01-2020 00:54:17 10.8 C 75 %
7 11-01-2020 01:04:18 10.7 C 75 %
8 11-01-2020 01:14:18 10.7 C 75 %
9 11-01-2020 01:24:17 10.7 C 74 %
10 11-01-2020 01:34:17 10.7 C 74 %
11 11-01-2020 01:44:17 10.7 C 74 %
12 11-01-2020 01:54:17 10.7 C 74 %
13 11-01-2020 02:04:17 10.7 C 74 %
14 11-01-2020 02:14:17 10.6 C 74 %
15 11-01-2020 02:24:17 10.6 C 74 %
16 11-01-2020 02:34:18 10.6 C 74 %
17 11-01-2020 02:44:18 10.6 C 74 %
18 11-01-2020 02:54:17 10.6 C 74 %
19 11-01-2020 03:04:18 10.6 C 74 %
20 11-01-2020 03:14:18 10.6 C 74 %
21 11-01-2020 03:24:17 10.5 C 74 %
22 11-01-2020 03:34:17 10.5 C 74 %
23 11-01-2020 03:44:17 10.5 C 74 %
24 11-01-2020 03:54:17 10.5 C 74 %
25 11-01-2020 04:04:17 10.5 C 74 %
Sensor: Nr:Datum:Temp:Feuchte:
G-T/H 26 11-01-2020 04:14:17 10.5 C 74 %
27 11-01-2020 04:24:17 10.5 C 74 %
28 11-01-2020 04:34:18 10.4 C 73 %
29 11-01-2020 04:44:18 10.4 C 73 %
30 11-01-2020 04:54:17 10.4 C 73 %
31 11-01-2020 05:04:18 10.4 C 73 %
32 11-01-2020 05:14:18 10.4 C 73 %
33 11-01-2020 05:24:17 10.3 C 73 %
34 11-01-2020 05:34:17 10.3 C 73 %
35 11-01-2020 05:44:17 10.3 C 73 %
36 11-01-2020 05:54:17 10.3 C 72 %
37 11-01-2020 06:04:17 10.2 C 72 %
38 11-01-2020 06:14:17 10.2 C 72 %
39 11-01-2020 06:24:17 10.2 C 72 %
40 11-01-2020 06:34:17 10.2 C 72 %
41 11-01-2020 06:44:18 10.2 C 72 %
42 11-01-2020 06:54:17 10.1 C 72 %
43 11-01-2020 07:04:17 10.1 C 72 %
44 11-01-2020 07:14:17 10.1 C 72 %
45 11-01-2020 07:24:17 10.1 C 72 %
46 11-01-2020 07:34:17 10.1 C 72 %
47 11-01-2020 07:44:18 10.1 C 71 %
48 11-01-2020 07:54:17 10.1 C 71 %
49 11-01-2020 08:04:17 10 C 71 %
50 11-01-2020 08:14:17 10 C 71 %
Sensor: Nr:Datum:Temp:Feuchte:
G-T/H 51 11-01-2020 08:24:17 10 C 71 %
52 11-01-2020 08:34:17 10 C 71 %
53 11-01-2020 08:44:18 10 C 71 %
54 11-01-2020 08:54:17 10 C 71 %
55 11-01-2020 09:04:17 10 C 71 %
56 11-01-2020 09:14:17 10 C 71 %
57 11-01-2020 09:24:17 10 C 71 %
58 11-01-2020 09:34:17 10 C 71 %
59 11-01-2020 09:44:17 9.9 C 73 %
60 11-01-2020 09:54:18 9.9 C 73 %
61 11-01-2020 10:04:18 9.9 C 73 %
62 11-01-2020 10:14:18 9.9 C 73 %
63 11-01-2020 10:24:17 9.9 C 73 %
64 11-01-2020 10:34:17 9.9 C 73 %
65 11-01-2020 10:44:17 9.9 C 73 %
66 11-01-2020 10:54:18 9.9 C 73 %
67 11-01-2020 11:04:17 9.9 C 73 %
68 11-01-2020 11:14:17 9.9 C 73 %
69 11-01-2020 11:24:17 9.9 C 73 %
70 11-01-2020 11:34:18 9.9 C 73 %
71 11-01-2020 11:44:18 9.9 C 73 %
72 11-01-2020 11:54:17 10 C 72 %
73 11-01-2020 12:04:17 10 C 72 %
74 11-01-2020 12:14:17 10 C 72 %
75 11-01-2020 12:24:17 10 C 72 %
Sensor: Nr:Datum:Temp:Feuchte:
G-T/H 76 11-01-2020 12:34:18 10 C 72 %
77 11-01-2020 12:44:18 10 C 72 %
78 11-01-2020 12:54:17 9.9 C 73 %
79 11-01-2020 13:04:17 10 C 72 %
80 11-01-2020 13:14:17 9.9 C 73 %
81 11-01-2020 13:24:18 9.9 C 73 %
82 11-01-2020 13:34:17 9.9 C 73 %
83 11-01-2020 13:44:17 9.9 C 73 %
84 11-01-2020 13:54:17 9.9 C 73 %
85 11-01-2020 14:04:17 9.9 C 73 %
86 11-01-2020 14:14:18 9.9 C 73 %
87 11-01-2020 14:24:17 9.9 C 73 %
88 11-01-2020 14:34:18 9.9 C 74 %
89 11-01-2020 14:44:18 9.9 C 74 %
90 11-01-2020 14:54:17 9.9 C 74 %
91 11-01-2020 15:04:17 9.9 C 74 %
92 11-01-2020 15:14:17 9.9 C 74 %
93 11-01-2020 15:24:18 9.9 C 74 %
94 11-01-2020 15:34:17 9.8 C 74 %
95 11-01-2020 15:44:17 9.9 C 74 %
96 11-01-2020 15:54:17 9.9 C 74 %
97 11-01-2020 16:04:18 9.9 C 74 %
98 11-01-2020 16:14:18 9.8 C 74 %
99 11-01-2020 16:24:17 9.8 C 74 %
100 11-01-2020 16:34:41 9.8 C 74 %
Sensor: Nr:Datum:Temp:Feuchte:
G-T/H 101 11-01-2020 16:44:41 9.8 C 74 %
102 11-01-2020 16:54:17 9.9 C 74 %
103 11-01-2020 17:04:18 9.9 C 74 %
104 11-01-2020 17:14:18 9.8 C 74 %
105 11-01-2020 17:24:17 9.9 C 74 %
106 11-01-2020 17:34:18 9.8 C 74 %
107 11-01-2020 17:44:18 9.8 C 74 %
108 11-01-2020 17:54:17 9.8 C 74 %
109 11-01-2020 18:04:17 9.8 C 74 %
110 11-01-2020 18:14:17 9.8 C 74 %
111 11-01-2020 18:24:17 9.8 C 74 %
112 11-01-2020 18:34:17 9.8 C 74 %
113 11-01-2020 18:44:17 9.8 C 74 %
114 11-01-2020 18:54:17 9.8 C 74 %
115 11-01-2020 19:04:17 9.8 C 74 %
116 11-01-2020 19:14:17 9.8 C 74 %
117 11-01-2020 19:24:17 9.8 C 74 %
118 11-01-2020 19:34:17 9.8 C 74 %
119 11-01-2020 19:44:17 9.8 C 74 %
120 11-01-2020 19:54:17 9.8 C 74 %
121 11-01-2020 20:04:17 9.7 C 74 %
122 11-01-2020 20:14:18 9.8 C 74 %
123 11-01-2020 20:24:17 9.7 C 74 %
124 11-01-2020 20:34:17 9.7 C 73 %
125 11-01-2020 20:44:17 9.7 C 73 %
Sensor: Nr:Datum:Temp:Feuchte:
G-T/H 126 11-01-2020 20:54:17 9.7 C 73 %
127 11-01-2020 21:04:17 9.7 C 73 %
128 11-01-2020 21:14:17 9.7 C 73 %
129 11-01-2020 21:24:17 9.7 C 73 %
130 11-01-2020 21:34:17 9.7 C 73 %
131 11-01-2020 21:44:17 9.7 C 73 %
132 11-01-2020 21:54:17 9.7 C 73 %
133 11-01-2020 22:04:17 9.6 C 73 %
134 11-01-2020 22:14:18 9.6 C 73 %
135 11-01-2020 22:24:17 9.6 C 73 %
136 11-01-2020 22:34:17 9.6 C 73 %
137 11-01-2020 22:44:17 9.6 C 73 %
138 11-01-2020 22:54:17 9.6 C 73 %
139 11-01-2020 23:04:17 9.6 C 73 %
140 11-01-2020 23:14:17 9.6 C 73 %
141 11-01-2020 23:24:17 9.6 C 73 %
142 11-01-2020 23:34:17 9.5 C 73 %
143 11-01-2020 23:44:17 9.5 C 73 %
144 11-01-2020 23:54:17 9.5 C 73 %
145 12-01-2020 00:04:17 9.5 C 73 %
146 12-01-2020 00:14:17 9.5 C 73 %
147 12-01-2020 00:24:17 9.5 C 73 %
148 12-01-2020 00:34:17 9.5 C 73 %
149 12-01-2020 00:44:17 9.5 C 73 %
150 12-01-2020 00:54:17 9.5 C 72 %
Sensor: Nr:Datum:Temp:Feuchte:
G-T/H 151 12-01-2020 01:04:17 9.4 C 72 %
152 12-01-2020 01:14:17 9.4 C 72 %
153 12-01-2020 01:24:17 9.4 C 72 %
154 12-01-2020 01:34:17 9.4 C 72 %
155 12-01-2020 01:44:17 9.4 C 72 %
156 12-01-2020 01:54:17 9.3 C 72 %
157 12-01-2020 02:04:17 9.3 C 72 %
158 12-01-2020 02:14:17 9.3 C 72 %
159 12-01-2020 02:24:17 9.3 C 72 %
160 12-01-2020 02:34:17 9.3 C 72 %
161 12-01-2020 02:44:17 9.3 C 72 %
162 12-01-2020 02:54:17 9.3 C 72 %
163 12-01-2020 03:04:17 9.3 C 72 %
164 12-01-2020 03:14:17 9.3 C 72 %
165 12-01-2020 03:24:17 9.3 C 72 %
166 12-01-2020 03:34:17 9.2 C 72 %
167 12-01-2020 03:44:17 9.2 C 72 %
168 12-01-2020 03:54:17 9.2 C 72 %
169 12-01-2020 04:04:17 9.2 C 72 %
170 12-01-2020 04:14:17 9.2 C 72 %
171 12-01-2020 04:24:17 9.2 C 72 %
172 12-01-2020 04:34:17 9.2 C 72 %
173 12-01-2020 04:44:17 9.2 C 72 %
174 12-01-2020 04:54:17 9.1 C 72 %
175 12-01-2020 05:04:17 9.2 C 72 %
Sensor: Nr:Datum:Temp:Feuchte:
G-T/H 176 12-01-2020 05:14:18 9.2 C 72 %
177 12-01-2020 05:24:17 9.1 C 72 %
178 12-01-2020 05:34:17 9.1 C 72 %
179 12-01-2020 05:44:17 9.1 C 72 %
180 12-01-2020 05:54:17 9.1 C 72 %
181 12-01-2020 06:04:18 9.1 C 72 %
182 12-01-2020 06:14:18 9.1 C 72 %
183 12-01-2020 06:24:17 9.1 C 72 %
184 12-01-2020 06:34:17 9.1 C 72 %
185 12-01-2020 06:44:17 9.1 C 72 %
186 12-01-2020 06:54:17 9.1 C 72 %
187 12-01-2020 07:04:17 9.1 C 72 %
188 12-01-2020 07:14:17 9.1 C 72 %
189 12-01-2020 07:24:17 9 C 72 %
190 12-01-2020 07:34:17 9.1 C 72 %
191 12-01-2020 07:44:17 9.1 C 72 %
192 12-01-2020 07:54:17 9 C 72 %
193 12-01-2020 08:04:18 9 C 72 %
194 12-01-2020 08:14:18 9 C 72 %
195 12-01-2020 08:24:17 9 C 72 %
196 12-01-2020 08:34:17 9 C 72 %
197 12-01-2020 08:44:17 9 C 72 %
198 12-01-2020 08:54:17 9 C 72 %
199 12-01-2020 09:04:17 9 C 72 %
200 12-01-2020 09:14:17 9 C 72 %
Sensor: Nr:Datum:Temp:Feuchte:
G-T/H 201 12-01-2020 09:24:17 9 C 72 %
202 12-01-2020 09:34:17 9 C 72 %
203 12-01-2020 09:44:17 9 C 72 %
204 12-01-2020 09:54:17 9 C 72 %
205 12-01-2020 10:04:17 9 C 72 %
206 12-01-2020 10:14:17 9 C 72 %
207 12-01-2020 10:24:17 9 C 72 %
208 12-01-2020 10:34:18 9 C 72 %
209 12-01-2020 10:44:18 9 C 72 %
210 12-01-2020 10:54:17 9 C 73 %
211 12-01-2020 11:04:17 9 C 73 %
212 12-01-2020 11:14:17 9 C 73 %
213 12-01-2020 11:24:18 9 C 73 %
214 12-01-2020 11:34:17 9 C 73 %
215 12-01-2020 11:44:17 9 C 73 %
216 12-01-2020 11:54:17 9 C 73 %
217 12-01-2020 12:04:18 9 C 73 %
218 12-01-2020 12:14:18 9 C 73 %
219 12-01-2020 12:24:17 9 C 73 %
220 12-01-2020 12:34:17 9 C 73 %
221 12-01-2020 12:44:17 9 C 73 %
222 12-01-2020 12:54:17 9 C 73 %
223 12-01-2020 13:04:18 9 C 73 %
224 12-01-2020 13:14:18 9 C 73 %
225 12-01-2020 13:24:17 9 C 73 %
Sensor: Nr:Datum:Temp:Feuchte:
G-T/H 226 12-01-2020 13:34:17 9 C 73 %
227 12-01-2020 13:44:17 9 C 73 %
228 12-01-2020 13:54:18 9 C 73 %
229 12-01-2020 14:04:17 9.1 C 73 %
230 12-01-2020 14:14:17 9.1 C 73 %
231 12-01-2020 14:24:17 9.1 C 73 %
232 12-01-2020 14:34:18 9.1 C 73 %
233 12-01-2020 14:44:18 9.1 C 73 %
234 12-01-2020 14:54:17 9.1 C 73 %
235 12-01-2020 15:04:17 9.1 C 73 %
236 12-01-2020 15:14:17 9.1 C 73 %
237 12-01-2020 15:24:18 9.1 C 73 %
238 12-01-2020 15:34:17 9.1 C 73 %
239 12-01-2020 15:44:17 9.1 C 73 %
240 12-01-2020 15:54:17 9.1 C 73 %
241 12-01-2020 16:04:18 9.1 C 73 %
242 12-01-2020 16:14:18 9.1 C 73 %
243 12-01-2020 16:24:18 9.1 C 73 %
244 12-01-2020 16:34:17 9.1 C 74 %
245 12-01-2020 16:44:17 9.1 C 74 %
246 12-01-2020 16:54:17 9.1 C 74 %
247 12-01-2020 17:04:18 9.1 C 74 %
248 12-01-2020 17:14:18 9.1 C 74 %
249 12-01-2020 17:24:17 9.1 C 74 %
250 12-01-2020 17:34:17 9.2 C 74 %
Sensor: Nr:Datum:Temp:Feuchte:
G-T/H 251 12-01-2020 17:44:17 9.2 C 74 %
252 12-01-2020 17:54:18 9.2 C 74 %
253 12-01-2020 18:04:18 9.2 C 74 %
254 12-01-2020 18:14:18 9.2 C 74 %
255 12-01-2020 18:24:17 9.2 C 74 %
256 12-01-2020 18:34:17 9.2 C 74 %
257 12-01-2020 18:44:17 9.2 C 74 %
258 12-01-2020 18:54:18 9.2 C 74 %
259 12-01-2020 19:04:17 9.2 C 74 %
260 12-01-2020 19:14:17 9.2 C 74 %
261 12-01-2020 19:24:17 9.2 C 74 %
262 12-01-2020 19:34:18 9.2 C 74 %
263 12-01-2020 19:44:18 9.2 C 74 %
264 12-01-2020 19:54:17 9.2 C 74 %
265 12-01-2020 20:04:18 9.2 C 74 %
266 12-01-2020 20:14:18 9.2 C 74 %
267 12-01-2020 20:24:17 9.2 C 74 %
268 12-01-2020 20:34:17 9.2 C 74 %
269 12-01-2020 20:44:17 9.2 C 74 %
270 12-01-2020 20:54:17 9.2 C 74 %
271 12-01-2020 21:04:17 9.2 C 74 %
272 12-01-2020 21:14:17 9.2 C 74 %
273 12-01-2020 21:24:17 9.2 C 74 %
274 12-01-2020 21:34:18 9.2 C 74 %
275 12-01-2020 21:44:18 9.2 C 74 %
Sensor: Nr:Datum:Temp:Feuchte:
G-T/H 276 12-01-2020 21:54:17 9.2 C 74 %
277 12-01-2020 22:04:18 9.2 C 74 %
278 12-01-2020 22:14:18 9.2 C 74 %
279 12-01-2020 22:24:17 9.2 C 74 %
280 12-01-2020 22:34:17 9.2 C 74 %
281 12-01-2020 22:44:17 9.2 C 74 %
282 12-01-2020 22:54:17 9.2 C 74 %
283 12-01-2020 23:04:17 9.2 C 74 %
284 12-01-2020 23:14:17 9.2 C 74 %
285 12-01-2020 23:24:17 9.2 C 74 %
286 12-01-2020 23:34:18 9.2 C 74 %
287 12-01-2020 23:44:18 9.2 C 74 %
288 12-01-2020 23:54:17 9.2 C 74 %
289 13-01-2020 00:04:18 9.2 C 74 %
290 13-01-2020 00:14:18 9.2 C 74 %
291 13-01-2020 00:24:17 9.2 C 74 %
292 13-01-2020 00:34:17 9.2 C 74 %
293 13-01-2020 00:44:17 9.2 C 74 %
294 13-01-2020 00:54:18 9.2 C 74 %
295 13-01-2020 01:04:17 9.2 C 74 %
296 13-01-2020 01:14:17 9.2 C 74 %
297 13-01-2020 01:24:17 9.3 C 74 %
298 13-01-2020 01:34:18 9.3 C 74 %
299 13-01-2020 01:44:18 9.3 C 74 %
300 13-01-2020 01:54:17 9.3 C 74 %
Sensor: Nr:Datum:Temp:Feuchte:
G-T/H 301 13-01-2020 02:04:17 9.3 C 74 %
302 13-01-2020 02:14:17 9.2 C 74 %
303 13-01-2020 02:24:18 9.3 C 74 %
304 13-01-2020 02:34:17 9.3 C 74 %
305 13-01-2020 02:44:17 9.3 C 74 %
306 13-01-2020 02:54:17 9.3 C 74 %
307 13-01-2020 03:04:18 9.3 C 74 %
308 13-01-2020 03:14:18 9.3 C 74 %
309 13-01-2020 03:24:17 9.2 C 74 %
310 13-01-2020 03:34:17 9.2 C 74 %
311 13-01-2020 03:44:17 9.3 C 74 %
312 13-01-2020 03:54:17 9.2 C 74 %
313 13-01-2020 04:04:17 9.2 C 74 %
314 13-01-2020 04:14:17 9.3 C 74 %
315 13-01-2020 04:24:17 9.3 C 74 %
316 13-01-2020 04:34:18 9.2 C 74 %
317 13-01-2020 04:44:18 9.2 C 74 %
318 13-01-2020 04:54:17 9.2 C 74 %
319 13-01-2020 05:04:18 9.2 C 74 %
320 13-01-2020 05:14:18 9.2 C 74 %
321 13-01-2020 05:24:18 9.2 C 74 %
322 13-01-2020 05:34:17 9.2 C 74 %
323 13-01-2020 05:44:17 9.2 C 74 %
324 13-01-2020 05:54:17 9.2 C 74 %
325 13-01-2020 06:04:17 9.2 C 74 %
Sensor: Nr:Datum:Temp:Feuchte:
G-T/H 326 13-01-2020 06:14:17 9.2 C 74 %
327 13-01-2020 06:24:17 9.2 C 74 %
328 13-01-2020 06:34:17 9.2 C 74 %
329 13-01-2020 06:44:17 9.2 C 74 %
330 13-01-2020 06:54:17 9.2 C 74 %
331 13-01-2020 07:04:17 9.3 C 74 %
332 13-01-2020 07:14:17 9.2 C 74 %
333 13-01-2020 07:24:18 9.2 C 74 %
334 13-01-2020 07:34:17 9.2 C 74 %
335 13-01-2020 07:44:17 9.2 C 74 %
336 13-01-2020 07:54:17 9.2 C 74 %
337 13-01-2020 08:04:18 9.2 C 74 %
338 13-01-2020 08:14:18 9.2 C 74 %
339 13-01-2020 08:24:17 9.2 C 74 %
340 13-01-2020 08:34:17 9.2 C 74 %
341 13-01-2020 08:44:17 9.2 C 74 %
342 13-01-2020 08:54:17 9.2 C 74 %
343 13-01-2020 09:04:17 9.2 C 74 %
344 13-01-2020 09:14:17 9.2 C 74 %
345 13-01-2020 09:24:17 9.2 C 74 %
346 13-01-2020 09:34:18 9.2 C 74 %
347 13-01-2020 09:44:18 9.2 C 74 %
348 13-01-2020 09:54:18 9.2 C 74 %
349 13-01-2020 10:04:17 9.2 C 74 %
350 13-01-2020 10:14:17 9.2 C 74 %
Sensor: Nr:Datum:Temp:Feuchte:
G-T/H 351 13-01-2020 10:24:17 9.2 C 74 %
352 13-01-2020 10:34:18 9.2 C 74 %
353 13-01-2020 10:44:18 9.2 C 74 %
354 13-01-2020 10:54:17 9.2 C 74 %
355 13-01-2020 11:04:17 9.2 C 74 %
356 13-01-2020 11:14:17 9.2 C 74 %
357 13-01-2020 11:24:17 9.2 C 74 %
358 13-01-2020 11:34:17 9.2 C 74 %
359 13-01-2020 11:44:17 9.2 C 75 %
360 13-01-2020 11:54:17 9.3 C 75 %
361 13-01-2020 12:04:18 9.3 C 75 %
362 13-01-2020 12:14:18 9.2 C 75 %
363 13-01-2020 12:24:18 9.2 C 75 %
364 13-01-2020 12:34:17 9.2 C 75 %
365 13-01-2020 12:44:18 9.2 C 75 %
366 13-01-2020 12:54:17 9.2 C 75 %
367 13-01-2020 13:04:17 9.2 C 75 %
368 13-01-2020 13:14:17 9.2 C 75 %
369 13-01-2020 13:24:17 9.3 C 75 %
370 13-01-2020 13:34:17 9.3 C 75 %
371 13-01-2020 13:44:17 9.3 C 75 %
372 13-01-2020 13:54:17 9.3 C 75 %
373 13-01-2020 14:04:17 9.3 C 75 %
374 13-01-2020 14:14:17 9.3 C 75 %
375 13-01-2020 14:24:17 9.3 C 75 %
Sensor: Nr:Datum:Temp:Feuchte:
G-T/H 376 13-01-2020 14:34:17 9.3 C 75 %
377 13-01-2020 14:44:17 9.3 C 75 %
378 13-01-2020 14:54:17 9.3 C 75 %
379 13-01-2020 15:04:18 9.3 C 75 %
380 13-01-2020 15:14:18 9.3 C 75 %
381 13-01-2020 15:24:17 9.3 C 75 %
382 13-01-2020 15:34:17 9.3 C 75 %
383 13-01-2020 15:44:17 9.3 C 75 %
384 13-01-2020 15:54:17 9.4 C 75 %
385 13-01-2020 16:04:17 9.3 C 75 %
386 13-01-2020 16:14:17 9.3 C 75 %
387 13-01-2020 16:24:17 9.3 C 75 %
388 13-01-2020 16:34:17 9.4 C 75 %
389 13-01-2020 16:44:17 9.4 C 75 %
390 13-01-2020 16:54:17 9.4 C 75 %
391 13-01-2020 17:04:18 9.4 C 75 %
392 13-01-2020 17:14:18 9.4 C 75 %
393 13-01-2020 17:24:17 9.4 C 75 %
394 13-01-2020 17:34:18 9.4 C 75 %
395 13-01-2020 17:44:18 9.4 C 75 %
396 13-01-2020 17:54:17 9.4 C 75 %
397 13-01-2020 18:04:17 9.4 C 75 %
398 13-01-2020 18:14:17 9.4 C 75 %
399 13-01-2020 18:24:18 9.4 C 75 %
400 13-01-2020 18:34:17 9.4 C 75 %
Sensor: Nr:Datum:Temp:Feuchte:
G-T/H 401 13-01-2020 18:44:17 9.4 C 75 %
402 13-01-2020 18:54:17 9.5 C 75 %
403 13-01-2020 19:04:18 9.4 C 75 %
404 13-01-2020 19:14:18 9.4 C 75 %
405 13-01-2020 19:24:17 9.5 C 75 %
406 13-01-2020 19:34:17 9.5 C 75 %
407 13-01-2020 19:44:17 9.5 C 75 %
408 13-01-2020 19:54:17 9.5 C 75 %
409 13-01-2020 20:04:17 9.5 C 75 %
410 13-01-2020 20:14:17 9.5 C 75 %
411 13-01-2020 20:24:17 9.5 C 75 %
412 13-01-2020 20:34:18 9.5 C 75 %
413 13-01-2020 20:44:18 9.5 C 75 %
414 13-01-2020 20:54:17 9.5 C 75 %
415 13-01-2020 21:04:17 9.5 C 75 %
416 13-01-2020 21:14:17 9.5 C 75 %
417 13-01-2020 21:24:17 9.5 C 75 %
418 13-01-2020 21:34:17 9.5 C 75 %
419 13-01-2020 21:44:17 9.5 C 75 %
420 13-01-2020 21:54:17 9.5 C 75 %
421 13-01-2020 22:04:18 9.5 C 75 %
422 13-01-2020 22:14:18 9.5 C 75 %
423 13-01-2020 22:24:17 9.5 C 75 %
424 13-01-2020 22:34:17 9.5 C 75 %
425 13-01-2020 22:44:17 9.5 C 75 %
Sensor: Nr:Datum:Temp:Feuchte:
G-T/H 426 13-01-2020 22:54:18 9.5 C 75 %
427 13-01-2020 23:04:17 9.5 C 75 %
428 13-01-2020 23:14:17 9.5 C 75 %
429 13-01-2020 23:24:17 9.5 C 75 %
430 13-01-2020 23:34:17 9.5 C 75 %
431 13-01-2020 23:44:17 9.5 C 75 %
432 13-01-2020 23:54:17 9.5 C 75 %
433 14-01-2020 00:04:18 9.5 C 75 %
434 14-01-2020 00:14:18 9.5 C 75 %
435 14-01-2020 00:24:18 9.5 C 75 %
436 14-01-2020 00:34:17 9.5 C 75 %
437 14-01-2020 00:44:17 9.5 C 75 %
438 14-01-2020 00:54:17 9.5 C 76 %
439 14-01-2020 01:04:18 9.5 C 76 %
440 14-01-2020 01:14:18 9.5 C 75 %
441 14-01-2020 01:24:17 9.5 C 76 %
442 14-01-2020 01:34:17 9.6 C 76 %
443 14-01-2020 01:44:17 9.6 C 76 %
444 14-01-2020 01:54:17 9.5 C 76 %
445 14-01-2020 02:04:17 9.6 C 75 %
446 14-01-2020 02:14:17 9.6 C 76 %
447 14-01-2020 02:24:17 9.6 C 76 %
448 14-01-2020 02:34:18 9.6 C 76 %
449 14-01-2020 02:44:18 9.6 C 76 %
450 14-01-2020 02:54:17 9.6 C 76 %
Sensor: Nr:Datum:Temp:Feuchte:
G-T/H 451 14-01-2020 03:04:17 9.6 C 76 %
452 14-01-2020 03:14:17 9.6 C 76 %
453 14-01-2020 03:24:17 9.6 C 76 %
454 14-01-2020 03:34:17 9.6 C 76 %
455 14-01-2020 03:44:17 9.6 C 76 %
456 14-01-2020 03:54:17 9.6 C 76 %
457 14-01-2020 04:04:18 9.6 C 76 %
458 14-01-2020 04:14:18 9.6 C 76 %
459 14-01-2020 04:24:17 9.6 C 76 %
460 14-01-2020 04:34:17 9.6 C 76 %
461 14-01-2020 04:44:17 9.6 C 76 %
462 14-01-2020 04:54:17 9.6 C 76 %
463 14-01-2020 05:04:17 9.6 C 76 %
464 14-01-2020 05:14:17 9.6 C 76 %
465 14-01-2020 05:24:17 9.6 C 76 %
466 14-01-2020 05:34:17 9.6 C 76 %
467 14-01-2020 05:44:17 9.6 C 76 %
468 14-01-2020 05:54:18 9.6 C 76 %
469 14-01-2020 06:04:17 9.6 C 76 %
470 14-01-2020 06:14:17 9.6 C 76 %
471 14-01-2020 06:24:17 9.6 C 76 %
472 14-01-2020 06:34:18 9.6 C 76 %
473 14-01-2020 06:44:18 9.6 C 76 %
474 14-01-2020 06:54:17 9.6 C 76 %
475 14-01-2020 07:04:17 9.6 C 76 %
Sensor: Nr:Datum:Temp:Feuchte:
G-T/H 476 14-01-2020 07:14:17 9.6 C 76 %
477 14-01-2020 07:24:17 9.6 C 76 %
478 14-01-2020 07:34:18 9.6 C 76 %
479 14-01-2020 07:44:18 9.6 C 76 %
480 14-01-2020 07:54:17 9.6 C 76 %
481 14-01-2020 08:04:17 9.6 C 76 %
482 14-01-2020 08:14:17 9.6 C 76 %
483 14-01-2020 08:24:17 9.6 C 76 %
484 14-01-2020 08:34:17 9.6 C 76 %
485 14-01-2020 08:44:17 9.6 C 76 %
486 14-01-2020 08:54:18 9.6 C 76 %
487 14-01-2020 09:04:18 9.6 C 76 %
488 14-01-2020 09:14:18 9.6 C 76 %
489 14-01-2020 09:24:17 9.6 C 76 %
490 14-01-2020 09:34:17 9.6 C 76 %
491 14-01-2020 09:44:17 9.6 C 76 %
492 14-01-2020 09:54:17 9.6 C 76 %
493 14-01-2020 10:04:18 9.6 C 76 %
494 14-01-2020 10:14:18 9.6 C 76 %
495 14-01-2020 10:24:18 9.6 C 76 %
496 14-01-2020 10:34:18 9.6 C 76 %
497 14-01-2020 10:44:18 9.6 C 76 %
498 14-01-2020 10:54:17 9.6 C 76 %
499 14-01-2020 11:04:17 9.7 C 76 %
500 14-01-2020 11:14:17 9.6 C 76 %
Sensor: Nr:Datum:Temp:Feuchte:
G-T/H 501 14-01-2020 11:24:17 9.6 C 76 %
502 14-01-2020 11:34:18 9.7 C 76 %
503 14-01-2020 11:44:18 9.7 C 76 %
504 14-01-2020 11:54:17 9.7 C 76 %
505 14-01-2020 12:04:17 9.7 C 76 %
506 14-01-2020 12:14:17 9.7 C 76 %
507 14-01-2020 12:24:17 9.7 C 76 %
508 14-01-2020 12:34:17 9.7 C 76 %
509 14-01-2020 12:44:17 9.7 C 76 %
510 14-01-2020 12:54:18 9.7 C 76 %
511 14-01-2020 13:04:18 9.7 C 76 %
512 14-01-2020 13:14:18 9.7 C 76 %
513 14-01-2020 13:24:18 9.7 C 76 %
514 14-01-2020 13:34:17 9.7 C 76 %
515 14-01-2020 13:44:17 9.7 C 76 %
516 14-01-2020 13:54:17 9.7 C 76 %
517 14-01-2020 14:04:17 9.7 C 76 %
518 14-01-2020 14:14:17 9.7 C 76 %
519 14-01-2020 14:24:17 9.7 C 76 %
520 14-01-2020 14:34:17 9.8 C 76 %
521 14-01-2020 14:44:17 9.8 C 76 %
522 14-01-2020 14:54:17 9.8 C 76 %
523 14-01-2020 15:04:17 9.8 C 76 %
524 14-01-2020 15:14:17 9.8 C 76 %
525 14-01-2020 15:24:17 9.8 C 76 %
Sensor: Nr:Datum:Temp:Feuchte:
G-T/H 526 14-01-2020 15:34:18 9.8 C 76 %
527 14-01-2020 15:44:18 9.8 C 76 %
528 14-01-2020 15:54:17 9.9 C 76 %
529 14-01-2020 16:04:18 9.8 C 76 %
530 14-01-2020 16:14:18 9.9 C 76 %
531 14-01-2020 16:24:17 9.9 C 76 %
532 14-01-2020 16:34:18 9.9 C 76 %
533 14-01-2020 16:44:18 9.9 C 76 %
534 14-01-2020 16:54:17 9.9 C 76 %
535 14-01-2020 17:04:17 10 C 75 %
536 14-01-2020 17:14:18 10 C 75 %
537 14-01-2020 17:24:17 10 C 75 %
538 14-01-2020 17:34:17 10 C 75 %
539 14-01-2020 17:44:17 10 C 75 %
540 14-01-2020 17:54:18 10 C 75 %
541 14-01-2020 18:04:17 10 C 75 %
542 14-01-2020 18:14:17 10 C 75 %
543 14-01-2020 18:24:17 10 C 75 %
544 14-01-2020 18:34:18 10 C 75 %
545 14-01-2020 18:44:18 10.1 C 75 %
546 14-01-2020 18:54:17 10.1 C 75 %
547 14-01-2020 19:04:17 10.1 C 75 %
548 14-01-2020 19:14:17 10.1 C 75 %
549 14-01-2020 19:24:17 10.1 C 75 %
550 14-01-2020 19:34:17 10.1 C 75 %
Sensor: Nr:Datum:Temp:Feuchte:
G-T/H 551 14-01-2020 19:44:17 10.1 C 75 %
552 14-01-2020 19:54:17 10.1 C 75 %
553 14-01-2020 20:04:18 10.1 C 75 %
554 14-01-2020 20:14:18 10.1 C 75 %
555 14-01-2020 20:24:18 10.1 C 75 %
556 14-01-2020 20:34:17 10.1 C 75 %
557 14-01-2020 20:44:17 10.1 C 75 %
558 14-01-2020 20:54:17 10.1 C 75 %
559 14-01-2020 21:04:18 10.2 C 75 %
560 14-01-2020 21:14:18 10.2 C 75 %
561 14-01-2020 21:24:17 10.2 C 75 %
562 14-01-2020 21:34:18 10.2 C 75 %
563 14-01-2020 21:44:18 10.2 C 75 %
564 14-01-2020 21:54:18 10.2 C 75 %
565 14-01-2020 22:04:17 10.2 C 75 %
566 14-01-2020 22:14:17 10.3 C 75 %
567 14-01-2020 22:24:17 10.3 C 75 %
568 14-01-2020 22:34:18 10.2 C 75 %
569 14-01-2020 22:44:18 10.3 C 75 %
570 14-01-2020 22:54:17 10.3 C 75 %
571 14-01-2020 23:04:18 10.3 C 75 %
572 14-01-2020 23:14:18 10.3 C 75 %
573 14-01-2020 23:24:17 10.3 C 75 %
574 14-01-2020 23:34:18 10.3 C 75 %
575 14-01-2020 23:44:18 10.3 C 75 %
Sensor: Nr:Datum:Temp:Feuchte:
G-T/H 576 14-01-2020 23:54:17 10.3 C 75 %
577 15-01-2020 00:04:17 10.4 C 75 %
578 15-01-2020 00:14:17 10.4 C 75 %
579 15-01-2020 00:24:17 10.4 C 75 %
580 15-01-2020 00:34:18 10.4 C 75 %
581 15-01-2020 00:44:18 10.4 C 75 %
582 15-01-2020 00:54:17 10.4 C 75 %
583 15-01-2020 01:04:17 10.4 C 75 %
584 15-01-2020 01:14:17 10.4 C 75 %
585 15-01-2020 01:24:17 10.4 C 75 %
586 15-01-2020 01:34:18 10.4 C 75 %
587 15-01-2020 01:44:18 10.4 C 75 %
588 15-01-2020 01:54:17 10.4 C 75 %
589 15-01-2020 02:04:18 10.4 C 75 %
590 15-01-2020 02:14:18 10.4 C 75 %
591 15-01-2020 02:24:18 10.4 C 75 %
592 15-01-2020 02:34:17 10.4 C 75 %
593 15-01-2020 02:44:17 10.4 C 75 %
594 15-01-2020 02:54:17 10.4 C 76 %
595 15-01-2020 03:04:18 10.4 C 76 %
596 15-01-2020 03:14:18 10.4 C 76 %
597 15-01-2020 03:24:17 10.5 C 76 %
598 15-01-2020 03:34:17 10.5 C 76 %
599 15-01-2020 03:44:17 10.5 C 76 %
600 15-01-2020 03:54:17 10.5 C 76 %
Sensor: Nr:Datum:Temp:Feuchte:
G-T/H 601 15-01-2020 04:04:18 10.5 C 76 %
602 15-01-2020 04:14:18 10.4 C 76 %
603 15-01-2020 04:24:17 10.5 C 76 %
604 15-01-2020 04:34:17 10.5 C 76 %
605 15-01-2020 04:44:17 10.5 C 76 %
606 15-01-2020 04:54:17 10.5 C 76 %
607 15-01-2020 05:04:17 10.5 C 76 %
608 15-01-2020 05:14:17 10.5 C 76 %
609 15-01-2020 05:24:17 10.5 C 76 %
610 15-01-2020 05:34:17 10.5 C 76 %
611 15-01-2020 05:44:17 10.5 C 76 %
612 15-01-2020 05:54:17 10.5 C 76 %
613 15-01-2020 06:04:17 10.5 C 76 %
614 15-01-2020 06:14:17 10.5 C 76 %
615 15-01-2020 06:24:17 10.5 C 76 %
616 15-01-2020 06:34:18 10.5 C 76 %
617 15-01-2020 06:44:18 10.5 C 76 %
618 15-01-2020 06:54:17 10.5 C 76 %
619 15-01-2020 07:04:17 10.5 C 76 %
620 15-01-2020 07:14:17 10.5 C 76 %
621 15-01-2020 07:24:17 10.5 C 76 %
622 15-01-2020 07:34:18 10.5 C 76 %
623 15-01-2020 07:44:18 10.5 C 76 %
624 15-01-2020 07:54:18 10.5 C 76 %
625 15-01-2020 08:04:17 10.5 C 76 %
Sensor: Nr:Datum:Temp:Feuchte:
G-T/H 626 15-01-2020 08:14:18 10.5 C 76 %
627 15-01-2020 08:24:17 10.5 C 76 %
628 15-01-2020 08:34:17 10.5 C 76 %
629 15-01-2020 08:44:17 10.5 C 76 %
630 15-01-2020 08:54:17 10.5 C 76 %
631 15-01-2020 09:04:18 10.5 C 76 %
632 15-01-2020 09:14:18 10.5 C 76 %
633 15-01-2020 09:24:17 10.5 C 75 %
634 15-01-2020 09:34:18 10.5 C 75 %
635 15-01-2020 09:44:18 10.5 C 75 %
636 15-01-2020 09:54:18 10.5 C 75 %
637 15-01-2020 10:04:18 10.5 C 75 %
638 15-01-2020 10:14:18 10.5 C 75 %
639 15-01-2020 10:24:17 10.5 C 75 %
640 15-01-2020 10:34:18 10.5 C 75 %
641 15-01-2020 10:44:18 10.5 C 75 %
642 15-01-2020 10:54:17 10.5 C 75 %
643 15-01-2020 11:04:17 10.5 C 75 %
644 15-01-2020 11:14:17 10.5 C 75 %
645 15-01-2020 11:24:17 10.5 C 75 %
646 15-01-2020 11:34:17 10.5 C 75 %
647 15-01-2020 11:44:17 10.5 C 76 %
648 15-01-2020 11:54:17 10.5 C 76 %
649 15-01-2020 12:04:18 10.5 C 76 %
650 15-01-2020 12:14:18 10.5 C 76 %
Sensor: Nr:Datum:Temp:Feuchte:
G-T/H 651 15-01-2020 12:24:17 10.5 C 76 %
652 15-01-2020 12:34:18 10.5 C 76 %
653 15-01-2020 12:44:18 10.6 C 76 %
654 15-01-2020 12:54:18 10.6 C 76 %
655 15-01-2020 13:04:18 10.6 C 76 %
656 15-01-2020 13:14:18 10.5 C 76 %
657 15-01-2020 13:24:18 10.6 C 76 %
658 15-01-2020 13:34:17 10.6 C 75 %
659 15-01-2020 13:44:17 10.6 C 75 %
660 15-01-2020 13:54:17 10.6 C 75 %
661 15-01-2020 14:04:17 10.6 C 75 %
662 15-01-2020 14:14:17 10.6 C 75 %
663 15-01-2020 14:24:17 10.6 C 75 %
664 15-01-2020 14:34:18 10.6 C 75 %
665 15-01-2020 14:44:18 10.6 C 75 %
666 15-01-2020 14:54:18 10.6 C 75 %
667 15-01-2020 15:04:17 10.6 C 75 %
668 15-01-2020 15:14:17 10.6 C 75 %
669 15-01-2020 15:24:17 10.6 C 75 %
670 15-01-2020 15:34:17 10.6 C 75 %
671 15-01-2020 15:44:17 10.6 C 75 %
672 15-01-2020 15:54:17 10.6 C 75 %
673 15-01-2020 16:04:17 10.6 C 75 %
674 15-01-2020 16:14:17 10.6 C 75 %
675 15-01-2020 16:24:17 10.7 C 75 %
Sensor: Nr:Datum:Temp:Feuchte:
G-T/H 676 15-01-2020 16:34:18 10.7 C 75 %
677 15-01-2020 16:44:18 10.7 C 75 %
678 15-01-2020 16:54:17 10.7 C 75 %
679 15-01-2020 17:04:18 10.7 C 75 %
680 15-01-2020 17:14:18 10.7 C 75 %
681 15-01-2020 17:24:17 10.7 C 75 %
682 15-01-2020 17:34:18 10.7 C 75 %
683 15-01-2020 17:44:18 10.7 C 75 %
684 15-01-2020 17:54:18 10.7 C 76 %
685 15-01-2020 18:04:17 10.7 C 75 %
686 15-01-2020 18:14:17 10.7 C 76 %
687 15-01-2020 18:24:17 10.7 C 76 %
688 15-01-2020 18:34:17 10.7 C 76 %
689 15-01-2020 18:44:17 10.7 C 76 %
690 15-01-2020 18:54:17 10.7 C 76 %
691 15-01-2020 19:04:18 10.7 C 76 %
692 15-01-2020 19:14:18 10.7 C 76 %
693 15-01-2020 19:24:18 10.7 C 76 %
694 15-01-2020 19:34:17 10.7 C 76 %
695 15-01-2020 19:44:17 10.8 C 76 %
696 15-01-2020 19:54:18 10.8 C 76 %
697 15-01-2020 20:04:17 10.8 C 76 %
698 15-01-2020 20:14:18 10.8 C 76 %
699 15-01-2020 20:24:17 10.8 C 76 %
700 15-01-2020 20:34:17 10.8 C 76 %
Sensor: Nr:Datum:Temp:Feuchte:
G-T/H 701 15-01-2020 20:44:17 10.8 C 76 %
702 15-01-2020 20:54:17 10.8 C 76 %
703 15-01-2020 21:04:18 10.8 C 76 %
704 15-01-2020 21:14:18 10.8 C 76 %
705 15-01-2020 21:24:18 10.8 C 76 %
706 15-01-2020 21:34:17 10.8 C 76 %
707 15-01-2020 21:44:17 10.9 C 76 %
708 15-01-2020 21:54:17 10.8 C 76 %
709 15-01-2020 22:04:18 10.9 C 76 %
710 15-01-2020 22:14:18 10.8 C 76 %
711 15-01-2020 22:24:18 10.9 C 76 %
712 15-01-2020 22:34:17 10.9 C 76 %
713 15-01-2020 22:44:17 10.9 C 76 %
714 15-01-2020 22:54:17 10.9 C 76 %
715 15-01-2020 23:04:18 10.9 C 76 %
716 15-01-2020 23:14:18 10.9 C 76 %
717 15-01-2020 23:24:17 10.9 C 76 %
718 15-01-2020 23:34:17 10.9 C 76 %
719 15-01-2020 23:44:17 10.9 C 76 %
720 15-01-2020 23:54:17 10.9 C 76 %
721 16-01-2020 00:04:17 10.9 C 76 %
722 16-01-2020 00:14:17 10.9 C 76 %
723 16-01-2020 00:24:17 10.9 C 76 %
724 16-01-2020 00:34:17 10.9 C 76 %
725 16-01-2020 00:44:17 10.9 C 76 %
Sensor: Nr:Datum:Temp:Feuchte:
G-T/H 726 16-01-2020 00:54:18 11 C 76 %
727 16-01-2020 01:04:17 11 C 76 %
728 16-01-2020 01:14:17 11 C 76 %
729 16-01-2020 01:24:17 11 C 76 %
730 16-01-2020 01:34:18 11 C 76 %
731 16-01-2020 01:44:18 11 C 76 %
732 16-01-2020 01:54:17 11 C 76 %
733 16-01-2020 02:04:17 11 C 76 %
734 16-01-2020 02:14:17 11 C 76 %
735 16-01-2020 02:24:17 11 C 76 %
736 16-01-2020 02:34:17 11 C 76 %
737 16-01-2020 02:44:18 11 C 76 %
738 16-01-2020 02:54:17 11 C 76 %
739 16-01-2020 03:04:18 11 C 76 %
740 16-01-2020 03:14:18 11 C 76 %
741 16-01-2020 03:24:18 11 C 76 %
742 16-01-2020 03:34:17 11 C 76 %
743 16-01-2020 03:44:17 11 C 76 %
744 16-01-2020 03:54:17 11 C 76 %
745 16-01-2020 04:04:18 11 C 76 %
746 16-01-2020 04:14:18 11 C 76 %
747 16-01-2020 04:24:17 11 C 76 %
748 16-01-2020 04:34:18 11 C 76 %
749 16-01-2020 04:44:18 11 C 76 %
750 16-01-2020 04:54:17 11 C 76 %
Sensor: Nr:Datum:Temp:Feuchte:
G-T/H 751 16-01-2020 05:04:17 11 C 76 %
752 16-01-2020 05:14:17 11 C 76 %
753 16-01-2020 05:24:17 11 C 76 %
754 16-01-2020 05:34:17 11 C 76 %
755 16-01-2020 05:44:17 11 C 76 %
756 16-01-2020 05:54:17 11 C 76 %
757 16-01-2020 06:04:17 11 C 76 %
758 16-01-2020 06:14:17 11 C 76 %
759 16-01-2020 06:24:17 11 C 76 %
760 16-01-2020 06:34:18 11 C 76 %
761 16-01-2020 06:44:18 11 C 76 %
762 16-01-2020 06:54:17 11 C 76 %
763 16-01-2020 07:04:17 11 C 76 %
764 16-01-2020 07:14:17 11 C 76 %
765 16-01-2020 07:24:17 11 C 76 %
766 16-01-2020 07:34:18 11 C 76 %
767 16-01-2020 07:44:18 11 C 76 %
768 16-01-2020 07:54:17 11 C 76 %
769 16-01-2020 08:04:17 11 C 76 %
770 16-01-2020 08:14:17 11 C 76 %
771 16-01-2020 08:24:17 10.9 C 76 %
772 16-01-2020 08:34:17 10.9 C 76 %
773 16-01-2020 08:44:17 10.9 C 76 %
774 16-01-2020 08:54:18 10.9 C 76 %
775 16-01-2020 09:04:17 10.9 C 76 %
Sensor: Nr:Datum:Temp:Feuchte:
G-T/H 776 16-01-2020 09:14:17 10.9 C 76 %
777 16-01-2020 09:24:17 10.9 C 76 %
778 16-01-2020 09:34:17 10.9 C 76 %
779 16-01-2020 09:44:17 10.9 C 76 %
780 16-01-2020 09:54:17 10.9 C 76 %
781 16-01-2020 10:04:17 10.9 C 76 %
782 16-01-2020 10:14:17 10.9 C 76 %
783 16-01-2020 10:24:17 10.9 C 76 %
784 16-01-2020 10:34:17 10.9 C 76 %
785 16-01-2020 10:44:17 10.9 C 76 %
786 16-01-2020 10:54:18 10.9 C 76 %
787 16-01-2020 11:04:17 10.9 C 76 %
788 16-01-2020 11:14:17 10.9 C 76 %
789 16-01-2020 11:24:17 10.9 C 76 %
790 16-01-2020 11:34:17 10.9 C 76 %
791 16-01-2020 11:44:17 10.9 C 76 %
792 16-01-2020 11:54:17 10.9 C 76 %
793 16-01-2020 12:04:18 10.9 C 76 %
794 16-01-2020 12:14:18 10.9 C 76 %
795 16-01-2020 12:24:17 10.9 C 76 %
796 16-01-2020 12:34:17 10.8 C 76 %
797 16-01-2020 12:44:18 10.8 C 76 %
798 16-01-2020 12:54:17 10.8 C 76 %
799 16-01-2020 13:04:18 10.8 C 76 %
800 16-01-2020 13:14:18 10.8 C 76 %
Sensor: Nr:Datum:Temp:Feuchte:
G-T/H 801 16-01-2020 13:24:17 10.8 C 76 %
802 16-01-2020 13:34:17 10.8 C 76 %
803 16-01-2020 13:44:17 10.8 C 76 %
804 16-01-2020 13:54:18 10.8 C 76 %
805 16-01-2020 14:04:17 10.8 C 76 %
806 16-01-2020 14:14:17 10.8 C 76 %
807 16-01-2020 14:24:17 10.8 C 76 %
808 16-01-2020 14:34:17 10.8 C 76 %
809 16-01-2020 14:44:17 10.8 C 76 %
810 16-01-2020 14:54:17 10.8 C 76 %
811 16-01-2020 15:04:17 10.8 C 76 %
812 16-01-2020 15:14:17 10.8 C 76 %
813 16-01-2020 15:24:17 10.8 C 76 %
814 16-01-2020 15:34:18 10.8 C 76 %
815 16-01-2020 15:44:18 10.8 C 76 %
816 16-01-2020 15:54:17 10.8 C 76 %
817 16-01-2020 16:04:17 10.8 C 76 %
818 16-01-2020 16:14:17 10.8 C 76 %
819 16-01-2020 16:24:17 10.8 C 76 %
820 16-01-2020 16:34:17 10.8 C 76 %
821 16-01-2020 16:44:17 10.8 C 76 %
822 16-01-2020 16:54:18 10.7 C 76 %
823 16-01-2020 17:04:17 10.7 C 76 %
824 16-01-2020 17:14:17 10.7 C 76 %
825 16-01-2020 17:24:17 10.7 C 76 %
Sensor: Nr:Datum:Temp:Feuchte:
G-T/H 826 16-01-2020 17:34:18 10.7 C 76 %
827 16-01-2020 17:44:18 10.7 C 76 %
828 16-01-2020 17:54:17 10.7 C 76 %
829 16-01-2020 18:04:17 10.7 C 76 %
830 16-01-2020 18:14:17 10.7 C 76 %
831 16-01-2020 18:24:17 10.7 C 76 %
832 16-01-2020 18:34:17 10.7 C 76 %
833 16-01-2020 18:44:17 10.7 C 76 %
834 16-01-2020 18:54:18 10.7 C 76 %
835 16-01-2020 19:04:17 10.7 C 76 %
836 16-01-2020 19:14:17 10.7 C 76 %
837 16-01-2020 19:24:17 10.7 C 76 %
838 16-01-2020 19:34:17 10.7 C 76 %
839 16-01-2020 19:44:17 10.7 C 76 %
840 16-01-2020 19:54:17 10.6 C 75 %
841 16-01-2020 20:04:18 10.6 C 75 %
842 16-01-2020 20:14:18 10.6 C 75 %
843 16-01-2020 20:24:18 10.6 C 75 %
844 16-01-2020 20:34:17 10.6 C 75 %
845 16-01-2020 20:44:17 10.6 C 75 %
846 16-01-2020 20:54:17 10.6 C 75 %
847 16-01-2020 21:04:18 10.5 C 75 %
848 16-01-2020 21:14:18 10.5 C 75 %
849 16-01-2020 21:24:18 10.5 C 75 %
850 16-01-2020 21:34:18 10.5 C 75 %
Sensor: Nr:Datum:Temp:Feuchte:
G-T/H 851 16-01-2020 21:44:18 10.5 C 75 %
852 16-01-2020 21:54:17 10.5 C 75 %
853 16-01-2020 22:04:17 10.5 C 75 %
854 16-01-2020 22:14:17 10.5 C 75 %
855 16-01-2020 22:24:18 10.5 C 75 %
856 16-01-2020 22:34:18 10.5 C 75 %
857 16-01-2020 22:44:18 10.5 C 75 %
858 16-01-2020 22:54:17 10.5 C 75 %
859 16-01-2020 23:04:17 10.5 C 75 %
860 16-01-2020 23:14:17 10.5 C 75 %
861 16-01-2020 23:24:17 10.5 C 75 %
862 16-01-2020 23:34:17 10.5 C 75 %
863 16-01-2020 23:44:17 10.4 C 75 %
864 16-01-2020 23:54:17 10.4 C 75 %
865 17-01-2020 00:04:17 10.4 C 75 %
866 17-01-2020 00:14:17 10.4 C 75 %
867 17-01-2020 00:24:17 10.4 C 75 %
868 17-01-2020 00:34:18 10.4 C 75 %
869 17-01-2020 00:44:18 10.4 C 75 %
870 17-01-2020 00:54:17 10.4 C 75 %
871 17-01-2020 01:04:17 10.4 C 75 %
872 17-01-2020 01:14:17 10.3 C 75 %
873 17-01-2020 01:24:17 10.4 C 75 %
874 17-01-2020 01:34:18 10.3 C 75 %
875 17-01-2020 01:44:18 10.3 C 75 %
Sensor: Nr:Datum:Temp:Feuchte:
G-T/H 876 17-01-2020 01:54:17 10.3 C 75 %
877 17-01-2020 02:04:17 10.3 C 75 %
878 17-01-2020 02:14:17 10.3 C 75 %
879 17-01-2020 02:24:17 10.3 C 75 %
880 17-01-2020 02:34:18 10.2 C 75 %
881 17-01-2020 02:44:18 10.2 C 74 %
882 17-01-2020 02:54:17 10.2 C 74 %
883 17-01-2020 03:04:17 10.2 C 74 %
884 17-01-2020 03:14:17 10.2 C 74 %
885 17-01-2020 03:24:17 10.2 C 74 %
886 17-01-2020 03:34:18 10.2 C 74 %
887 17-01-2020 03:44:18 10.2 C 74 %
888 17-01-2020 03:54:17 10.2 C 74 %
889 17-01-2020 04:04:18 10.1 C 74 %
890 17-01-2020 04:14:18 10.2 C 74 %
891 17-01-2020 04:24:18 10.1 C 74 %
892 17-01-2020 04:34:17 10.1 C 74 %
893 17-01-2020 04:44:17 10.1 C 74 %
894 17-01-2020 04:54:17 10.1 C 74 %
895 17-01-2020 05:04:18 10.1 C 74 %
896 17-01-2020 05:14:18 10.1 C 74 %
897 17-01-2020 05:24:17 10.1 C 74 %
898 17-01-2020 05:34:17 10 C 74 %
899 17-01-2020 05:44:17 10 C 74 %
900 17-01-2020 05:54:17 10 C 74 %
Sensor: Nr:Datum:Temp:Feuchte:
G-T/H 901 17-01-2020 06:04:17 10 C 74 %
902 17-01-2020 06:14:17 10 C 74 %
903 17-01-2020 06:24:17 9.9 C 75 %
904 17-01-2020 06:34:17 9.9 C 75 %
905 17-01-2020 06:44:17 9.9 C 75 %
906 17-01-2020 06:54:17 9.9 C 74 %
907 17-01-2020 07:04:18 9.9 C 74 %
908 17-01-2020 07:14:18 9.9 C 74 %
909 17-01-2020 07:24:17 9.9 C 74 %
910 17-01-2020 07:34:17 9.8 C 74 %
911 17-01-2020 07:44:17 9.8 C 74 %
912 17-01-2020 07:54:17 9.8 C 74 %
913 17-01-2020 08:04:18 9.8 C 74 %
914 17-01-2020 08:14:18 9.8 C 74 %
915 17-01-2020 08:24:17 9.8 C 74 %
916 17-01-2020 08:34:17 9.8 C 74 %
917 17-01-2020 08:44:17 9.8 C 74 %
918 17-01-2020 08:54:18 9.8 C 74 %
919 17-01-2020 09:04:17 9.8 C 74 %
920 17-01-2020 09:14:17 9.8 C 74 %
921 17-01-2020 09:24:17 9.7 C 74 %
922 17-01-2020 09:34:17 9.7 C 74 %
923 17-01-2020 09:44:17 9.7 C 74 %
924 17-01-2020 09:54:17 9.7 C 74 %
925 17-01-2020 10:04:17 9.7 C 74 %
Sensor: Nr:Datum:Temp:Feuchte:
G-T/H 926 17-01-2020 10:14:17 9.7 C 74 %
927 17-01-2020 10:24:17 9.7 C 74 %
928 17-01-2020 10:34:18 9.7 C 74 %
929 17-01-2020 10:44:18 9.7 C 74 %
930 17-01-2020 10:54:17 9.7 C 74 %
931 17-01-2020 11:04:17 9.7 C 74 %
932 17-01-2020 11:14:17 9.7 C 74 %
933 17-01-2020 11:24:17 9.7 C 74 %
934 17-01-2020 11:34:18 9.6 C 74 %
935 17-01-2020 11:44:18 9.7 C 74 %
936 17-01-2020 11:54:17 9.7 C 74 %
937 17-01-2020 12:04:17 9.6 C 74 %
938 17-01-2020 12:14:17 9.7 C 74 %
939 17-01-2020 12:24:17 9.7 C 74 %
940 17-01-2020 12:34:17 9.7 C 74 %
941 17-01-2020 12:44:17 9.7 C 75 %
942 17-01-2020 12:54:17 9.6 C 75 %
943 17-01-2020 13:04:18 9.7 C 75 %
944 17-01-2020 13:14:18 9.6 C 75 %
945 17-01-2020 13:24:18 9.7 C 75 %
946 17-01-2020 13:34:18 9.7 C 75 %
947 17-01-2020 13:44:18 9.6 C 75 %
948 17-01-2020 13:54:17 9.6 C 75 %
949 17-01-2020 14:04:17 9.7 C 75 %
950 17-01-2020 14:14:17 9.7 C 75 %
Sensor: Nr:Datum:Temp:Feuchte:
G-T/H 951 17-01-2020 14:24:17 9.7 C 75 %
952 17-01-2020 14:34:17 9.7 C 75 %
953 17-01-2020 14:44:17 9.7 C 75 %
954 17-01-2020 14:54:17 9.8 C 75 %
955 17-01-2020 15:04:17 9.7 C 75 %
956 17-01-2020 15:14:17 9.7 C 75 %
957 17-01-2020 15:24:17 9.7 C 75 %
958 17-01-2020 15:34:18 9.7 C 76 %
959 17-01-2020 15:44:18 9.7 C 76 %
960 17-01-2020 15:54:17 9.7 C 76 %
961 17-01-2020 16:04:18 9.7 C 76 %
962 17-01-2020 16:14:18 9.7 C 76 %
963 17-01-2020 16:24:17 9.7 C 76 %
964 17-01-2020 16:34:17 9.7 C 76 %
965 17-01-2020 16:44:17 9.8 C 76 %
966 17-01-2020 16:54:17 9.8 C 76 %
967 17-01-2020 17:04:17 9.7 C 76 %
968 17-01-2020 17:14:17 9.8 C 76 %
969 17-01-2020 17:24:17 9.8 C 76 %
970 17-01-2020 17:34:17 9.8 C 76 %
971 17-01-2020 17:44:17 9.8 C 76 %
972 17-01-2020 17:54:17 9.8 C 76 %
973 17-01-2020 18:04:17 9.7 C 76 %
974 17-01-2020 18:14:18 9.8 C 76 %
975 17-01-2020 18:24:18 9.8 C 76 %
Sensor: Nr:Datum:Temp:Feuchte:
G-T/H 976 17-01-2020 18:34:18 9.8 C 76 %
977 17-01-2020 18:44:18 9.8 C 76 %
978 17-01-2020 18:54:18 9.8 C 76 %
979 17-01-2020 19:04:17 9.8 C 76 %
980 17-01-2020 19:14:17 9.8 C 76 %
981 17-01-2020 19:24:17 9.8 C 76 %
982 17-01-2020 19:34:17 9.8 C 76 %
983 17-01-2020 19:44:17 9.8 C 76 %
984 17-01-2020 19:54:17 9.8 C 76 %
985 17-01-2020 20:04:17 9.8 C 76 %
986 17-01-2020 20:14:17 9.8 C 76 %
987 17-01-2020 20:24:17 9.8 C 76 %
988 17-01-2020 20:34:17 9.8 C 76 %
989 17-01-2020 20:44:17 9.8 C 76 %
990 17-01-2020 20:54:18 9.8 C 76 %
991 17-01-2020 21:04:17 9.8 C 76 %
992 17-01-2020 21:14:17 9.8 C 76 %
993 17-01-2020 21:24:17 9.8 C 76 %
994 17-01-2020 21:34:17 9.8 C 76 %
995 17-01-2020 21:44:17 9.8 C 76 %
996 17-01-2020 21:54:18 9.8 C 76 %
997 17-01-2020 22:04:17 9.8 C 76 %
998 17-01-2020 22:14:17 9.8 C 76 %
999 17-01-2020 22:24:17 9.8 C 76 %
1000 17-01-2020 22:34:18 9.8 C 76 %
Sensor: Nr:Datum:Temp:Feuchte:
G-T/H 1001 17-01-2020 22:44:18 9.8 C 76 %
1002 17-01-2020 22:54:17 9.8 C 76 %
1003 17-01-2020 23:04:17 9.8 C 76 %
1004 17-01-2020 23:14:17 9.8 C 76 %
1005 17-01-2020 23:24:17 9.8 C 76 %
1006 17-01-2020 23:34:18 9.8 C 76 %
1007 17-01-2020 23:44:18 9.8 C 76 %
1008 17-01-2020 23:54:17 9.8 C 76 %
1009 18-01-2020 00:04:17 9.8 C 76 %
1010 18-01-2020 00:14:17 9.8 C 76 %
1011 18-01-2020 00:24:18 9.8 C 76 %
1012 18-01-2020 00:34:17 9.7 C 75 %
1013 18-01-2020 00:44:17 9.8 C 75 %
1014 18-01-2020 00:54:17 9.8 C 75 %
1015 18-01-2020 01:04:18 9.8 C 75 %
1016 18-01-2020 01:14:18 9.7 C 75 %
1017 18-01-2020 01:24:17 9.7 C 75 %
1018 18-01-2020 01:34:18 9.7 C 75 %
1019 18-01-2020 01:44:18 9.7 C 75 %
1020 18-01-2020 01:54:17 9.7 C 75 %
1021 18-01-2020 02:04:17 9.7 C 75 %
1022 18-01-2020 02:14:17 9.7 C 75 %
1023 18-01-2020 02:24:17 9.7 C 75 %
1024 18-01-2020 02:34:17 9.7 C 75 %
1025 18-01-2020 02:44:17 9.7 C 75 %
Sensor: Nr:Datum:Temp:Feuchte:
G-T/H 1026 18-01-2020 02:54:18 9.7 C 75 %
1027 18-01-2020 03:04:17 9.7 C 75 %
1028 18-01-2020 03:14:17 9.6 C 75 %
1029 18-01-2020 03:24:17 9.7 C 75 %
1030 18-01-2020 03:34:17 9.7 C 75 %
1031 18-01-2020 03:44:17 9.7 C 75 %
1032 18-01-2020 03:54:17 9.6 C 75 %
1033 18-01-2020 04:04:17 9.6 C 75 %
1034 18-01-2020 04:14:17 9.6 C 75 %
1035 18-01-2020 04:24:17 9.6 C 75 %
1036 18-01-2020 04:34:18 9.6 C 75 %
1037 18-01-2020 04:44:18 9.6 C 75 %
1038 18-01-2020 04:54:17 9.6 C 75 %
1039 18-01-2020 05:04:17 9.6 C 75 %
1040 18-01-2020 05:14:17 9.6 C 75 %
1041 18-01-2020 05:24:17 9.6 C 75 %
1042 18-01-2020 05:34:18 9.6 C 75 %
1043 18-01-2020 05:44:18 9.5 C 75 %
1044 18-01-2020 05:54:17 9.5 C 75 %
1045 18-01-2020 06:04:17 9.5 C 75 %
1046 18-01-2020 06:14:17 9.5 C 74 %
1047 18-01-2020 06:24:17 9.5 C 74 %
1048 18-01-2020 06:34:18 9.5 C 74 %
1049 18-01-2020 06:44:18 9.5 C 74 %
1050 18-01-2020 06:54:17 9.5 C 74 %
Sensor: Nr:Datum:Temp:Feuchte:
G-T/H 1051 18-01-2020 07:04:17 9.5 C 74 %
1052 18-01-2020 07:14:17 9.5 C 74 %
1053 18-01-2020 07:24:17 9.5 C 74 %
1054 18-01-2020 07:34:18 9.5 C 74 %
1055 18-01-2020 07:44:18 9.4 C 74 %
1056 18-01-2020 07:54:17 9.4 C 74 %
1057 18-01-2020 08:04:18 9.4 C 74 %
1058 18-01-2020 08:14:18 9.4 C 74 %
1059 18-01-2020 08:24:17 9.4 C 74 %
1060 18-01-2020 08:34:17 9.4 C 74 %
1061 18-01-2020 08:44:17 9.4 C 74 %
1062 18-01-2020 08:54:17 9.3 C 74 %
1063 18-01-2020 09:04:18 9.3 C 74 %
1064 18-01-2020 09:14:18 9.3 C 74 %
1065 18-01-2020 09:24:18 9.3 C 74 %
1066 18-01-2020 09:34:17 9.3 C 74 %
1067 18-01-2020 09:44:17 9.3 C 74 %
1068 18-01-2020 09:54:17 9.3 C 74 %
1069 18-01-2020 10:04:17 9.3 C 74 %
1070 18-01-2020 10:14:17 9.3 C 74 %
1071 18-01-2020 10:24:17 9.3 C 74 %
1072 18-01-2020 10:34:18 9.3 C 74 %
1073 18-01-2020 10:44:18 9.3 C 74 %
1074 18-01-2020 10:54:17 9.3 C 74 %
1075 18-01-2020 11:04:17 9.3 C 74 %
Sensor: Nr:Datum:Temp:Feuchte:
G-T/H 1076 18-01-2020 11:14:17 9.3 C 74 %
1077 18-01-2020 11:24:17 9.3 C 74 %
1078 18-01-2020 11:34:18 9.3 C 74 %
1079 18-01-2020 11:44:18 9.3 C 74 %
1080 18-01-2020 11:54:17 9.4 C 74 %
1081 18-01-2020 12:04:18 9.5 C 74 %
1082 18-01-2020 12:14:18 9.4 C 74 %
1083 18-01-2020 12:24:17 9.4 C 74 %
1084 18-01-2020 12:34:17 9.4 C 74 %
1085 18-01-2020 12:44:17 9.4 C 74 %
1086 18-01-2020 12:54:17 9.4 C 74 %
1087 18-01-2020 13:04:17 9.4 C 74 %
1088 18-01-2020 13:14:17 9.3 C 74 %
1089 18-01-2020 13:24:17 9.3 C 74 %
1090 18-01-2020 13:34:18 9.3 C 74 %
1091 18-01-2020 13:44:18 9.3 C 74 %
1092 18-01-2020 13:54:17 9.3 C 74 %
1093 18-01-2020 14:04:17 9.3 C 74 %
1094 18-01-2020 14:14:17 9.3 C 74 %
1095 18-01-2020 14:24:17 9.3 C 74 %
1096 18-01-2020 14:34:18 9.3 C 74 %
1097 18-01-2020 14:44:18 9.3 C 74 %
1098 18-01-2020 14:54:17 9.3 C 74 %
1099 18-01-2020 15:04:17 9.3 C 74 %
1100 18-01-2020 15:14:17 9.3 C 74 %
Sensor: Nr:Datum:Temp:Feuchte:
G-T/H 1101 18-01-2020 15:24:17 9.3 C 74 %
1102 18-01-2020 15:34:17 9.3 C 74 %
1103 18-01-2020 15:44:17 9.3 C 74 %
1104 18-01-2020 15:54:17 9.3 C 74 %
1105 18-01-2020 16:04:17 9.3 C 74 %
1106 18-01-2020 16:14:17 9.3 C 74 %
1107 18-01-2020 16:24:17 9.3 C 74 %
1108 18-01-2020 16:34:18 9.3 C 74 %
1109 18-01-2020 16:44:18 9.3 C 74 %
1110 18-01-2020 16:54:17 9.3 C 74 %
1111 18-01-2020 17:04:17 9.3 C 74 %
1112 18-01-2020 17:14:17 9.3 C 74 %
1113 18-01-2020 17:24:18 9.3 C 74 %
1114 18-01-2020 17:34:17 9.3 C 74 %
1115 18-01-2020 17:44:17 9.3 C 74 %
1116 18-01-2020 17:54:17 9.3 C 74 %
1117 18-01-2020 18:04:18 9.3 C 74 %
1118 18-01-2020 18:14:18 9.3 C 74 %
1119 18-01-2020 18:24:17 9.2 C 74 %
1120 18-01-2020 18:34:17 9.3 C 74 %
1121 18-01-2020 18:44:17 9.3 C 74 %
1122 18-01-2020 18:54:17 9.3 C 74 %
1123 18-01-2020 19:04:18 9.3 C 74 %
1124 18-01-2020 19:14:18 9.2 C 74 %
1125 18-01-2020 19:24:18 9.2 C 74 %
Sensor: Nr:Datum:Temp:Feuchte:
G-T/H 1126 18-01-2020 19:34:17 9.2 C 74 %
1127 18-01-2020 19:44:17 9.2 C 74 %
1128 18-01-2020 19:54:17 9.2 C 74 %
1129 18-01-2020 20:04:18 9.1 C 74 %
1130 18-01-2020 20:14:18 9.2 C 74 %
1131 18-01-2020 20:24:17 9.1 C 74 %
1132 18-01-2020 20:34:18 9.1 C 74 %
1133 18-01-2020 20:44:18 9.1 C 74 %
1134 18-01-2020 20:54:17 9.1 C 74 %
1135 18-01-2020 21:04:17 9.1 C 74 %
1136 18-01-2020 21:14:17 9.1 C 73 %
1137 18-01-2020 21:24:17 9.1 C 73 %
1138 18-01-2020 21:34:17 9.1 C 73 %
1139 18-01-2020 21:44:17 9.1 C 73 %
1140 18-01-2020 21:54:17 9.1 C 73 %
1141 18-01-2020 22:04:18 9.1 C 73 %
1142 18-01-2020 22:14:18 9.1 C 73 %
1143 18-01-2020 22:24:17 9.1 C 73 %
1144 18-01-2020 22:34:17 9.1 C 73 %
1145 18-01-2020 22:44:18 9.1 C 73 %
1146 18-01-2020 22:54:17 9.1 C 73 %
1147 18-01-2020 23:04:17 9.1 C 73 %
1148 18-01-2020 23:14:17 9.1 C 73 %
1149 18-01-2020 23:24:17 9.1 C 73 %
1150 18-01-2020 23:34:17 9.1 C 73 %
Sensor: Nr:Datum:Temp:Feuchte:
G-T/H 1151 18-01-2020 23:44:17 9.1 C 73 %
1152 18-01-2020 23:54:17 9.1 C 73 %
1153 19-01-2020 00:04:18 9 C 73 %
1154 19-01-2020 00:14:18 9 C 73 %
1155 19-01-2020 00:24:17 9 C 73 %
1156 19-01-2020 00:34:17 9 C 73 %
1157 19-01-2020 00:44:17 9 C 73 %
1158 19-01-2020 00:54:17 9 C 73 %
1159 19-01-2020 01:04:17 9 C 73 %
1160 19-01-2020 01:14:17 9 C 73 %
1161 19-01-2020 01:24:17 9 C 73 %
1162 19-01-2020 01:34:17 9 C 73 %
1163 19-01-2020 01:44:17 9 C 73 %
1164 19-01-2020 01:54:18 9 C 73 %
1165 19-01-2020 02:04:17 9 C 73 %
1166 19-01-2020 02:14:17 9 C 73 %
1167 19-01-2020 02:24:17 8.9 C 74 %
1168 19-01-2020 02:34:17 8.9 C 74 %
1169 19-01-2020 02:44:17 8.9 C 74 %
1170 19-01-2020 02:54:18 8.9 C 74 %
1171 19-01-2020 03:04:17 9 C 73 %
1172 19-01-2020 03:14:17 8.9 C 74 %
1173 19-01-2020 03:24:17 8.9 C 74 %
1174 19-01-2020 03:34:17 8.9 C 74 %
1175 19-01-2020 03:44:17 8.9 C 74 %
Sensor: Nr:Datum:Temp:Feuchte:
G-T/H 1176 19-01-2020 03:54:17 8.9 C 74 %
1177 19-01-2020 04:04:17 8.9 C 74 %
1178 19-01-2020 04:14:17 8.9 C 74 %
1179 19-01-2020 04:24:17 8.9 C 74 %
1180 19-01-2020 04:34:18 8.9 C 74 %
1181 19-01-2020 04:44:18 8.9 C 74 %
1182 19-01-2020 04:54:17 8.9 C 74 %
1183 19-01-2020 05:04:18 8.9 C 74 %
1184 19-01-2020 05:14:18 8.9 C 74 %
1185 19-01-2020 05:24:17 8.9 C 74 %
1186 19-01-2020 05:34:18 8.9 C 74 %
1187 19-01-2020 05:44:18 8.9 C 74 %
1188 19-01-2020 05:54:17 8.9 C 74 %
1189 19-01-2020 06:04:18 8.9 C 74 %
1190 19-01-2020 06:14:18 8.9 C 74 %
1191 19-01-2020 06:24:17 8.8 C 74 %
1192 19-01-2020 06:34:18 8.9 C 74 %
1193 19-01-2020 06:44:18 8.8 C 74 %
1194 19-01-2020 06:54:17 8.8 C 74 %
1195 19-01-2020 07:04:17 8.8 C 74 %
1196 19-01-2020 07:14:17 8.8 C 74 %
1197 19-01-2020 07:24:17 8.8 C 74 %
1198 19-01-2020 07:34:17 8.8 C 74 %
1199 19-01-2020 07:44:17 8.9 C 74 %
1200 19-01-2020 07:54:17 8.8 C 74 %
Sensor: Nr:Datum:Temp:Feuchte:
G-T/H 1201 19-01-2020 08:04:17 8.8 C 74 %
1202 19-01-2020 08:14:17 8.8 C 74 %
1203 19-01-2020 08:24:18 8.8 C 74 %
1204 19-01-2020 08:34:17 8.8 C 74 %
1205 19-01-2020 08:44:17 8.8 C 74 %
1206 19-01-2020 08:54:17 8.8 C 74 %
1207 19-01-2020 09:04:18 8.8 C 74 %
1208 19-01-2020 09:14:18 8.8 C 74 %
1209 19-01-2020 09:24:18 8.8 C 74 %
1210 19-01-2020 09:34:17 8.8 C 74 %
1211 19-01-2020 09:44:17 8.8 C 74 %
1212 19-01-2020 09:54:18 8.8 C 74 %
1213 19-01-2020 10:04:18 8.8 C 74 %
1214 19-01-2020 10:14:18 8.8 C 74 %
1215 19-01-2020 10:24:17 8.8 C 74 %
1216 19-01-2020 10:34:17 8.8 C 74 %
1217 19-01-2020 10:44:17 8.8 C 74 %
1218 19-01-2020 10:54:17 8.8 C 74 %
1219 19-01-2020 11:04:18 8.8 C 74 %
1220 19-01-2020 11:14:18 8.8 C 74 %
1221 19-01-2020 11:24:18 8.8 C 74 %
1222 19-01-2020 11:34:17 8.8 C 74 %
1223 19-01-2020 11:44:17 8.8 C 74 %
1224 19-01-2020 11:54:17 8.8 C 74 %
1225 19-01-2020 12:04:18 8.8 C 74 %
Sensor: Nr:Datum:Temp:Feuchte:
G-T/H 1226 19-01-2020 12:14:18 8.7 C 74 %
1227 19-01-2020 12:24:18 8.8 C 74 %
1228 19-01-2020 12:34:17 8.8 C 74 %
1229 19-01-2020 12:44:17 8.8 C 74 %
1230 19-01-2020 12:54:18 8.8 C 74 %
1231 19-01-2020 13:04:17 8.8 C 74 %
1232 19-01-2020 13:14:17 8.8 C 74 %
1233 19-01-2020 13:24:17 8.8 C 74 %
1234 19-01-2020 13:34:18 8.8 C 74 %
1235 19-01-2020 13:44:18 8.8 C 74 %
1236 19-01-2020 13:54:17 8.8 C 74 %
1237 19-01-2020 14:04:17 8.8 C 74 %
1238 19-01-2020 14:14:17 8.8 C 74 %
1239 19-01-2020 14:24:17 8.8 C 74 %
1240 19-01-2020 14:34:17 8.8 C 74 %
1241 19-01-2020 14:44:17 8.8 C 74 %
1242 19-01-2020 14:54:18 8.8 C 74 %
1243 19-01-2020 15:04:17 8.8 C 74 %
1244 19-01-2020 15:14:17 8.8 C 74 %
1245 19-01-2020 15:24:17 8.8 C 75 %
1246 19-01-2020 15:34:17 8.8 C 75 %
1247 19-01-2020 15:44:17 8.8 C 75 %
1248 19-01-2020 15:54:18 8.8 C 75 %
1249 19-01-2020 16:04:17 8.8 C 75 %
1250 19-01-2020 16:14:17 8.8 C 75 %
Sensor: Nr:Datum:Temp:Feuchte:
G-T/H 1251 19-01-2020 16:24:17 8.8 C 75 %
1252 19-01-2020 16:34:18 8.9 C 75 %
1253 19-01-2020 16:44:18 8.9 C 75 %
1254 19-01-2020 16:54:17 8.8 C 75 %
1255 19-01-2020 17:04:18 8.9 C 75 %
1256 19-01-2020 17:14:18 8.9 C 75 %
1257 19-01-2020 17:24:18 8.9 C 75 %
1258 19-01-2020 17:34:18 8.9 C 75 %
1259 19-01-2020 17:44:18 8.9 C 75 %
1260 19-01-2020 17:54:17 8.9 C 75 %
1261 19-01-2020 18:04:18 8.9 C 75 %
1262 19-01-2020 18:14:18 8.9 C 75 %
1263 19-01-2020 18:24:18 8.9 C 75 %
1264 19-01-2020 18:34:17 8.9 C 75 %
1265 19-01-2020 18:44:17 8.9 C 75 %
1266 19-01-2020 18:54:17 8.9 C 75 %
1267 19-01-2020 19:04:18 8.9 C 75 %
1268 19-01-2020 19:14:18 8.9 C 75 %
1269 19-01-2020 19:24:17 8.9 C 75 %
1270 19-01-2020 19:34:18 8.9 C 75 %
1271 19-01-2020 19:44:18 8.9 C 75 %
1272 19-01-2020 19:54:17 8.9 C 75 %
1273 19-01-2020 20:04:17 8.9 C 75 %
1274 19-01-2020 20:14:17 8.9 C 75 %
1275 19-01-2020 20:25:17 8.9 C 75 %
Sensor: Nr:Datum:Temp:Feuchte:
G-T/H 1276 19-01-2020 20:34:18 8.9 C 75 %
1277 19-01-2020 20:44:18 8.9 C 75 %
1278 19-01-2020 20:54:17 8.9 C 75 %
1279 19-01-2020 21:14:17 8.9 C 75 %
1280 19-01-2020 21:14:17 8.9 C 75 %
1281 19-01-2020 21:24:17 8.9 C 75 %
1282 19-01-2020 21:34:18 8.9 C 75 %
1283 19-01-2020 21:44:18 8.9 C 75 %
1284 19-01-2020 21:54:17 8.9 C 75 %
1285 19-01-2020 22:04:17 8.9 C 75 %
1286 19-01-2020 22:14:17 8.9 C 75 %
1287 19-01-2020 22:24:17 8.9 C 75 %
1288 19-01-2020 22:34:17 8.9 C 75 %
1289 19-01-2020 22:44:17 8.8 C 75 %
1290 19-01-2020 22:55:17 8.9 C 75 %
1291 19-01-2020 23:05:17 8.9 C 75 %
1292 19-01-2020 23:14:18 8.9 C 75 %
1293 19-01-2020 23:24:18 8.9 C 75 %
1294 19-01-2020 23:35:17 8.9 C 75 %
1295 19-01-2020 23:44:17 8.8 C 75 %
1296 19-01-2020 23:54:17 8.9 C 75 %
1297 20-01-2020 00:05:17 8.9 C 75 %
1298 20-01-2020 00:14:18 8.9 C 75 %
1299 20-01-2020 00:24:18 8.9 C 75 %
1300 20-01-2020 00:34:17 8.8 C 75 %
Sensor: Nr:Datum:Temp:Feuchte:
G-T/H 1301 20-01-2020 00:44:18 8.8 C 75 %
1302 20-01-2020 00:55:17 8.8 C 75 %
1303 20-01-2020 01:04:18 8.8 C 75 %
1304 20-01-2020 01:14:18 8.8 C 75 %
1305 20-01-2020 01:24:18 8.8 C 75 %
1306 20-01-2020 01:34:17 8.8 C 75 %
1307 20-01-2020 01:44:17 8.8 C 75 %
1308 20-01-2020 01:55:17 8.8 C 75 %
1309 20-01-2020 02:05:18 8.8 C 75 %
1310 20-01-2020 02:15:18 8.8 C 75 %
1311 20-01-2020 02:25:18 8.8 C 75 %
1312 20-01-2020 02:35:17 8.8 C 75 %
1313 20-01-2020 02:45:17 8.8 C 75 %
1314 20-01-2020 02:55:17 8.8 C 75 %
1315 20-01-2020 03:05:17 8.8 C 74 %
1316 20-01-2020 03:15:17 8.8 C 74 %
1317 20-01-2020 03:25:17 8.8 C 74 %
1318 20-01-2020 03:35:17 8.7 C 74 %
1319 20-01-2020 03:45:17 8.7 C 74 %
1320 20-01-2020 03:55:17 8.7 C 74 %
1321 20-01-2020 04:05:18 8.7 C 74 %
1322 20-01-2020 04:15:17 8.7 C 74 %
1323 20-01-2020 04:25:17 8.7 C 74 %
1324 20-01-2020 04:35:17 8.7 C 74 %
1325 20-01-2020 04:45:17 8.7 C 74 %
Sensor: Nr:Datum:Temp:Feuchte:
G-T/H 1326 20-01-2020 04:55:18 8.7 C 74 %
1327 20-01-2020 05:05:17 8.7 C 74 %
1328 20-01-2020 05:15:17 8.7 C 74 %
1329 20-01-2020 05:25:17 8.7 C 74 %
1330 20-01-2020 05:35:18 8.7 C 74 %
1331 20-01-2020 05:45:17 8.7 C 74 %
1332 20-01-2020 05:55:17 8.7 C 74 %
1333 20-01-2020 06:05:18 8.7 C 74 %
1334 20-01-2020 06:15:17 8.7 C 74 %
1335 20-01-2020 06:25:17 8.6 C 74 %
1336 20-01-2020 06:35:17 8.7 C 74 %
1337 20-01-2020 06:45:18 8.7 C 74 %
1338 20-01-2020 06:55:18 8.6 C 74 %
1339 20-01-2020 07:05:17 8.6 C 74 %
1340 20-01-2020 07:15:17 8.6 C 74 %
1341 20-01-2020 07:25:17 8.6 C 74 %
1342 20-01-2020 07:35:17 8.6 C 74 %
1343 20-01-2020 07:45:17 8.6 C 74 %
1344 20-01-2020 07:55:17 8.6 C 74 %
1345 20-01-2020 08:05:18 8.6 C 74 %
1346 20-01-2020 08:15:18 8.6 C 74 %
1347 20-01-2020 08:25:18 8.6 C 74 %
1348 20-01-2020 08:35:17 8.6 C 74 %
1349 20-01-2020 08:45:17 8.6 C 74 %
1350 20-01-2020 08:55:17 8.6 C 74 %
Sensor: Nr:Datum:Temp:Feuchte:
G-T/H 1351 20-01-2020 09:05:17 8.6 C 74 %
1352 20-01-2020 09:15:17 8.5 C 74 %
1353 20-01-2020 09:25:17 8.6 C 74 %
1354 20-01-2020 09:35:17 8.6 C 74 %
1355 20-01-2020 09:45:18 8.6 C 74 %
1356 20-01-2020 09:55:18 8.6 C 74 %
1357 20-01-2020 10:05:18 8.6 C 74 %
1358 20-01-2020 10:15:17 8.6 C 74 %
1359 20-01-2020 10:25:17 8.6 C 74 %
1360 20-01-2020 10:35:17 8.6 C 74 %
1361 20-01-2020 10:45:17 8.5 C 74 %
1362 20-01-2020 10:55:17 8.6 C 74 %
1363 20-01-2020 11:05:18 8.6 C 74 %
1364 20-01-2020 11:15:18 8.6 C 74 %
1365 20-01-2020 11:25:18 8.5 C 74 %
1366 20-01-2020 11:35:18 8.6 C 74 %
1367 20-01-2020 11:45:17 8.6 C 74 %
1368 20-01-2020 11:55:17 8.6 C 74 %
1369 20-01-2020 12:05:17 8.6 C 74 %
1370 20-01-2020 12:15:18 8.6 C 74 %
1371 20-01-2020 12:25:18 8.5 C 73 %
1372 20-01-2020 12:35:18 8.5 C 73 %
1373 20-01-2020 12:45:17 8.5 C 73 %
1374 20-01-2020 12:55:17 8.5 C 73 %
1375 20-01-2020 13:05:17 8.5 C 73 %
Sensor: Nr:Datum:Temp:Feuchte:
G-T/H 1376 20-01-2020 13:15:17 8.5 C 73 %
1377 20-01-2020 13:25:17 8.5 C 73 %
1378 20-01-2020 13:35:17 8.5 C 73 %
1379 20-01-2020 13:45:17 8.6 C 73 %
1380 20-01-2020 13:55:18 8.6 C 73 %
1381 20-01-2020 14:05:17 8.6 C 73 %
1382 20-01-2020 14:15:17 8.6 C 73 %
1383 20-01-2020 14:25:17 8.6 C 74 %
1384 20-01-2020 14:35:17 8.6 C 74 %
1385 20-01-2020 14:45:18 8.6 C 74 %
1386 20-01-2020 14:55:18 8.6 C 74 %
1387 20-01-2020 15:05:17 8.6 C 74 %
1388 20-01-2020 15:15:17 8.6 C 74 %
1389 20-01-2020 15:25:17 8.6 C 74 %
1390 20-01-2020 15:35:17 8.6 C 74 %
1391 20-01-2020 15:45:17 8.6 C 74 %
1392 20-01-2020 15:55:18 8.6 C 74 %
1393 20-01-2020 16:05:17 8.6 C 74 %
1394 20-01-2020 16:15:17 8.6 C 74 %
1395 20-01-2020 16:25:17 8.4 C 72 %
1396 20-01-2020 16:35:17 8.5 C 72 %
1397 20-01-2020 16:45:18 8.5 C 72 %
1398 20-01-2020 16:55:18 8.6 C 72 %
1399 20-01-2020 17:05:17 8.6 C 73 %
1400 20-01-2020 17:15:17 8.6 C 73 %
Sensor: Nr:Datum:Temp:Feuchte:
G-T/H 1401 20-01-2020 17:25:17 8.6 C 73 %
1402 20-01-2020 17:35:17 8.6 C 73 %
1403 20-01-2020 17:45:18 8.6 C 73 %
1404 20-01-2020 17:55:18 8.2 C 71 %
1405 20-01-2020 18:05:18 8.6 C 71 %
1406 20-01-2020 18:15:17 8.8 C 72 %
1407 20-01-2020 18:25:17 8.9 C 72 %
1408 20-01-2020 18:35:17 9 C 71 %
1409 20-01-2020 18:45:17 9.1 C 71 %
1410 20-01-2020 18:55:17 9.1 C 71 %
1411 20-01-2020 19:05:18 9.1 C 72 %
1412 20-01-2020 19:15:17 9.2 C 72 %
1413 20-01-2020 19:25:18 9.2 C 72 %
1414 20-01-2020 19:35:17 9.2 C 72 %
1415 20-01-2020 19:45:17 9.2 C 72 %
1416 20-01-2020 19:55:17 9.2 C 72 %
1417 20-01-2020 20:05:18 9.2 C 72 %
1418 20-01-2020 20:15:17 9.2 C 72 %
1419 20-01-2020 20:25:17 9.2 C 72 %
1420 20-01-2020 20:35:17 9.2 C 71 %
1421 20-01-2020 20:45:18 9.2 C 71 %
1422 20-01-2020 20:55:18 9.2 C 71 %
1423 20-01-2020 21:05:18 9.2 C 71 %
1424 20-01-2020 21:15:17 9.2 C 71 %
1425 20-01-2020 21:25:17 9.2 C 70 %
Sensor: Nr:Datum:Temp:Feuchte:
G-T/H 1426 20-01-2020 21:35:17 9.1 C 70 %
1427 20-01-2020 21:45:17 9.1 C 70 %
1428 20-01-2020 21:55:17 9.1 C 70 %
1429 20-01-2020 22:05:18 9.1 C 70 %
1430 20-01-2020 22:15:18 9.1 C 70 %
1431 20-01-2020 22:25:18 9.1 C 70 %
1432 20-01-2020 22:35:17 9.1 C 69 %
1433 20-01-2020 22:45:17 9 C 69 %
1434 20-01-2020 22:55:17 9 C 69 %
1435 20-01-2020 23:05:17 9 C 69 %
1436 20-01-2020 23:15:17 9 C 69 %
1437 20-01-2020 23:25:17 8.9 C 70 %
1438 20-01-2020 23:35:18 8.9 C 70 %
1439 20-01-2020 23:45:17 8.9 C 70 %
1440 20-01-2020 23:55:17 8.9 C 70 %
1441 21-01-2020 00:05:17 8.8 C 70 %
1442 21-01-2020 00:15:18 8.8 C 70 %
1443 21-01-2020 00:25:18 8.7 C 70 %
1444 21-01-2020 00:35:17 8.7 C 70 %
1445 21-01-2020 00:45:17 8.7 C 70 %
1446 21-01-2020 00:55:17 8.7 C 70 %
1447 21-01-2020 01:05:17 8.7 C 70 %
1448 21-01-2020 01:15:17 8.6 C 70 %
1449 21-01-2020 01:25:17 8.6 C 70 %
1450 21-01-2020 01:35:18 8.6 C 70 %
Sensor: Nr:Datum:Temp:Feuchte:
G-T/H 1451 21-01-2020 01:45:17 8.6 C 70 %
1452 21-01-2020 01:55:17 8.5 C 70 %
1453 21-01-2020 02:05:17 8.5 C 70 %
1454 21-01-2020 02:15:17 8.5 C 70 %
1455 21-01-2020 02:25:17 8.5 C 70 %
1456 21-01-2020 02:35:17 8.5 C 70 %
1457 21-01-2020 02:45:18 8.4 C 70 %
1458 21-01-2020 02:55:18 8.4 C 70 %
1459 21-01-2020 03:05:17 8.4 C 70 %
1460 21-01-2020 03:15:17 8.4 C 70 %
1461 21-01-2020 03:25:17 8.4 C 70 %
1462 21-01-2020 03:35:17 8.3 C 70 %
1463 21-01-2020 03:45:17 8.3 C 70 %
1464 21-01-2020 03:55:17 8.3 C 70 %
1465 21-01-2020 04:05:18 8.2 C 70 %
1466 21-01-2020 04:15:17 8.2 C 70 %
1467 21-01-2020 04:25:17 8.2 C 70 %
1468 21-01-2020 04:35:17 8.2 C 69 %
1469 21-01-2020 04:45:17 8.2 C 69 %
1470 21-01-2020 04:55:17 8.2 C 69 %
1471 21-01-2020 05:05:18 8.1 C 69 %
1472 21-01-2020 05:15:17 8.1 C 69 %
1473 21-01-2020 05:25:17 8.1 C 69 %
1474 21-01-2020 05:35:17 8.1 C 69 %
1475 21-01-2020 05:45:17 8 C 69 %
Sensor: Nr:Datum:Temp:Feuchte:
G-T/H 1476 21-01-2020 05:55:17 8 C 69 %
1477 21-01-2020 06:05:18 8 C 69 %
1478 21-01-2020 06:15:17 8 C 69 %
1479 21-01-2020 06:25:17 8 C 69 %
1480 21-01-2020 06:35:17 7.9 C 70 %
1481 21-01-2020 06:45:17 7.9 C 70 %
1482 21-01-2020 06:55:17 7.9 C 70 %
1483 21-01-2020 07:05:17 7.9 C 70 %
1484 21-01-2020 07:15:17 7.8 C 70 %
1485 21-01-2020 07:25:17 7.5 C 68 %
1486 21-01-2020 07:35:17 7.7 C 68 %
1487 21-01-2020 07:45:18 7.7 C 69 %
1488 21-01-2020 07:55:18 7.7 C 69 %
1489 21-01-2020 08:05:17 7.7 C 69 %
1490 21-01-2020 08:15:17 7.7 C 69 %
1491 21-01-2020 08:25:17 7.7 C 69 %
1492 21-01-2020 08:35:17 7.7 C 69 %
1493 21-01-2020 08:45:17 7.6 C 69 %
1494 21-01-2020 08:55:18 7.7 C 69 %
1495 21-01-2020 09:05:17 7.6 C 69 %
1496 21-01-2020 09:15:17 7.6 C 69 %
1497 21-01-2020 09:25:17 7.6 C 69 %
1498 21-01-2020 09:35:17 7.6 C 69 %
1499 21-01-2020 09:45:17 7.6 C 69 %
1500 21-01-2020 09:55:17 7.6 C 69 %
Sensor: Nr:Datum:Temp:Feuchte:
G-T/H 1501 21-01-2020 10:05:17 7.5 C 69 %
1502 21-01-2020 10:15:18 7.5 C 69 %
1503 21-01-2020 10:25:18 7.5 C 69 %
1504 21-01-2020 10:35:17 7.5 C 69 %
1505 21-01-2020 10:45:17 7.5 C 69 %
1506 21-01-2020 10:55:17 7.5 C 69 %
1507 21-01-2020 11:05:17 7.5 C 69 %
1508 21-01-2020 11:15:17 7.5 C 69 %
1509 21-01-2020 11:25:17 7.5 C 69 %
1510 21-01-2020 11:35:17 7.5 C 70 %
1511 21-01-2020 11:45:18 7.5 C 70 %
1512 21-01-2020 11:55:18 7.5 C 70 %
1513 21-01-2020 12:05:18 7.5 C 70 %
1514 21-01-2020 12:15:17 7.4 C 70 %
1515 21-01-2020 12:25:17 7.4 C 70 %
1516 21-01-2020 12:35:17 7.4 C 70 %
1517 21-01-2020 12:45:18 7.4 C 70 %
1518 21-01-2020 12:55:18 7.4 C 70 %
1519 21-01-2020 13:05:18 7.4 C 70 %
1520 21-01-2020 13:15:17 7.4 C 70 %
1521 21-01-2020 13:25:18 7.4 C 70 %
1522 21-01-2020 13:35:17 7.4 C 70 %
1523 21-01-2020 13:45:17 7.4 C 70 %
1524 21-01-2020 13:55:17 7.4 C 70 %
1525 21-01-2020 14:05:17 7.4 C 70 %
Sensor: Nr:Datum:Temp:Feuchte:
G-T/H 1526 21-01-2020 14:15:17 7.4 C 70 %
1527 21-01-2020 14:25:17 7.4 C 70 %
1528 21-01-2020 14:35:18 7.4 C 70 %
1529 21-01-2020 14:45:18 7.4 C 70 %
1530 21-01-2020 14:55:18 7.4 C 70 %
1531 21-01-2020 15:05:17 7.4 C 70 %
1532 21-01-2020 15:15:17 7.4 C 70 %
1533 21-01-2020 15:25:17 7.4 C 70 %
1534 21-01-2020 15:35:17 7.3 C 70 %
1535 21-01-2020 15:45:17 7.3 C 70 %
1536 21-01-2020 15:55:18 7.3 C 70 %
1537 21-01-2020 16:05:17 7.4 C 70 %
1538 21-01-2020 16:15:17 7.4 C 71 %
1539 21-01-2020 16:25:17 7.4 C 71 %
1540 21-01-2020 16:35:17 7.4 C 71 %
1541 21-01-2020 16:45:17 7.3 C 71 %
1542 21-01-2020 16:55:17 7.1 C 69 %
1543 21-01-2020 17:05:18 7.3 C 70 %
1544 21-01-2020 17:15:17 7.5 C 70 %
1545 21-01-2020 17:25:17 7.5 C 70 %
1546 21-01-2020 17:35:17 7.6 C 70 %
1547 21-01-2020 17:45:17 7.7 C 70 %
1548 21-01-2020 17:55:18 7.7 C 71 %
1549 21-01-2020 18:05:17 7.8 C 71 %
1550 21-01-2020 18:15:17 7.8 C 71 %
Sensor: Nr:Datum:Temp:Feuchte:
G-T/H 1551 21-01-2020 18:25:17 7.8 C 71 %
1552 21-01-2020 18:35:17 7.8 C 71 %
1553 21-01-2020 18:45:17 7.8 C 70 %
1554 21-01-2020 18:55:17 7.7 C 70 %
1555 21-01-2020 19:05:17 7.7 C 70 %
1556 21-01-2020 19:15:17 7.7 C 70 %
1557 21-01-2020 19:25:17 7.7 C 70 %
1558 21-01-2020 19:35:17 7.7 C 70 %
1559 21-01-2020 19:45:17 7.7 C 70 %
1560 21-01-2020 19:55:18 7.7 C 70 %
1561 21-01-2020 20:05:18 7.6 C 70 %
1562 21-01-2020 20:15:17 7.6 C 70 %
1563 21-01-2020 20:25:17 7.6 C 70 %
1564 21-01-2020 20:35:17 7.6 C 70 %
1565 21-01-2020 20:45:18 7.6 C 70 %
1566 21-01-2020 20:55:18 7.6 C 70 %
1567 21-01-2020 21:05:18 7.6 C 70 %
1568 21-01-2020 21:15:17 7.6 C 70 %
1569 21-01-2020 21:25:18 7.6 C 70 %
1570 21-01-2020 21:35:17 7.6 C 70 %
1571 21-01-2020 21:45:17 7.6 C 70 %
1572 21-01-2020 21:55:17 7.5 C 70 %
1573 21-01-2020 22:05:18 7.5 C 70 %
1574 21-01-2020 22:15:18 7.5 C 70 %
1575 21-01-2020 22:25:18 7.5 C 70 %
Sensor: Nr:Datum:Temp:Feuchte:
G-T/H 1576 21-01-2020 22:35:18 7.5 C 70 %
1577 21-01-2020 22:45:17 7.5 C 70 %
1578 21-01-2020 22:55:17 7.5 C 70 %
1579 21-01-2020 23:05:18 7.5 C 70 %
1580 21-01-2020 23:15:17 7.5 C 70 %
1581 21-01-2020 23:25:18 7.5 C 70 %
1582 21-01-2020 23:35:17 7.5 C 70 %
1583 21-01-2020 23:45:17 7.5 C 70 %
1584 21-01-2020 23:55:17 7.5 C 70 %
1585 22-01-2020 00:05:17 7.4 C 70 %
1586 22-01-2020 00:15:17 7.4 C 70 %
1587 22-01-2020 00:25:17 7.4 C 70 %
1588 22-01-2020 00:35:17 7.4 C 70 %
1589 22-01-2020 00:45:18 7.4 C 70 %
1590 22-01-2020 00:55:18 7.4 C 70 %
1591 22-01-2020 01:05:17 7.4 C 70 %
1592 22-01-2020 01:15:18 7.4 C 70 %
1593 22-01-2020 01:25:18 7.3 C 70 %
1594 22-01-2020 01:35:17 7.4 C 69 %
1595 22-01-2020 01:45:17 7.3 C 69 %
1596 22-01-2020 01:55:17 7.3 C 69 %
1597 22-01-2020 02:05:18 7.3 C 69 %
1598 22-01-2020 02:15:18 7.3 C 69 %
1599 22-01-2020 02:25:18 7.3 C 69 %
1600 22-01-2020 02:35:18 7.3 C 69 %
Sensor: Nr:Datum:Temp:Feuchte:
G-T/H 1601 22-01-2020 02:45:17 7.2 C 69 %
1602 22-01-2020 02:55:17 7.2 C 69 %
1603 22-01-2020 03:05:17 7.2 C 69 %
1604 22-01-2020 03:15:17 7.2 C 69 %
1605 22-01-2020 03:25:17 7.2 C 69 %
1606 22-01-2020 03:35:18 7.1 C 69 %
1607 22-01-2020 03:45:17 7.1 C 69 %
1608 22-01-2020 03:55:17 7.1 C 69 %
1609 22-01-2020 04:05:17 7.1 C 69 %
1610 22-01-2020 04:15:18 7.1 C 69 %
1611 22-01-2020 04:25:18 7.1 C 69 %
1612 22-01-2020 04:35:17 7.1 C 69 %
1613 22-01-2020 04:45:17 7.1 C 69 %
1614 22-01-2020 04:55:17 7.1 C 69 %
1615 22-01-2020 05:05:17 7.1 C 69 %
1616 22-01-2020 05:15:17 7 C 69 %
1617 22-01-2020 05:25:17 7 C 69 %
1618 22-01-2020 05:35:18 7 C 69 %
1619 22-01-2020 05:45:17 7 C 69 %
1620 22-01-2020 05:55:17 7 C 69 %
1621 22-01-2020 06:05:17 7 C 69 %
1622 22-01-2020 06:15:17 7 C 69 %
1623 22-01-2020 06:25:17 7 C 69 %
1624 22-01-2020 06:35:18 7 C 69 %
1625 22-01-2020 06:45:17 7 C 69 %
Sensor: Nr:Datum:Temp:Feuchte:
G-T/H 1626 22-01-2020 06:55:17 7 C 69 %
1627 22-01-2020 07:05:17 7 C 69 %
1628 22-01-2020 07:15:17 6.5 C 67 %
1629 22-01-2020 07:25:17 6.7 C 68 %
1630 22-01-2020 07:35:17 6.8 C 68 %
1631 22-01-2020 07:45:18 6.8 C 68 %
1632 22-01-2020 07:55:18 6.9 C 68 %
1633 22-01-2020 08:05:17 6.9 C 69 %
1634 22-01-2020 08:15:17 6.9 C 69 %
1635 22-01-2020 08:25:17 6.9 C 69 %
1636 22-01-2020 08:35:18 6.9 C 69 %
1637 22-01-2020 08:45:17 6.8 C 69 %
1638 22-01-2020 08:55:17 6.9 C 69 %
1639 22-01-2020 09:05:17 6.9 C 69 %
1640 22-01-2020 09:15:17 6.9 C 69 %
1641 22-01-2020 09:25:17 6.9 C 70 %
1642 22-01-2020 09:35:18 6.9 C 70 %
1643 22-01-2020 09:45:17 6.8 C 70 %
1644 22-01-2020 09:55:17 6.9 C 70 %
1645 22-01-2020 10:05:17 6.9 C 70 %
1646 22-01-2020 10:15:17 6.9 C 70 %
1647 22-01-2020 10:25:17 6.8 C 70 %
1648 22-01-2020 10:35:17 6.8 C 70 %
1649 22-01-2020 10:45:17 6.8 C 70 %
1650 22-01-2020 10:55:17 6.8 C 70 %
Sensor: Nr:Datum:Temp:Feuchte:
G-T/H 1651 22-01-2020 11:05:18 6.8 C 70 %
1652 22-01-2020 11:15:18 6.8 C 70 %
1653 22-01-2020 11:25:18 6.8 C 70 %
1654 22-01-2020 11:35:17 6.9 C 70 %
1655 22-01-2020 11:45:17 6.8 C 70 %
1656 22-01-2020 11:55:17 6.8 C 70 %
1657 22-01-2020 12:05:17 6.8 C 70 %
1658 22-01-2020 12:15:17 6.8 C 70 %
1659 22-01-2020 12:25:17 6.9 C 70 %
1660 22-01-2020 12:35:18 6.8 C 70 %
1661 22-01-2020 12:45:17 6.8 C 70 %
166